<?xml version="1.0" encoding="UTF-8" standalone="no" ?>
<gpx xmlns="http://www.topografix.com/GPX/1/1" xmlns:xsi="http://www.w3.org/2001/XMLSchema-instance" xsi:schemaLocation="http://www.topografix.com/GPX/1/1 http://www.topografix.com/GPX/1/1/gpx.xsd" version="1.1" creator="VisuGPX - https://www.visugpx.com">
  <metadata>
    <name>La roanne - version courte</name>
  </metadata>
  <trk>
    <name><![CDATA[La roanne - version courte_1]]></name>
    <extensions>
      <line xmlns="http://www.topografix.com/GPX/gpx_style/0/2">
        <color>0000FF</color>
        <width>4</width>
      </line>
    </extensions>
    <trkseg>
      <trkpt lat="44.62692" lon="5.20143">
        <ele>1052</ele>
        <time>2021-09-05T23:50:35+02:00</time>
      </trkpt>
      <trkpt lat="44.62692" lon="5.20143">
        <ele>1052</ele>
        <time>2021-09-05T23:50:40+02:00</time>
      </trkpt>
      <trkpt lat="44.62774" lon="5.20208">
        <ele>1048</ele>
        <time>2021-09-05T23:50:45+02:00</time>
      </trkpt>
      <trkpt lat="44.62835" lon="5.20293">
        <ele>1046</ele>
        <time>2021-09-05T23:50:50+02:00</time>
      </trkpt>
      <trkpt lat="44.6291" lon="5.20401">
        <ele>1040</ele>
        <time>2021-09-05T23:50:55+02:00</time>
      </trkpt>
      <trkpt lat="44.62931" lon="5.20493">
        <ele>1025</ele>
        <time>2021-09-05T23:51:00+02:00</time>
      </trkpt>
      <trkpt lat="44.63031" lon="5.20627">
        <ele>1025</ele>
        <time>2021-09-05T23:51:05+02:00</time>
      </trkpt>
      <trkpt lat="44.63033" lon="5.20699">
        <ele>1017</ele>
        <time>2021-09-05T23:51:10+02:00</time>
      </trkpt>
      <trkpt lat="44.63035" lon="5.2077">
        <ele>1007</ele>
        <time>2021-09-05T23:51:15+02:00</time>
      </trkpt>
      <trkpt lat="44.63103" lon="5.20846">
        <ele>1003</ele>
        <time>2021-09-05T23:51:20+02:00</time>
      </trkpt>
      <trkpt lat="44.63188" lon="5.20923">
        <ele>992</ele>
        <time>2021-09-05T23:51:25+02:00</time>
      </trkpt>
      <trkpt lat="44.63257" lon="5.2095">
        <ele>984</ele>
        <time>2021-09-05T23:51:30+02:00</time>
      </trkpt>
      <trkpt lat="44.63176" lon="5.20962">
        <ele>981</ele>
        <time>2021-09-05T23:51:35+02:00</time>
      </trkpt>
      <trkpt lat="44.63131" lon="5.20916">
        <ele>988</ele>
        <time>2021-09-05T23:51:40+02:00</time>
      </trkpt>
      <trkpt lat="44.63089" lon="5.20922">
        <ele>985</ele>
        <time>2021-09-05T23:51:45+02:00</time>
      </trkpt>
      <trkpt lat="44.63072" lon="5.20925">
        <ele>985</ele>
        <time>2021-09-05T23:51:50+02:00</time>
      </trkpt>
      <trkpt lat="44.63038" lon="5.20914">
        <ele>985</ele>
        <time>2021-09-05T23:51:55+02:00</time>
      </trkpt>
      <trkpt lat="44.63" lon="5.20863">
        <ele>982</ele>
        <time>2021-09-05T23:52:00+02:00</time>
      </trkpt>
      <trkpt lat="44.62946" lon="5.20737">
        <ele>981</ele>
        <time>2021-09-05T23:52:05+02:00</time>
      </trkpt>
      <trkpt lat="44.62898" lon="5.20746">
        <ele>972</ele>
        <time>2021-09-05T23:52:10+02:00</time>
      </trkpt>
      <trkpt lat="44.62876" lon="5.20725">
        <ele>973</ele>
        <time>2021-09-05T23:52:15+02:00</time>
      </trkpt>
      <trkpt lat="44.62846" lon="5.20645">
        <ele>972</ele>
        <time>2021-09-05T23:52:20+02:00</time>
      </trkpt>
      <trkpt lat="44.62801" lon="5.20566">
        <ele>966</ele>
        <time>2021-09-05T23:52:25+02:00</time>
      </trkpt>
      <trkpt lat="44.62758" lon="5.20479">
        <ele>964</ele>
        <time>2021-09-05T23:52:30+02:00</time>
      </trkpt>
      <trkpt lat="44.62715" lon="5.20467">
        <ele>955</ele>
        <time>2021-09-05T23:52:35+02:00</time>
      </trkpt>
      <trkpt lat="44.62667" lon="5.20463">
        <ele>956</ele>
        <time>2021-09-05T23:52:40+02:00</time>
      </trkpt>
      <trkpt lat="44.62653" lon="5.20515">
        <ele>952</ele>
        <time>2021-09-05T23:52:45+02:00</time>
      </trkpt>
      <trkpt lat="44.62625" lon="5.20551">
        <ele>955</ele>
        <time>2021-09-05T23:52:50+02:00</time>
      </trkpt>
      <trkpt lat="44.625" lon="5.20527">
        <ele>967</ele>
        <time>2021-09-05T23:52:55+02:00</time>
      </trkpt>
      <trkpt lat="44.62391" lon="5.20637">
        <ele>969</ele>
        <time>2021-09-05T23:53:00+02:00</time>
      </trkpt>
      <trkpt lat="44.62379" lon="5.20662">
        <ele>971</ele>
        <time>2021-09-05T23:53:05+02:00</time>
      </trkpt>
      <trkpt lat="44.62431" lon="5.20873">
        <ele>981</ele>
        <time>2021-09-05T23:53:10+02:00</time>
      </trkpt>
      <trkpt lat="44.62404" lon="5.20966">
        <ele>984</ele>
        <time>2021-09-05T23:53:15+02:00</time>
      </trkpt>
      <trkpt lat="44.62328" lon="5.21049">
        <ele>986</ele>
        <time>2021-09-05T23:53:20+02:00</time>
      </trkpt>
      <trkpt lat="44.62153" lon="5.21154">
        <ele>998</ele>
        <time>2021-09-05T23:53:25+02:00</time>
      </trkpt>
      <trkpt lat="44.62022" lon="5.2128">
        <ele>1018</ele>
        <time>2021-09-05T23:53:30+02:00</time>
      </trkpt>
      <trkpt lat="44.61989" lon="5.21405">
        <ele>1028</ele>
        <time>2021-09-05T23:53:35+02:00</time>
      </trkpt>
      <trkpt lat="44.62082" lon="5.21581">
        <ele>1034</ele>
        <time>2021-09-05T23:53:40+02:00</time>
      </trkpt>
      <trkpt lat="44.6205" lon="5.21619">
        <ele>1041</ele>
        <time>2021-09-05T23:53:45+02:00</time>
      </trkpt>
      <trkpt lat="44.62017" lon="5.21744">
        <ele>1053</ele>
        <time>2021-09-05T23:53:50+02:00</time>
      </trkpt>
      <trkpt lat="44.6202" lon="5.21763">
        <ele>1056</ele>
        <time>2021-09-05T23:53:55+02:00</time>
      </trkpt>
      <trkpt lat="44.62066" lon="5.21766">
        <ele>1049</ele>
        <time>2021-09-05T23:54:00+02:00</time>
      </trkpt>
      <trkpt lat="44.62098" lon="5.21836">
        <ele>1054</ele>
        <time>2021-09-05T23:54:05+02:00</time>
      </trkpt>
      <trkpt lat="44.62095" lon="5.21853">
        <ele>1059</ele>
        <time>2021-09-05T23:54:10+02:00</time>
      </trkpt>
      <trkpt lat="44.62033" lon="5.21823">
        <ele>1068</ele>
        <time>2021-09-05T23:54:15+02:00</time>
      </trkpt>
      <trkpt lat="44.6208" lon="5.21906">
        <ele>1072</ele>
        <time>2021-09-05T23:54:20+02:00</time>
      </trkpt>
      <trkpt lat="44.62014" lon="5.21867">
        <ele>1081</ele>
        <time>2021-09-05T23:54:25+02:00</time>
      </trkpt>
      <trkpt lat="44.61899" lon="5.21871">
        <ele>1099</ele>
        <time>2021-09-05T23:54:30+02:00</time>
      </trkpt>
      <trkpt lat="44.61935" lon="5.2193">
        <ele>1111</ele>
        <time>2021-09-05T23:54:35+02:00</time>
      </trkpt>
      <trkpt lat="44.61924" lon="5.21978">
        <ele>1119</ele>
        <time>2021-09-05T23:54:40+02:00</time>
      </trkpt>
      <trkpt lat="44.61945" lon="5.21972">
        <ele>1120</ele>
        <time>2021-09-05T23:54:45+02:00</time>
      </trkpt>
      <trkpt lat="44.61934" lon="5.22095">
        <ele>1129</ele>
        <time>2021-09-05T23:54:50+02:00</time>
      </trkpt>
      <trkpt lat="44.61903" lon="5.22073">
        <ele>1137</ele>
        <time>2021-09-05T23:54:55+02:00</time>
      </trkpt>
      <trkpt lat="44.61809" lon="5.2207">
        <ele>1151</ele>
        <time>2021-09-05T23:55:00+02:00</time>
      </trkpt>
      <trkpt lat="44.61721" lon="5.22021">
        <ele>1151</ele>
        <time>2021-09-05T23:55:05+02:00</time>
      </trkpt>
      <trkpt lat="44.61532" lon="5.21999">
        <ele>1128</ele>
        <time>2021-09-05T23:55:10+02:00</time>
      </trkpt>
      <trkpt lat="44.61416" lon="5.22032">
        <ele>1105</ele>
        <time>2021-09-05T23:55:15+02:00</time>
      </trkpt>
      <trkpt lat="44.61363" lon="5.22085">
        <ele>1096</ele>
        <time>2021-09-05T23:55:20+02:00</time>
      </trkpt>
      <trkpt lat="44.61334" lon="5.22168">
        <ele>1089</ele>
        <time>2021-09-05T23:55:25+02:00</time>
      </trkpt>
      <trkpt lat="44.61342" lon="5.22245">
        <ele>1083</ele>
        <time>2021-09-05T23:55:30+02:00</time>
      </trkpt>
      <trkpt lat="44.61422" lon="5.2238">
        <ele>1077</ele>
        <time>2021-09-05T23:55:35+02:00</time>
      </trkpt>
      <trkpt lat="44.61259" lon="5.2237">
        <ele>1077</ele>
        <time>2021-09-05T23:55:40+02:00</time>
      </trkpt>
      <trkpt lat="44.6119" lon="5.22427">
        <ele>1059</ele>
        <time>2021-09-05T23:55:45+02:00</time>
      </trkpt>
      <trkpt lat="44.61185" lon="5.22493">
        <ele>1048</ele>
        <time>2021-09-05T23:55:50+02:00</time>
      </trkpt>
      <trkpt lat="44.61108" lon="5.22593">
        <ele>1046</ele>
        <time>2021-09-05T23:55:55+02:00</time>
      </trkpt>
      <trkpt lat="44.61062" lon="5.22757">
        <ele>1035</ele>
        <time>2021-09-05T23:56:00+02:00</time>
      </trkpt>
      <trkpt lat="44.60969" lon="5.22855">
        <ele>1043</ele>
        <time>2021-09-05T23:56:05+02:00</time>
      </trkpt>
      <trkpt lat="44.60934" lon="5.22962">
        <ele>1030</ele>
        <time>2021-09-05T23:56:10+02:00</time>
      </trkpt>
      <trkpt lat="44.60871" lon="5.23036">
        <ele>1036</ele>
        <time>2021-09-05T23:56:15+02:00</time>
      </trkpt>
      <trkpt lat="44.6089" lon="5.23224">
        <ele>1025</ele>
        <time>2021-09-05T23:56:20+02:00</time>
      </trkpt>
      <trkpt lat="44.60817" lon="5.23345">
        <ele>1027</ele>
        <time>2021-09-05T23:56:25+02:00</time>
      </trkpt>
      <trkpt lat="44.60809" lon="5.23548">
        <ele>1019</ele>
        <time>2021-09-05T23:56:30+02:00</time>
      </trkpt>
      <trkpt lat="44.60695" lon="5.23654">
        <ele>1007</ele>
        <time>2021-09-05T23:56:35+02:00</time>
      </trkpt>
      <trkpt lat="44.60565" lon="5.23897">
        <ele>977</ele>
        <time>2021-09-05T23:56:40+02:00</time>
      </trkpt>
      <trkpt lat="44.60456" lon="5.23977">
        <ele>974</ele>
        <time>2021-09-05T23:56:45+02:00</time>
      </trkpt>
      <trkpt lat="44.60612" lon="5.23955">
        <ele>957</ele>
        <time>2021-09-05T23:56:50+02:00</time>
      </trkpt>
      <trkpt lat="44.60519" lon="5.24074">
        <ele>944</ele>
        <time>2021-09-05T23:56:55+02:00</time>
      </trkpt>
      <trkpt lat="44.60581" lon="5.24088">
        <ele>929</ele>
        <time>2021-09-05T23:57:00+02:00</time>
      </trkpt>
      <trkpt lat="44.6048" lon="5.24171">
        <ele>921</ele>
        <time>2021-09-05T23:57:05+02:00</time>
      </trkpt>
      <trkpt lat="44.60431" lon="5.24257">
        <ele>904</ele>
        <time>2021-09-05T23:57:10+02:00</time>
      </trkpt>
      <trkpt lat="44.60336" lon="5.24294">
        <ele>895</ele>
        <time>2021-09-05T23:57:15+02:00</time>
      </trkpt>
      <trkpt lat="44.6025" lon="5.24276">
        <ele>890</ele>
        <time>2021-09-05T23:57:20+02:00</time>
      </trkpt>
      <trkpt lat="44.60278" lon="5.24411">
        <ele>875</ele>
        <time>2021-09-05T23:57:25+02:00</time>
      </trkpt>
      <trkpt lat="44.60249" lon="5.24487">
        <ele>874</ele>
        <time>2021-09-05T23:57:30+02:00</time>
      </trkpt>
      <trkpt lat="44.60151" lon="5.24524">
        <ele>867</ele>
        <time>2021-09-05T23:57:35+02:00</time>
      </trkpt>
      <trkpt lat="44.60045" lon="5.24512">
        <ele>866</ele>
        <time>2021-09-05T23:57:40+02:00</time>
      </trkpt>
      <trkpt lat="44.59984" lon="5.24577">
        <ele>854</ele>
        <time>2021-09-05T23:57:45+02:00</time>
      </trkpt>
      <trkpt lat="44.59887" lon="5.24592">
        <ele>852</ele>
        <time>2021-09-05T23:57:50+02:00</time>
      </trkpt>
      <trkpt lat="44.59822" lon="5.24664">
        <ele>847</ele>
        <time>2021-09-05T23:57:55+02:00</time>
      </trkpt>
      <trkpt lat="44.59653" lon="5.24764">
        <ele>821</ele>
        <time>2021-09-05T23:58:00+02:00</time>
      </trkpt>
      <trkpt lat="44.59617" lon="5.24908">
        <ele>809</ele>
        <time>2021-09-05T23:58:05+02:00</time>
      </trkpt>
      <trkpt lat="44.59611" lon="5.24872">
        <ele>808</ele>
        <time>2021-09-05T23:58:10+02:00</time>
      </trkpt>
      <trkpt lat="44.59583" lon="5.249">
        <ele>790</ele>
        <time>2021-09-05T23:58:15+02:00</time>
      </trkpt>
      <trkpt lat="44.59515" lon="5.25121">
        <ele>750</ele>
        <time>2021-09-05T23:58:20+02:00</time>
      </trkpt>
      <trkpt lat="44.59487" lon="5.25381">
        <ele>724</ele>
        <time>2021-09-05T23:58:25+02:00</time>
      </trkpt>
      <trkpt lat="44.59462" lon="5.25332">
        <ele>715</ele>
        <time>2021-09-05T23:58:30+02:00</time>
      </trkpt>
      <trkpt lat="44.59466" lon="5.25456">
        <ele>711</ele>
        <time>2021-09-05T23:58:35+02:00</time>
      </trkpt>
      <trkpt lat="44.59416" lon="5.25615">
        <ele>690</ele>
        <time>2021-09-05T23:58:40+02:00</time>
      </trkpt>
      <trkpt lat="44.5942" lon="5.25786">
        <ele>675</ele>
        <time>2021-09-05T23:58:45+02:00</time>
      </trkpt>
      <trkpt lat="44.59248" lon="5.26043">
        <ele>637</ele>
        <time>2021-09-05T23:58:50+02:00</time>
      </trkpt>
      <trkpt lat="44.59239" lon="5.2616">
        <ele>635</ele>
        <time>2021-09-05T23:58:55+02:00</time>
      </trkpt>
      <trkpt lat="44.59111" lon="5.2616">
        <ele>625</ele>
        <time>2021-09-05T23:59:00+02:00</time>
      </trkpt>
      <trkpt lat="44.59035" lon="5.26185">
        <ele>622</ele>
        <time>2021-09-05T23:59:05+02:00</time>
      </trkpt>
      <trkpt lat="44.58852" lon="5.26137">
        <ele>616</ele>
        <time>2021-09-05T23:59:10+02:00</time>
      </trkpt>
      <trkpt lat="44.58632" lon="5.26152">
        <ele>606</ele>
        <time>2021-09-05T23:59:15+02:00</time>
      </trkpt>
      <trkpt lat="44.58481" lon="5.2629">
        <ele>603</ele>
        <time>2021-09-05T23:59:20+02:00</time>
      </trkpt>
      <trkpt lat="44.58121" lon="5.26475">
        <ele>584</ele>
        <time>2021-09-05T23:59:25+02:00</time>
      </trkpt>
      <trkpt lat="44.57912" lon="5.26886">
        <ele>573</ele>
        <time>2021-09-05T23:59:30+02:00</time>
      </trkpt>
      <trkpt lat="44.57888" lon="5.27142">
        <ele>569</ele>
        <time>2021-09-05T23:59:35+02:00</time>
      </trkpt>
      <trkpt lat="44.57691" lon="5.27409">
        <ele>562</ele>
        <time>2021-09-05T23:59:40+02:00</time>
      </trkpt>
      <trkpt lat="44.57693" lon="5.27573">
        <ele>560</ele>
        <time>2021-09-05T23:59:45+02:00</time>
      </trkpt>
      <trkpt lat="44.57612" lon="5.27574">
        <ele>552</ele>
        <time>2021-09-05T23:59:50+02:00</time>
      </trkpt>
      <trkpt lat="44.57476" lon="5.27622">
        <ele>555</ele>
        <time>2021-09-05T23:59:55+02:00</time>
      </trkpt>
      <trkpt lat="44.57056" lon="5.27494">
        <ele>560</ele>
        <time>2021-09-06T00:00:00+02:00</time>
      </trkpt>
      <trkpt lat="44.57039" lon="5.275">
        <ele>560</ele>
        <time>2021-09-06T00:00:05+02:00</time>
      </trkpt>
      <trkpt lat="44.57031" lon="5.27617">
        <ele>561</ele>
        <time>2021-09-06T00:00:10+02:00</time>
      </trkpt>
      <trkpt lat="44.56973" lon="5.27617">
        <ele>564</ele>
        <time>2021-09-06T00:00:15+02:00</time>
      </trkpt>
      <trkpt lat="44.56935" lon="5.27673">
        <ele>572</ele>
        <time>2021-09-06T00:00:20+02:00</time>
      </trkpt>
      <trkpt lat="44.56933" lon="5.27669">
        <ele>571</ele>
        <time>2021-09-06T00:00:25+02:00</time>
      </trkpt>
      <trkpt lat="44.56933" lon="5.27669">
        <ele>571</ele>
        <time>2021-09-06T00:00:30+02:00</time>
      </trkpt>
      <trkpt lat="44.56938" lon="5.27676">
        <ele>573</ele>
        <time>2021-09-06T00:00:35+02:00</time>
      </trkpt>
      <trkpt lat="44.56943" lon="5.2768">
        <ele>574</ele>
        <time>2021-09-06T00:00:40+02:00</time>
      </trkpt>
      <trkpt lat="44.56951" lon="5.27684">
        <ele>576</ele>
        <time>2021-09-06T00:00:45+02:00</time>
      </trkpt>
      <trkpt lat="44.56948" lon="5.27694">
        <ele>579</ele>
        <time>2021-09-06T00:00:50+02:00</time>
      </trkpt>
      <trkpt lat="44.56944" lon="5.2771">
        <ele>582</ele>
        <time>2021-09-06T00:00:55+02:00</time>
      </trkpt>
      <trkpt lat="44.56942" lon="5.27724">
        <ele>584</ele>
        <time>2021-09-06T00:01:00+02:00</time>
      </trkpt>
      <trkpt lat="44.5694" lon="5.27737">
        <ele>586</ele>
        <time>2021-09-06T00:01:05+02:00</time>
      </trkpt>
      <trkpt lat="44.56938" lon="5.2775">
        <ele>587</ele>
        <time>2021-09-06T00:01:10+02:00</time>
      </trkpt>
      <trkpt lat="44.56936" lon="5.27761">
        <ele>589</ele>
        <time>2021-09-06T00:01:15+02:00</time>
      </trkpt>
      <trkpt lat="44.5694" lon="5.27761">
        <ele>589</ele>
        <time>2021-09-06T00:01:20+02:00</time>
      </trkpt>
      <trkpt lat="44.56945" lon="5.27755">
        <ele>589</ele>
        <time>2021-09-06T00:01:25+02:00</time>
      </trkpt>
      <trkpt lat="44.56952" lon="5.27755">
        <ele>589</ele>
        <time>2021-09-06T00:01:30+02:00</time>
      </trkpt>
      <trkpt lat="44.5695" lon="5.27762">
        <ele>590</ele>
        <time>2021-09-06T00:01:35+02:00</time>
      </trkpt>
      <trkpt lat="44.5694" lon="5.27782">
        <ele>592</ele>
        <time>2021-09-06T00:01:40+02:00</time>
      </trkpt>
      <trkpt lat="44.56936" lon="5.27797">
        <ele>592</ele>
        <time>2021-09-06T00:01:45+02:00</time>
      </trkpt>
      <trkpt lat="44.56928" lon="5.27817">
        <ele>594</ele>
        <time>2021-09-06T00:01:50+02:00</time>
      </trkpt>
      <trkpt lat="44.56926" lon="5.27834">
        <ele>596</ele>
        <time>2021-09-06T00:01:55+02:00</time>
      </trkpt>
      <trkpt lat="44.56924" lon="5.27852">
        <ele>598</ele>
        <time>2021-09-06T00:02:00+02:00</time>
      </trkpt>
      <trkpt lat="44.56922" lon="5.27865">
        <ele>600</ele>
        <time>2021-09-06T00:02:05+02:00</time>
      </trkpt>
      <trkpt lat="44.5692" lon="5.27889">
        <ele>602</ele>
        <time>2021-09-06T00:02:10+02:00</time>
      </trkpt>
      <trkpt lat="44.56917" lon="5.27908">
        <ele>604</ele>
        <time>2021-09-06T00:02:15+02:00</time>
      </trkpt>
      <trkpt lat="44.56915" lon="5.27927">
        <ele>606</ele>
        <time>2021-09-06T00:02:20+02:00</time>
      </trkpt>
      <trkpt lat="44.56914" lon="5.27943">
        <ele>607</ele>
        <time>2021-09-06T00:02:25+02:00</time>
      </trkpt>
      <trkpt lat="44.56913" lon="5.27962">
        <ele>609</ele>
        <time>2021-09-06T00:02:30+02:00</time>
      </trkpt>
      <trkpt lat="44.56912" lon="5.27995">
        <ele>614</ele>
        <time>2021-09-06T00:02:35+02:00</time>
      </trkpt>
      <trkpt lat="44.56908" lon="5.28007">
        <ele>616</ele>
        <time>2021-09-06T00:02:40+02:00</time>
      </trkpt>
      <trkpt lat="44.56903" lon="5.28018">
        <ele>618</ele>
        <time>2021-09-06T00:02:45+02:00</time>
      </trkpt>
      <trkpt lat="44.56902" lon="5.28029">
        <ele>620</ele>
        <time>2021-09-06T00:02:50+02:00</time>
      </trkpt>
      <trkpt lat="44.56912" lon="5.28025">
        <ele>621</ele>
        <time>2021-09-06T00:02:55+02:00</time>
      </trkpt>
      <trkpt lat="44.56913" lon="5.28033">
        <ele>623</ele>
        <time>2021-09-06T00:03:00+02:00</time>
      </trkpt>
      <trkpt lat="44.56913" lon="5.28049">
        <ele>626</ele>
        <time>2021-09-06T00:03:05+02:00</time>
      </trkpt>
      <trkpt lat="44.56909" lon="5.28065">
        <ele>628</ele>
        <time>2021-09-06T00:03:10+02:00</time>
      </trkpt>
      <trkpt lat="44.56903" lon="5.28092">
        <ele>631</ele>
        <time>2021-09-06T00:03:15+02:00</time>
      </trkpt>
      <trkpt lat="44.56897" lon="5.28119">
        <ele>635</ele>
        <time>2021-09-06T00:03:20+02:00</time>
      </trkpt>
      <trkpt lat="44.56891" lon="5.2813">
        <ele>635</ele>
        <time>2021-09-06T00:03:25+02:00</time>
      </trkpt>
      <trkpt lat="44.56891" lon="5.2814">
        <ele>637</ele>
        <time>2021-09-06T00:03:30+02:00</time>
      </trkpt>
      <trkpt lat="44.56897" lon="5.28153">
        <ele>641</ele>
        <time>2021-09-06T00:03:35+02:00</time>
      </trkpt>
      <trkpt lat="44.56898" lon="5.28165">
        <ele>643</ele>
        <time>2021-09-06T00:03:40+02:00</time>
      </trkpt>
      <trkpt lat="44.56897" lon="5.28179">
        <ele>645</ele>
        <time>2021-09-06T00:03:45+02:00</time>
      </trkpt>
      <trkpt lat="44.56896" lon="5.28195">
        <ele>648</ele>
        <time>2021-09-06T00:03:50+02:00</time>
      </trkpt>
      <trkpt lat="44.56894" lon="5.28205">
        <ele>649</ele>
        <time>2021-09-06T00:03:55+02:00</time>
      </trkpt>
      <trkpt lat="44.56893" lon="5.28217">
        <ele>651</ele>
        <time>2021-09-06T00:04:00+02:00</time>
      </trkpt>
      <trkpt lat="44.56887" lon="5.28228">
        <ele>651</ele>
        <time>2021-09-06T00:04:05+02:00</time>
      </trkpt>
      <trkpt lat="44.56891" lon="5.28231">
        <ele>652</ele>
        <time>2021-09-06T00:04:10+02:00</time>
      </trkpt>
      <trkpt lat="44.56904" lon="5.28226">
        <ele>656</ele>
        <time>2021-09-06T00:04:15+02:00</time>
      </trkpt>
      <trkpt lat="44.56917" lon="5.28218">
        <ele>658</ele>
        <time>2021-09-06T00:04:20+02:00</time>
      </trkpt>
      <trkpt lat="44.56941" lon="5.28203">
        <ele>660</ele>
        <time>2021-09-06T00:04:25+02:00</time>
      </trkpt>
      <trkpt lat="44.56954" lon="5.28199">
        <ele>662</ele>
        <time>2021-09-06T00:04:30+02:00</time>
      </trkpt>
      <trkpt lat="44.56959" lon="5.28197">
        <ele>662</ele>
        <time>2021-09-06T00:04:35+02:00</time>
      </trkpt>
      <trkpt lat="44.56974" lon="5.28213">
        <ele>667</ele>
        <time>2021-09-06T00:04:40+02:00</time>
      </trkpt>
      <trkpt lat="44.56987" lon="5.28229">
        <ele>669</ele>
        <time>2021-09-06T00:04:45+02:00</time>
      </trkpt>
      <trkpt lat="44.57005" lon="5.28244">
        <ele>672</ele>
        <time>2021-09-06T00:04:50+02:00</time>
      </trkpt>
      <trkpt lat="44.57018" lon="5.28262">
        <ele>674</ele>
        <time>2021-09-06T00:04:55+02:00</time>
      </trkpt>
      <trkpt lat="44.5703" lon="5.2828">
        <ele>676</ele>
        <time>2021-09-06T00:05:00+02:00</time>
      </trkpt>
      <trkpt lat="44.57046" lon="5.28295">
        <ele>678</ele>
        <time>2021-09-06T00:05:05+02:00</time>
      </trkpt>
      <trkpt lat="44.57058" lon="5.28306">
        <ele>679</ele>
        <time>2021-09-06T00:05:10+02:00</time>
      </trkpt>
      <trkpt lat="44.57067" lon="5.2832">
        <ele>683</ele>
        <time>2021-09-06T00:05:15+02:00</time>
      </trkpt>
      <trkpt lat="44.57076" lon="5.28334">
        <ele>686</ele>
        <time>2021-09-06T00:05:20+02:00</time>
      </trkpt>
      <trkpt lat="44.57086" lon="5.28341">
        <ele>689</ele>
        <time>2021-09-06T00:05:25+02:00</time>
      </trkpt>
      <trkpt lat="44.57099" lon="5.28345">
        <ele>692</ele>
        <time>2021-09-06T00:05:30+02:00</time>
      </trkpt>
      <trkpt lat="44.57104" lon="5.28353">
        <ele>694</ele>
        <time>2021-09-06T00:05:35+02:00</time>
      </trkpt>
      <trkpt lat="44.57114" lon="5.28352">
        <ele>695</ele>
        <time>2021-09-06T00:05:40+02:00</time>
      </trkpt>
      <trkpt lat="44.57123" lon="5.28356">
        <ele>697</ele>
        <time>2021-09-06T00:05:45+02:00</time>
      </trkpt>
      <trkpt lat="44.57131" lon="5.28361">
        <ele>699</ele>
        <time>2021-09-06T00:05:50+02:00</time>
      </trkpt>
      <trkpt lat="44.57139" lon="5.28368">
        <ele>701</ele>
        <time>2021-09-06T00:05:55+02:00</time>
      </trkpt>
      <trkpt lat="44.57133" lon="5.28376">
        <ele>701</ele>
        <time>2021-09-06T00:06:00+02:00</time>
      </trkpt>
      <trkpt lat="44.57122" lon="5.28386">
        <ele>702</ele>
        <time>2021-09-06T00:06:05+02:00</time>
      </trkpt>
      <trkpt lat="44.57116" lon="5.28392">
        <ele>702</ele>
        <time>2021-09-06T00:06:10+02:00</time>
      </trkpt>
      <trkpt lat="44.57108" lon="5.28408">
        <ele>705</ele>
        <time>2021-09-06T00:06:15+02:00</time>
      </trkpt>
      <trkpt lat="44.57127" lon="5.28403">
        <ele>705</ele>
        <time>2021-09-06T00:06:20+02:00</time>
      </trkpt>
      <trkpt lat="44.5715" lon="5.28396">
        <ele>706</ele>
        <time>2021-09-06T00:06:25+02:00</time>
      </trkpt>
      <trkpt lat="44.57167" lon="5.28396">
        <ele>708</ele>
        <time>2021-09-06T00:06:30+02:00</time>
      </trkpt>
      <trkpt lat="44.5718" lon="5.284">
        <ele>710</ele>
        <time>2021-09-06T00:06:35+02:00</time>
      </trkpt>
      <trkpt lat="44.57202" lon="5.28409">
        <ele>714</ele>
        <time>2021-09-06T00:06:40+02:00</time>
      </trkpt>
      <trkpt lat="44.57218" lon="5.28414">
        <ele>717</ele>
        <time>2021-09-06T00:06:45+02:00</time>
      </trkpt>
      <trkpt lat="44.57235" lon="5.28411">
        <ele>718</ele>
        <time>2021-09-06T00:06:50+02:00</time>
      </trkpt>
      <trkpt lat="44.57253" lon="5.28406">
        <ele>718</ele>
        <time>2021-09-06T00:06:55+02:00</time>
      </trkpt>
      <trkpt lat="44.57267" lon="5.28404">
        <ele>718</ele>
        <time>2021-09-06T00:07:00+02:00</time>
      </trkpt>
      <trkpt lat="44.57282" lon="5.28411">
        <ele>718</ele>
        <time>2021-09-06T00:07:05+02:00</time>
      </trkpt>
      <trkpt lat="44.57302" lon="5.28429">
        <ele>719</ele>
        <time>2021-09-06T00:07:10+02:00</time>
      </trkpt>
      <trkpt lat="44.57327" lon="5.28448">
        <ele>720</ele>
        <time>2021-09-06T00:07:15+02:00</time>
      </trkpt>
      <trkpt lat="44.57333" lon="5.28455">
        <ele>721</ele>
        <time>2021-09-06T00:07:20+02:00</time>
      </trkpt>
      <trkpt lat="44.57342" lon="5.28477">
        <ele>722</ele>
        <time>2021-09-06T00:07:25+02:00</time>
      </trkpt>
      <trkpt lat="44.57348" lon="5.285">
        <ele>723</ele>
        <time>2021-09-06T00:07:30+02:00</time>
      </trkpt>
      <trkpt lat="44.57354" lon="5.28521">
        <ele>724</ele>
        <time>2021-09-06T00:07:35+02:00</time>
      </trkpt>
      <trkpt lat="44.57361" lon="5.28533">
        <ele>724</ele>
        <time>2021-09-06T00:07:40+02:00</time>
      </trkpt>
      <trkpt lat="44.57366" lon="5.28543">
        <ele>725</ele>
        <time>2021-09-06T00:07:45+02:00</time>
      </trkpt>
      <trkpt lat="44.57367" lon="5.28556">
        <ele>725</ele>
        <time>2021-09-06T00:07:50+02:00</time>
      </trkpt>
      <trkpt lat="44.57369" lon="5.28568">
        <ele>726</ele>
        <time>2021-09-06T00:07:55+02:00</time>
      </trkpt>
      <trkpt lat="44.57373" lon="5.28579">
        <ele>726</ele>
        <time>2021-09-06T00:08:00+02:00</time>
      </trkpt>
      <trkpt lat="44.57374" lon="5.2859">
        <ele>727</ele>
        <time>2021-09-06T00:08:05+02:00</time>
      </trkpt>
      <trkpt lat="44.57384" lon="5.28592">
        <ele>726</ele>
        <time>2021-09-06T00:08:10+02:00</time>
      </trkpt>
      <trkpt lat="44.57391" lon="5.28595">
        <ele>726</ele>
        <time>2021-09-06T00:08:15+02:00</time>
      </trkpt>
      <trkpt lat="44.574" lon="5.28609">
        <ele>726</ele>
        <time>2021-09-06T00:08:20+02:00</time>
      </trkpt>
      <trkpt lat="44.57429" lon="5.28656">
        <ele>729</ele>
        <time>2021-09-06T00:08:25+02:00</time>
      </trkpt>
      <trkpt lat="44.57453" lon="5.28697">
        <ele>734</ele>
        <time>2021-09-06T00:08:30+02:00</time>
      </trkpt>
      <trkpt lat="44.57474" lon="5.28722">
        <ele>739</ele>
        <time>2021-09-06T00:08:35+02:00</time>
      </trkpt>
      <trkpt lat="44.57484" lon="5.28732">
        <ele>741</ele>
        <time>2021-09-06T00:08:40+02:00</time>
      </trkpt>
      <trkpt lat="44.57489" lon="5.28737">
        <ele>742</ele>
        <time>2021-09-06T00:08:45+02:00</time>
      </trkpt>
      <trkpt lat="44.57487" lon="5.28744">
        <ele>744</ele>
        <time>2021-09-06T00:08:50+02:00</time>
      </trkpt>
      <trkpt lat="44.57482" lon="5.28741">
        <ele>744</ele>
        <time>2021-09-06T00:08:55+02:00</time>
      </trkpt>
      <trkpt lat="44.57472" lon="5.28733">
        <ele>742</ele>
        <time>2021-09-06T00:09:00+02:00</time>
      </trkpt>
      <trkpt lat="44.57465" lon="5.28729">
        <ele>742</ele>
        <time>2021-09-06T00:09:05+02:00</time>
      </trkpt>
      <trkpt lat="44.5745" lon="5.28734">
        <ele>744</ele>
        <time>2021-09-06T00:09:10+02:00</time>
      </trkpt>
      <trkpt lat="44.57438" lon="5.28735">
        <ele>745</ele>
        <time>2021-09-06T00:09:15+02:00</time>
      </trkpt>
      <trkpt lat="44.57428" lon="5.28737">
        <ele>746</ele>
        <time>2021-09-06T00:09:20+02:00</time>
      </trkpt>
      <trkpt lat="44.57416" lon="5.2874">
        <ele>747</ele>
        <time>2021-09-06T00:09:25+02:00</time>
      </trkpt>
      <trkpt lat="44.57408" lon="5.28737">
        <ele>747</ele>
        <time>2021-09-06T00:09:30+02:00</time>
      </trkpt>
      <trkpt lat="44.57385" lon="5.28717">
        <ele>745</ele>
        <time>2021-09-06T00:09:35+02:00</time>
      </trkpt>
      <trkpt lat="44.57377" lon="5.28711">
        <ele>743</ele>
        <time>2021-09-06T00:09:40+02:00</time>
      </trkpt>
      <trkpt lat="44.5737" lon="5.2871">
        <ele>743</ele>
        <time>2021-09-06T00:09:45+02:00</time>
      </trkpt>
      <trkpt lat="44.5736" lon="5.28711">
        <ele>744</ele>
        <time>2021-09-06T00:09:50+02:00</time>
      </trkpt>
      <trkpt lat="44.57349" lon="5.2872">
        <ele>745</ele>
        <time>2021-09-06T00:09:55+02:00</time>
      </trkpt>
      <trkpt lat="44.57338" lon="5.28727">
        <ele>746</ele>
        <time>2021-09-06T00:10:00+02:00</time>
      </trkpt>
      <trkpt lat="44.57329" lon="5.28743">
        <ele>749</ele>
        <time>2021-09-06T00:10:05+02:00</time>
      </trkpt>
      <trkpt lat="44.57321" lon="5.2876">
        <ele>751</ele>
        <time>2021-09-06T00:10:10+02:00</time>
      </trkpt>
      <trkpt lat="44.57311" lon="5.28769">
        <ele>752</ele>
        <time>2021-09-06T00:10:15+02:00</time>
      </trkpt>
      <trkpt lat="44.57301" lon="5.28774">
        <ele>752</ele>
        <time>2021-09-06T00:10:20+02:00</time>
      </trkpt>
      <trkpt lat="44.57291" lon="5.28773">
        <ele>750</ele>
        <time>2021-09-06T00:10:25+02:00</time>
      </trkpt>
      <trkpt lat="44.57281" lon="5.2877">
        <ele>749</ele>
        <time>2021-09-06T00:10:30+02:00</time>
      </trkpt>
      <trkpt lat="44.5727" lon="5.28775">
        <ele>749</ele>
        <time>2021-09-06T00:10:35+02:00</time>
      </trkpt>
      <trkpt lat="44.57254" lon="5.28786">
        <ele>751</ele>
        <time>2021-09-06T00:10:40+02:00</time>
      </trkpt>
      <trkpt lat="44.57241" lon="5.28797">
        <ele>753</ele>
        <time>2021-09-06T00:10:45+02:00</time>
      </trkpt>
      <trkpt lat="44.57225" lon="5.28809">
        <ele>755</ele>
        <time>2021-09-06T00:10:50+02:00</time>
      </trkpt>
      <trkpt lat="44.5721" lon="5.28821">
        <ele>757</ele>
        <time>2021-09-06T00:10:55+02:00</time>
      </trkpt>
      <trkpt lat="44.572" lon="5.28831">
        <ele>759</ele>
        <time>2021-09-06T00:11:00+02:00</time>
      </trkpt>
      <trkpt lat="44.57197" lon="5.28839">
        <ele>761</ele>
        <time>2021-09-06T00:11:05+02:00</time>
      </trkpt>
      <trkpt lat="44.57204" lon="5.28842">
        <ele>762</ele>
        <time>2021-09-06T00:11:10+02:00</time>
      </trkpt>
      <trkpt lat="44.57217" lon="5.28837">
        <ele>762</ele>
        <time>2021-09-06T00:11:15+02:00</time>
      </trkpt>
      <trkpt lat="44.57235" lon="5.28836">
        <ele>763</ele>
        <time>2021-09-06T00:11:20+02:00</time>
      </trkpt>
      <trkpt lat="44.57243" lon="5.28835">
        <ele>764</ele>
        <time>2021-09-06T00:11:25+02:00</time>
      </trkpt>
      <trkpt lat="44.57253" lon="5.28837">
        <ele>765</ele>
        <time>2021-09-06T00:11:30+02:00</time>
      </trkpt>
      <trkpt lat="44.57254" lon="5.28844">
        <ele>768</ele>
        <time>2021-09-06T00:11:35+02:00</time>
      </trkpt>
      <trkpt lat="44.57246" lon="5.28849">
        <ele>769</ele>
        <time>2021-09-06T00:11:40+02:00</time>
      </trkpt>
      <trkpt lat="44.57239" lon="5.28851">
        <ele>769</ele>
        <time>2021-09-06T00:11:45+02:00</time>
      </trkpt>
      <trkpt lat="44.5723" lon="5.28862">
        <ele>771</ele>
        <time>2021-09-06T00:11:50+02:00</time>
      </trkpt>
      <trkpt lat="44.57221" lon="5.28876">
        <ele>774</ele>
        <time>2021-09-06T00:11:55+02:00</time>
      </trkpt>
      <trkpt lat="44.57215" lon="5.28886">
        <ele>775</ele>
        <time>2021-09-06T00:12:00+02:00</time>
      </trkpt>
      <trkpt lat="44.5721" lon="5.28897">
        <ele>776</ele>
        <time>2021-09-06T00:12:05+02:00</time>
      </trkpt>
      <trkpt lat="44.57201" lon="5.28908">
        <ele>777</ele>
        <time>2021-09-06T00:12:10+02:00</time>
      </trkpt>
      <trkpt lat="44.5719" lon="5.28914">
        <ele>777</ele>
        <time>2021-09-06T00:12:15+02:00</time>
      </trkpt>
      <trkpt lat="44.57176" lon="5.28923">
        <ele>778</ele>
        <time>2021-09-06T00:12:20+02:00</time>
      </trkpt>
      <trkpt lat="44.57166" lon="5.28935">
        <ele>780</ele>
        <time>2021-09-06T00:12:25+02:00</time>
      </trkpt>
      <trkpt lat="44.5715" lon="5.28955">
        <ele>785</ele>
        <time>2021-09-06T00:12:30+02:00</time>
      </trkpt>
      <trkpt lat="44.57134" lon="5.28973">
        <ele>789</ele>
        <time>2021-09-06T00:12:35+02:00</time>
      </trkpt>
      <trkpt lat="44.57116" lon="5.28989">
        <ele>791</ele>
        <time>2021-09-06T00:12:40+02:00</time>
      </trkpt>
      <trkpt lat="44.57105" lon="5.28998">
        <ele>792</ele>
        <time>2021-09-06T00:12:45+02:00</time>
      </trkpt>
      <trkpt lat="44.5709" lon="5.29002">
        <ele>791</ele>
        <time>2021-09-06T00:12:50+02:00</time>
      </trkpt>
      <trkpt lat="44.57076" lon="5.29005">
        <ele>790</ele>
        <time>2021-09-06T00:12:55+02:00</time>
      </trkpt>
      <trkpt lat="44.57061" lon="5.29012">
        <ele>790</ele>
        <time>2021-09-06T00:13:00+02:00</time>
      </trkpt>
      <trkpt lat="44.57051" lon="5.29021">
        <ele>791</ele>
        <time>2021-09-06T00:13:05+02:00</time>
      </trkpt>
      <trkpt lat="44.57046" lon="5.29033">
        <ele>793</ele>
        <time>2021-09-06T00:13:10+02:00</time>
      </trkpt>
      <trkpt lat="44.57042" lon="5.29047">
        <ele>794</ele>
        <time>2021-09-06T00:13:15+02:00</time>
      </trkpt>
      <trkpt lat="44.57039" lon="5.29064">
        <ele>795</ele>
        <time>2021-09-06T00:13:20+02:00</time>
      </trkpt>
      <trkpt lat="44.57035" lon="5.2908">
        <ele>796</ele>
        <time>2021-09-06T00:13:25+02:00</time>
      </trkpt>
      <trkpt lat="44.57036" lon="5.29099">
        <ele>797</ele>
        <time>2021-09-06T00:13:30+02:00</time>
      </trkpt>
      <trkpt lat="44.57036" lon="5.29113">
        <ele>798</ele>
        <time>2021-09-06T00:13:35+02:00</time>
      </trkpt>
      <trkpt lat="44.57029" lon="5.29113">
        <ele>797</ele>
        <time>2021-09-06T00:13:40+02:00</time>
      </trkpt>
      <trkpt lat="44.57019" lon="5.29105">
        <ele>796</ele>
        <time>2021-09-06T00:13:45+02:00</time>
      </trkpt>
      <trkpt lat="44.5701" lon="5.29099">
        <ele>794</ele>
        <time>2021-09-06T00:13:50+02:00</time>
      </trkpt>
      <trkpt lat="44.57008" lon="5.29108">
        <ele>795</ele>
        <time>2021-09-06T00:13:55+02:00</time>
      </trkpt>
      <trkpt lat="44.57006" lon="5.29123">
        <ele>796</ele>
        <time>2021-09-06T00:14:00+02:00</time>
      </trkpt>
      <trkpt lat="44.57013" lon="5.29141">
        <ele>797</ele>
        <time>2021-09-06T00:14:05+02:00</time>
      </trkpt>
      <trkpt lat="44.57021" lon="5.29155">
        <ele>798</ele>
        <time>2021-09-06T00:14:10+02:00</time>
      </trkpt>
      <trkpt lat="44.57026" lon="5.29166">
        <ele>799</ele>
        <time>2021-09-06T00:14:15+02:00</time>
      </trkpt>
      <trkpt lat="44.57027" lon="5.2918">
        <ele>800</ele>
        <time>2021-09-06T00:14:20+02:00</time>
      </trkpt>
      <trkpt lat="44.57029" lon="5.29198">
        <ele>801</ele>
        <time>2021-09-06T00:14:25+02:00</time>
      </trkpt>
      <trkpt lat="44.5703" lon="5.29211">
        <ele>803</ele>
        <time>2021-09-06T00:14:30+02:00</time>
      </trkpt>
      <trkpt lat="44.5702" lon="5.29216">
        <ele>801</ele>
        <time>2021-09-06T00:14:35+02:00</time>
      </trkpt>
      <trkpt lat="44.57014" lon="5.29219">
        <ele>801</ele>
        <time>2021-09-06T00:14:40+02:00</time>
      </trkpt>
      <trkpt lat="44.57014" lon="5.29239">
        <ele>803</ele>
        <time>2021-09-06T00:14:45+02:00</time>
      </trkpt>
      <trkpt lat="44.57011" lon="5.29262">
        <ele>805</ele>
        <time>2021-09-06T00:14:50+02:00</time>
      </trkpt>
      <trkpt lat="44.57009" lon="5.29286">
        <ele>808</ele>
        <time>2021-09-06T00:14:55+02:00</time>
      </trkpt>
      <trkpt lat="44.57005" lon="5.29311">
        <ele>811</ele>
        <time>2021-09-06T00:15:00+02:00</time>
      </trkpt>
      <trkpt lat="44.57002" lon="5.29332">
        <ele>813</ele>
        <time>2021-09-06T00:15:05+02:00</time>
      </trkpt>
      <trkpt lat="44.57007" lon="5.29361">
        <ele>817</ele>
        <time>2021-09-06T00:15:10+02:00</time>
      </trkpt>
      <trkpt lat="44.57009" lon="5.29391">
        <ele>821</ele>
        <time>2021-09-06T00:15:15+02:00</time>
      </trkpt>
      <trkpt lat="44.57013" lon="5.29418">
        <ele>824</ele>
        <time>2021-09-06T00:15:20+02:00</time>
      </trkpt>
      <trkpt lat="44.57006" lon="5.29441">
        <ele>826</ele>
        <time>2021-09-06T00:15:25+02:00</time>
      </trkpt>
      <trkpt lat="44.57009" lon="5.29462">
        <ele>828</ele>
        <time>2021-09-06T00:15:30+02:00</time>
      </trkpt>
      <trkpt lat="44.57006" lon="5.29476">
        <ele>830</ele>
        <time>2021-09-06T00:15:35+02:00</time>
      </trkpt>
      <trkpt lat="44.56998" lon="5.29487">
        <ele>830</ele>
        <time>2021-09-06T00:15:40+02:00</time>
      </trkpt>
      <trkpt lat="44.56989" lon="5.29507">
        <ele>830</ele>
        <time>2021-09-06T00:15:45+02:00</time>
      </trkpt>
      <trkpt lat="44.56977" lon="5.29521">
        <ele>828</ele>
        <time>2021-09-06T00:15:50+02:00</time>
      </trkpt>
      <trkpt lat="44.56967" lon="5.29535">
        <ele>828</ele>
        <time>2021-09-06T00:15:55+02:00</time>
      </trkpt>
      <trkpt lat="44.56959" lon="5.29544">
        <ele>829</ele>
        <time>2021-09-06T00:16:00+02:00</time>
      </trkpt>
      <trkpt lat="44.56946" lon="5.29557">
        <ele>829</ele>
        <time>2021-09-06T00:16:05+02:00</time>
      </trkpt>
      <trkpt lat="44.56896" lon="5.29592">
        <ele>830</ele>
        <time>2021-09-06T00:16:10+02:00</time>
      </trkpt>
      <trkpt lat="44.56877" lon="5.296">
        <ele>829</ele>
        <time>2021-09-06T00:16:15+02:00</time>
      </trkpt>
      <trkpt lat="44.56875" lon="5.2961">
        <ele>831</ele>
        <time>2021-09-06T00:16:20+02:00</time>
      </trkpt>
      <trkpt lat="44.56859" lon="5.2962">
        <ele>832</ele>
        <time>2021-09-06T00:16:25+02:00</time>
      </trkpt>
      <trkpt lat="44.56836" lon="5.29633">
        <ele>833</ele>
        <time>2021-09-06T00:16:30+02:00</time>
      </trkpt>
      <trkpt lat="44.56773" lon="5.29678">
        <ele>837</ele>
        <time>2021-09-06T00:16:35+02:00</time>
      </trkpt>
      <trkpt lat="44.56752" lon="5.29693">
        <ele>840</ele>
        <time>2021-09-06T00:16:40+02:00</time>
      </trkpt>
      <trkpt lat="44.56705" lon="5.29712">
        <ele>841</ele>
        <time>2021-09-06T00:16:45+02:00</time>
      </trkpt>
      <trkpt lat="44.56697" lon="5.29719">
        <ele>842</ele>
        <time>2021-09-06T00:16:50+02:00</time>
      </trkpt>
      <trkpt lat="44.5669" lon="5.29727">
        <ele>843</ele>
        <time>2021-09-06T00:16:55+02:00</time>
      </trkpt>
      <trkpt lat="44.5668" lon="5.29732">
        <ele>842</ele>
        <time>2021-09-06T00:17:00+02:00</time>
      </trkpt>
      <trkpt lat="44.56669" lon="5.29729">
        <ele>840</ele>
        <time>2021-09-06T00:17:05+02:00</time>
      </trkpt>
      <trkpt lat="44.56659" lon="5.29728">
        <ele>839</ele>
        <time>2021-09-06T00:17:10+02:00</time>
      </trkpt>
      <trkpt lat="44.56644" lon="5.29732">
        <ele>839</ele>
        <time>2021-09-06T00:17:15+02:00</time>
      </trkpt>
      <trkpt lat="44.56615" lon="5.29743">
        <ele>841</ele>
        <time>2021-09-06T00:17:20+02:00</time>
      </trkpt>
      <trkpt lat="44.56597" lon="5.29748">
        <ele>842</ele>
        <time>2021-09-06T00:17:25+02:00</time>
      </trkpt>
      <trkpt lat="44.56586" lon="5.29752">
        <ele>842</ele>
        <time>2021-09-06T00:17:30+02:00</time>
      </trkpt>
      <trkpt lat="44.56573" lon="5.29764">
        <ele>844</ele>
        <time>2021-09-06T00:17:35+02:00</time>
      </trkpt>
      <trkpt lat="44.56566" lon="5.29773">
        <ele>845</ele>
        <time>2021-09-06T00:17:40+02:00</time>
      </trkpt>
      <trkpt lat="44.56553" lon="5.29788">
        <ele>847</ele>
        <time>2021-09-06T00:17:45+02:00</time>
      </trkpt>
      <trkpt lat="44.5654" lon="5.29806">
        <ele>849</ele>
        <time>2021-09-06T00:17:50+02:00</time>
      </trkpt>
      <trkpt lat="44.56531" lon="5.29828">
        <ele>852</ele>
        <time>2021-09-06T00:17:55+02:00</time>
      </trkpt>
      <trkpt lat="44.56519" lon="5.29841">
        <ele>853</ele>
        <time>2021-09-06T00:18:00+02:00</time>
      </trkpt>
      <trkpt lat="44.56503" lon="5.29857">
        <ele>854</ele>
        <time>2021-09-06T00:18:05+02:00</time>
      </trkpt>
      <trkpt lat="44.56489" lon="5.29868">
        <ele>854</ele>
        <time>2021-09-06T00:18:10+02:00</time>
      </trkpt>
      <trkpt lat="44.56473" lon="5.29879">
        <ele>854</ele>
        <time>2021-09-06T00:18:15+02:00</time>
      </trkpt>
      <trkpt lat="44.56463" lon="5.29885">
        <ele>855</ele>
        <time>2021-09-06T00:18:20+02:00</time>
      </trkpt>
      <trkpt lat="44.56453" lon="5.29882">
        <ele>854</ele>
        <time>2021-09-06T00:18:25+02:00</time>
      </trkpt>
      <trkpt lat="44.56444" lon="5.29883">
        <ele>854</ele>
        <time>2021-09-06T00:18:30+02:00</time>
      </trkpt>
      <trkpt lat="44.5643" lon="5.29888">
        <ele>855</ele>
        <time>2021-09-06T00:18:35+02:00</time>
      </trkpt>
      <trkpt lat="44.56419" lon="5.29891">
        <ele>856</ele>
        <time>2021-09-06T00:18:40+02:00</time>
      </trkpt>
      <trkpt lat="44.56406" lon="5.299">
        <ele>860</ele>
        <time>2021-09-06T00:18:45+02:00</time>
      </trkpt>
      <trkpt lat="44.56397" lon="5.29905">
        <ele>862</ele>
        <time>2021-09-06T00:18:50+02:00</time>
      </trkpt>
      <trkpt lat="44.56387" lon="5.29903">
        <ele>862</ele>
        <time>2021-09-06T00:18:55+02:00</time>
      </trkpt>
      <trkpt lat="44.56376" lon="5.29904">
        <ele>862</ele>
        <time>2021-09-06T00:19:00+02:00</time>
      </trkpt>
      <trkpt lat="44.56359" lon="5.29911">
        <ele>865</ele>
        <time>2021-09-06T00:19:05+02:00</time>
      </trkpt>
      <trkpt lat="44.56349" lon="5.29918">
        <ele>866</ele>
        <time>2021-09-06T00:19:10+02:00</time>
      </trkpt>
      <trkpt lat="44.56347" lon="5.29927">
        <ele>869</ele>
        <time>2021-09-06T00:19:15+02:00</time>
      </trkpt>
      <trkpt lat="44.56341" lon="5.29944">
        <ele>873</ele>
        <time>2021-09-06T00:19:20+02:00</time>
      </trkpt>
      <trkpt lat="44.56336" lon="5.29963">
        <ele>877</ele>
        <time>2021-09-06T00:19:25+02:00</time>
      </trkpt>
      <trkpt lat="44.5633" lon="5.29973">
        <ele>878</ele>
        <time>2021-09-06T00:19:30+02:00</time>
      </trkpt>
      <trkpt lat="44.56314" lon="5.29977">
        <ele>876</ele>
        <time>2021-09-06T00:19:35+02:00</time>
      </trkpt>
      <trkpt lat="44.56296" lon="5.29979">
        <ele>876</ele>
        <time>2021-09-06T00:19:40+02:00</time>
      </trkpt>
      <trkpt lat="44.56267" lon="5.2998">
        <ele>876</ele>
        <time>2021-09-06T00:19:45+02:00</time>
      </trkpt>
      <trkpt lat="44.56253" lon="5.29983">
        <ele>878</ele>
        <time>2021-09-06T00:19:50+02:00</time>
      </trkpt>
      <trkpt lat="44.56245" lon="5.29993">
        <ele>881</ele>
        <time>2021-09-06T00:19:55+02:00</time>
      </trkpt>
      <trkpt lat="44.56236" lon="5.30012">
        <ele>885</ele>
        <time>2021-09-06T00:20:00+02:00</time>
      </trkpt>
      <trkpt lat="44.56232" lon="5.3002">
        <ele>886</ele>
        <time>2021-09-06T00:20:05+02:00</time>
      </trkpt>
      <trkpt lat="44.56222" lon="5.30049">
        <ele>893</ele>
        <time>2021-09-06T00:20:10+02:00</time>
      </trkpt>
      <trkpt lat="44.56212" lon="5.30072">
        <ele>900</ele>
        <time>2021-09-06T00:20:15+02:00</time>
      </trkpt>
      <trkpt lat="44.56195" lon="5.3008">
        <ele>901</ele>
        <time>2021-09-06T00:20:20+02:00</time>
      </trkpt>
      <trkpt lat="44.56177" lon="5.30094">
        <ele>905</ele>
        <time>2021-09-06T00:20:25+02:00</time>
      </trkpt>
      <trkpt lat="44.56162" lon="5.30104">
        <ele>907</ele>
        <time>2021-09-06T00:20:30+02:00</time>
      </trkpt>
      <trkpt lat="44.56155" lon="5.30118">
        <ele>909</ele>
        <time>2021-09-06T00:20:35+02:00</time>
      </trkpt>
      <trkpt lat="44.56161" lon="5.30139">
        <ele>914</ele>
        <time>2021-09-06T00:20:40+02:00</time>
      </trkpt>
      <trkpt lat="44.56177" lon="5.30174">
        <ele>919</ele>
        <time>2021-09-06T00:20:45+02:00</time>
      </trkpt>
      <trkpt lat="44.56176" lon="5.30186">
        <ele>918</ele>
        <time>2021-09-06T00:20:50+02:00</time>
      </trkpt>
      <trkpt lat="44.56174" lon="5.30207">
        <ele>918</ele>
        <time>2021-09-06T00:20:55+02:00</time>
      </trkpt>
      <trkpt lat="44.56164" lon="5.30226">
        <ele>914</ele>
        <time>2021-09-06T00:21:00+02:00</time>
      </trkpt>
      <trkpt lat="44.56151" lon="5.3025">
        <ele>912</ele>
        <time>2021-09-06T00:21:05+02:00</time>
      </trkpt>
      <trkpt lat="44.56144" lon="5.30269">
        <ele>911</ele>
        <time>2021-09-06T00:21:10+02:00</time>
      </trkpt>
      <trkpt lat="44.56139" lon="5.30288">
        <ele>909</ele>
        <time>2021-09-06T00:21:15+02:00</time>
      </trkpt>
      <trkpt lat="44.56137" lon="5.30314">
        <ele>909</ele>
        <time>2021-09-06T00:21:20+02:00</time>
      </trkpt>
      <trkpt lat="44.56136" lon="5.30335">
        <ele>909</ele>
        <time>2021-09-06T00:21:25+02:00</time>
      </trkpt>
      <trkpt lat="44.56131" lon="5.30348">
        <ele>910</ele>
        <time>2021-09-06T00:21:30+02:00</time>
      </trkpt>
      <trkpt lat="44.5612" lon="5.30368">
        <ele>910</ele>
        <time>2021-09-06T00:21:35+02:00</time>
      </trkpt>
      <trkpt lat="44.56113" lon="5.3038">
        <ele>910</ele>
        <time>2021-09-06T00:21:40+02:00</time>
      </trkpt>
      <trkpt lat="44.56103" lon="5.3039">
        <ele>908</ele>
        <time>2021-09-06T00:21:45+02:00</time>
      </trkpt>
      <trkpt lat="44.56094" lon="5.30414">
        <ele>908</ele>
        <time>2021-09-06T00:21:50+02:00</time>
      </trkpt>
      <trkpt lat="44.56087" lon="5.30436">
        <ele>908</ele>
        <time>2021-09-06T00:21:55+02:00</time>
      </trkpt>
      <trkpt lat="44.56083" lon="5.30458">
        <ele>909</ele>
        <time>2021-09-06T00:22:00+02:00</time>
      </trkpt>
      <trkpt lat="44.56079" lon="5.30472">
        <ele>910</ele>
        <time>2021-09-06T00:22:05+02:00</time>
      </trkpt>
      <trkpt lat="44.56073" lon="5.30485">
        <ele>910</ele>
        <time>2021-09-06T00:22:10+02:00</time>
      </trkpt>
      <trkpt lat="44.56067" lon="5.30488">
        <ele>909</ele>
        <time>2021-09-06T00:22:15+02:00</time>
      </trkpt>
      <trkpt lat="44.56058" lon="5.30489">
        <ele>907</ele>
        <time>2021-09-06T00:22:20+02:00</time>
      </trkpt>
      <trkpt lat="44.56052" lon="5.30499">
        <ele>907</ele>
        <time>2021-09-06T00:22:25+02:00</time>
      </trkpt>
      <trkpt lat="44.56039" lon="5.30515">
        <ele>908</ele>
        <time>2021-09-06T00:22:30+02:00</time>
      </trkpt>
      <trkpt lat="44.56028" lon="5.30529">
        <ele>908</ele>
        <time>2021-09-06T00:22:35+02:00</time>
      </trkpt>
      <trkpt lat="44.56021" lon="5.30543">
        <ele>910</ele>
        <time>2021-09-06T00:22:40+02:00</time>
      </trkpt>
      <trkpt lat="44.56016" lon="5.30562">
        <ele>913</ele>
        <time>2021-09-06T00:22:45+02:00</time>
      </trkpt>
      <trkpt lat="44.56012" lon="5.30583">
        <ele>916</ele>
        <time>2021-09-06T00:22:50+02:00</time>
      </trkpt>
      <trkpt lat="44.56009" lon="5.30608">
        <ele>918</ele>
        <time>2021-09-06T00:22:55+02:00</time>
      </trkpt>
      <trkpt lat="44.56006" lon="5.30633">
        <ele>920</ele>
        <time>2021-09-06T00:23:00+02:00</time>
      </trkpt>
      <trkpt lat="44.56006" lon="5.30656">
        <ele>922</ele>
        <time>2021-09-06T00:23:05+02:00</time>
      </trkpt>
      <trkpt lat="44.56007" lon="5.30682">
        <ele>925</ele>
        <time>2021-09-06T00:23:10+02:00</time>
      </trkpt>
      <trkpt lat="44.56009" lon="5.30698">
        <ele>927</ele>
        <time>2021-09-06T00:23:15+02:00</time>
      </trkpt>
      <trkpt lat="44.5601" lon="5.30712">
        <ele>929</ele>
        <time>2021-09-06T00:23:20+02:00</time>
      </trkpt>
      <trkpt lat="44.56006" lon="5.30724">
        <ele>929</ele>
        <time>2021-09-06T00:23:25+02:00</time>
      </trkpt>
      <trkpt lat="44.56004" lon="5.30733">
        <ele>929</ele>
        <time>2021-09-06T00:23:30+02:00</time>
      </trkpt>
      <trkpt lat="44.56008" lon="5.30742">
        <ele>931</ele>
        <time>2021-09-06T00:23:35+02:00</time>
      </trkpt>
      <trkpt lat="44.56009" lon="5.30758">
        <ele>933</ele>
        <time>2021-09-06T00:23:40+02:00</time>
      </trkpt>
      <trkpt lat="44.56009" lon="5.3078">
        <ele>936</ele>
        <time>2021-09-06T00:23:45+02:00</time>
      </trkpt>
      <trkpt lat="44.56012" lon="5.30804">
        <ele>939</ele>
        <time>2021-09-06T00:23:50+02:00</time>
      </trkpt>
      <trkpt lat="44.56014" lon="5.30824">
        <ele>943</ele>
        <time>2021-09-06T00:23:55+02:00</time>
      </trkpt>
      <trkpt lat="44.56011" lon="5.30836">
        <ele>945</ele>
        <time>2021-09-06T00:24:00+02:00</time>
      </trkpt>
      <trkpt lat="44.56001" lon="5.30849">
        <ele>945</ele>
        <time>2021-09-06T00:24:05+02:00</time>
      </trkpt>
      <trkpt lat="44.55994" lon="5.30858">
        <ele>945</ele>
        <time>2021-09-06T00:24:10+02:00</time>
      </trkpt>
      <trkpt lat="44.55989" lon="5.30869">
        <ele>946</ele>
        <time>2021-09-06T00:24:15+02:00</time>
      </trkpt>
      <trkpt lat="44.55979" lon="5.30902">
        <ele>950</ele>
        <time>2021-09-06T00:24:20+02:00</time>
      </trkpt>
      <trkpt lat="44.55972" lon="5.30928">
        <ele>952</ele>
        <time>2021-09-06T00:24:25+02:00</time>
      </trkpt>
      <trkpt lat="44.55964" lon="5.30943">
        <ele>951</ele>
        <time>2021-09-06T00:24:30+02:00</time>
      </trkpt>
      <trkpt lat="44.55955" lon="5.30964">
        <ele>951</ele>
        <time>2021-09-06T00:24:35+02:00</time>
      </trkpt>
      <trkpt lat="44.55948" lon="5.30987">
        <ele>951</ele>
        <time>2021-09-06T00:24:40+02:00</time>
      </trkpt>
      <trkpt lat="44.55941" lon="5.31007">
        <ele>951</ele>
        <time>2021-09-06T00:24:45+02:00</time>
      </trkpt>
      <trkpt lat="44.55937" lon="5.31036">
        <ele>952</ele>
        <time>2021-09-06T00:24:50+02:00</time>
      </trkpt>
      <trkpt lat="44.55933" lon="5.31053">
        <ele>953</ele>
        <time>2021-09-06T00:24:55+02:00</time>
      </trkpt>
      <trkpt lat="44.55926" lon="5.3107">
        <ele>953</ele>
        <time>2021-09-06T00:25:00+02:00</time>
      </trkpt>
      <trkpt lat="44.55918" lon="5.31077">
        <ele>951</ele>
        <time>2021-09-06T00:25:05+02:00</time>
      </trkpt>
      <trkpt lat="44.55916" lon="5.31099">
        <ele>954</ele>
        <time>2021-09-06T00:25:10+02:00</time>
      </trkpt>
      <trkpt lat="44.55911" lon="5.31125">
        <ele>957</ele>
        <time>2021-09-06T00:25:15+02:00</time>
      </trkpt>
      <trkpt lat="44.55908" lon="5.31148">
        <ele>959</ele>
        <time>2021-09-06T00:25:20+02:00</time>
      </trkpt>
      <trkpt lat="44.55903" lon="5.3116">
        <ele>959</ele>
        <time>2021-09-06T00:25:25+02:00</time>
      </trkpt>
      <trkpt lat="44.55895" lon="5.31192">
        <ele>960</ele>
        <time>2021-09-06T00:25:30+02:00</time>
      </trkpt>
      <trkpt lat="44.55884" lon="5.31228">
        <ele>961</ele>
        <time>2021-09-06T00:25:35+02:00</time>
      </trkpt>
      <trkpt lat="44.55879" lon="5.31257">
        <ele>962</ele>
        <time>2021-09-06T00:25:40+02:00</time>
      </trkpt>
      <trkpt lat="44.5587" lon="5.31282">
        <ele>962</ele>
        <time>2021-09-06T00:25:45+02:00</time>
      </trkpt>
      <trkpt lat="44.55861" lon="5.31311">
        <ele>961</ele>
        <time>2021-09-06T00:25:50+02:00</time>
      </trkpt>
      <trkpt lat="44.55853" lon="5.31337">
        <ele>960</ele>
        <time>2021-09-06T00:25:55+02:00</time>
      </trkpt>
      <trkpt lat="44.55844" lon="5.31354">
        <ele>959</ele>
        <time>2021-09-06T00:26:00+02:00</time>
      </trkpt>
      <trkpt lat="44.55832" lon="5.31373">
        <ele>959</ele>
        <time>2021-09-06T00:26:05+02:00</time>
      </trkpt>
      <trkpt lat="44.55835" lon="5.31381">
        <ele>957</ele>
        <time>2021-09-06T00:26:10+02:00</time>
      </trkpt>
      <trkpt lat="44.55828" lon="5.31389">
        <ele>958</ele>
        <time>2021-09-06T00:26:15+02:00</time>
      </trkpt>
      <trkpt lat="44.55807" lon="5.31413">
        <ele>958</ele>
        <time>2021-09-06T00:26:20+02:00</time>
      </trkpt>
      <trkpt lat="44.5579" lon="5.31434">
        <ele>958</ele>
        <time>2021-09-06T00:26:25+02:00</time>
      </trkpt>
      <trkpt lat="44.55777" lon="5.31452">
        <ele>961</ele>
        <time>2021-09-06T00:26:30+02:00</time>
      </trkpt>
      <trkpt lat="44.55764" lon="5.31475">
        <ele>963</ele>
        <time>2021-09-06T00:26:35+02:00</time>
      </trkpt>
      <trkpt lat="44.55755" lon="5.31495">
        <ele>964</ele>
        <time>2021-09-06T00:26:40+02:00</time>
      </trkpt>
      <trkpt lat="44.55745" lon="5.3152">
        <ele>963</ele>
        <time>2021-09-06T00:26:45+02:00</time>
      </trkpt>
      <trkpt lat="44.55735" lon="5.31543">
        <ele>964</ele>
        <time>2021-09-06T00:26:50+02:00</time>
      </trkpt>
      <trkpt lat="44.55726" lon="5.31568">
        <ele>967</ele>
        <time>2021-09-06T00:26:55+02:00</time>
      </trkpt>
      <trkpt lat="44.55716" lon="5.31588">
        <ele>968</ele>
        <time>2021-09-06T00:27:00+02:00</time>
      </trkpt>
      <trkpt lat="44.55705" lon="5.316">
        <ele>970</ele>
        <time>2021-09-06T00:27:05+02:00</time>
      </trkpt>
      <trkpt lat="44.55691" lon="5.3161">
        <ele>974</ele>
        <time>2021-09-06T00:27:10+02:00</time>
      </trkpt>
      <trkpt lat="44.55676" lon="5.3162">
        <ele>976</ele>
        <time>2021-09-06T00:27:15+02:00</time>
      </trkpt>
      <trkpt lat="44.5566" lon="5.31632">
        <ele>978</ele>
        <time>2021-09-06T00:27:20+02:00</time>
      </trkpt>
      <trkpt lat="44.55643" lon="5.31648">
        <ele>977</ele>
        <time>2021-09-06T00:27:25+02:00</time>
      </trkpt>
      <trkpt lat="44.55626" lon="5.31663">
        <ele>978</ele>
        <time>2021-09-06T00:27:30+02:00</time>
      </trkpt>
      <trkpt lat="44.556" lon="5.31684">
        <ele>978</ele>
        <time>2021-09-06T00:27:35+02:00</time>
      </trkpt>
      <trkpt lat="44.55577" lon="5.31701">
        <ele>981</ele>
        <time>2021-09-06T00:27:40+02:00</time>
      </trkpt>
      <trkpt lat="44.55557" lon="5.31716">
        <ele>987</ele>
        <time>2021-09-06T00:27:45+02:00</time>
      </trkpt>
      <trkpt lat="44.5554" lon="5.31725">
        <ele>989</ele>
        <time>2021-09-06T00:27:50+02:00</time>
      </trkpt>
      <trkpt lat="44.55524" lon="5.31725">
        <ele>989</ele>
        <time>2021-09-06T00:27:55+02:00</time>
      </trkpt>
      <trkpt lat="44.55507" lon="5.31725">
        <ele>987</ele>
        <time>2021-09-06T00:28:00+02:00</time>
      </trkpt>
      <trkpt lat="44.55486" lon="5.31727">
        <ele>983</ele>
        <time>2021-09-06T00:28:05+02:00</time>
      </trkpt>
      <trkpt lat="44.55475" lon="5.31724">
        <ele>981</ele>
        <time>2021-09-06T00:28:10+02:00</time>
      </trkpt>
      <trkpt lat="44.55461" lon="5.31718">
        <ele>977</ele>
        <time>2021-09-06T00:28:15+02:00</time>
      </trkpt>
      <trkpt lat="44.55458" lon="5.31718">
        <ele>977</ele>
        <time>2021-09-06T00:28:20+02:00</time>
      </trkpt>
      <trkpt lat="44.5545" lon="5.31723">
        <ele>976</ele>
        <time>2021-09-06T00:28:25+02:00</time>
      </trkpt>
      <trkpt lat="44.55431" lon="5.31738">
        <ele>973</ele>
        <time>2021-09-06T00:28:30+02:00</time>
      </trkpt>
      <trkpt lat="44.55415" lon="5.31745">
        <ele>971</ele>
        <time>2021-09-06T00:28:35+02:00</time>
      </trkpt>
      <trkpt lat="44.55399" lon="5.31752">
        <ele>968</ele>
        <time>2021-09-06T00:28:40+02:00</time>
      </trkpt>
      <trkpt lat="44.55392" lon="5.31751">
        <ele>967</ele>
        <time>2021-09-06T00:28:45+02:00</time>
      </trkpt>
      <trkpt lat="44.55383" lon="5.3175">
        <ele>966</ele>
        <time>2021-09-06T00:28:50+02:00</time>
      </trkpt>
      <trkpt lat="44.55374" lon="5.31753">
        <ele>964</ele>
        <time>2021-09-06T00:28:55+02:00</time>
      </trkpt>
      <trkpt lat="44.5536" lon="5.31753">
        <ele>962</ele>
        <time>2021-09-06T00:29:00+02:00</time>
      </trkpt>
      <trkpt lat="44.55339" lon="5.3175">
        <ele>959</ele>
        <time>2021-09-06T00:29:05+02:00</time>
      </trkpt>
      <trkpt lat="44.55321" lon="5.31747">
        <ele>956</ele>
        <time>2021-09-06T00:29:10+02:00</time>
      </trkpt>
      <trkpt lat="44.55309" lon="5.31747">
        <ele>955</ele>
        <time>2021-09-06T00:29:15+02:00</time>
      </trkpt>
      <trkpt lat="44.553" lon="5.31743">
        <ele>954</ele>
        <time>2021-09-06T00:29:20+02:00</time>
      </trkpt>
      <trkpt lat="44.55289" lon="5.31746">
        <ele>953</ele>
        <time>2021-09-06T00:29:25+02:00</time>
      </trkpt>
      <trkpt lat="44.55278" lon="5.31744">
        <ele>953</ele>
        <time>2021-09-06T00:29:30+02:00</time>
      </trkpt>
      <trkpt lat="44.55267" lon="5.31743">
        <ele>952</ele>
        <time>2021-09-06T00:29:35+02:00</time>
      </trkpt>
      <trkpt lat="44.55242" lon="5.31716">
        <ele>950</ele>
        <time>2021-09-06T00:29:40+02:00</time>
      </trkpt>
      <trkpt lat="44.55212" lon="5.31686">
        <ele>947</ele>
        <time>2021-09-06T00:29:45+02:00</time>
      </trkpt>
      <trkpt lat="44.55195" lon="5.31664">
        <ele>942</ele>
        <time>2021-09-06T00:29:50+02:00</time>
      </trkpt>
      <trkpt lat="44.55174" lon="5.31646">
        <ele>939</ele>
        <time>2021-09-06T00:29:55+02:00</time>
      </trkpt>
      <trkpt lat="44.55147" lon="5.31627">
        <ele>937</ele>
        <time>2021-09-06T00:30:00+02:00</time>
      </trkpt>
      <trkpt lat="44.55109" lon="5.31605">
        <ele>938</ele>
        <time>2021-09-06T00:30:05+02:00</time>
      </trkpt>
      <trkpt lat="44.55085" lon="5.31591">
        <ele>936</ele>
        <time>2021-09-06T00:30:10+02:00</time>
      </trkpt>
      <trkpt lat="44.55055" lon="5.31578">
        <ele>931</ele>
        <time>2021-09-06T00:30:15+02:00</time>
      </trkpt>
      <trkpt lat="44.55035" lon="5.31563">
        <ele>929</ele>
        <time>2021-09-06T00:30:20+02:00</time>
      </trkpt>
      <trkpt lat="44.55008" lon="5.31554">
        <ele>925</ele>
        <time>2021-09-06T00:30:25+02:00</time>
      </trkpt>
      <trkpt lat="44.54981" lon="5.31551">
        <ele>921</ele>
        <time>2021-09-06T00:30:30+02:00</time>
      </trkpt>
      <trkpt lat="44.54965" lon="5.31544">
        <ele>918</ele>
        <time>2021-09-06T00:30:35+02:00</time>
      </trkpt>
      <trkpt lat="44.54947" lon="5.31539">
        <ele>916</ele>
        <time>2021-09-06T00:30:40+02:00</time>
      </trkpt>
      <trkpt lat="44.54919" lon="5.31523">
        <ele>914</ele>
        <time>2021-09-06T00:30:45+02:00</time>
      </trkpt>
      <trkpt lat="44.54913" lon="5.31524">
        <ele>913</ele>
        <time>2021-09-06T00:30:50+02:00</time>
      </trkpt>
      <trkpt lat="44.54904" lon="5.31525">
        <ele>912</ele>
        <time>2021-09-06T00:30:55+02:00</time>
      </trkpt>
      <trkpt lat="44.54883" lon="5.3151">
        <ele>909</ele>
        <time>2021-09-06T00:31:00+02:00</time>
      </trkpt>
      <trkpt lat="44.54866" lon="5.315">
        <ele>906</ele>
        <time>2021-09-06T00:31:05+02:00</time>
      </trkpt>
      <trkpt lat="44.54849" lon="5.315">
        <ele>904</ele>
        <time>2021-09-06T00:31:10+02:00</time>
      </trkpt>
      <trkpt lat="44.54819" lon="5.31496">
        <ele>898</ele>
        <time>2021-09-06T00:31:15+02:00</time>
      </trkpt>
      <trkpt lat="44.54805" lon="5.31502">
        <ele>896</ele>
        <time>2021-09-06T00:31:20+02:00</time>
      </trkpt>
      <trkpt lat="44.54786" lon="5.31508">
        <ele>892</ele>
        <time>2021-09-06T00:31:25+02:00</time>
      </trkpt>
      <trkpt lat="44.54765" lon="5.31501">
        <ele>889</ele>
        <time>2021-09-06T00:31:30+02:00</time>
      </trkpt>
      <trkpt lat="44.54742" lon="5.315">
        <ele>887</ele>
        <time>2021-09-06T00:31:35+02:00</time>
      </trkpt>
      <trkpt lat="44.5473" lon="5.31501">
        <ele>885</ele>
        <time>2021-09-06T00:31:40+02:00</time>
      </trkpt>
      <trkpt lat="44.54715" lon="5.31503">
        <ele>883</ele>
        <time>2021-09-06T00:31:45+02:00</time>
      </trkpt>
      <trkpt lat="44.54694" lon="5.31507">
        <ele>881</ele>
        <time>2021-09-06T00:31:50+02:00</time>
      </trkpt>
      <trkpt lat="44.54676" lon="5.31506">
        <ele>880</ele>
        <time>2021-09-06T00:31:55+02:00</time>
      </trkpt>
      <trkpt lat="44.54658" lon="5.31507">
        <ele>881</ele>
        <time>2021-09-06T00:32:00+02:00</time>
      </trkpt>
      <trkpt lat="44.54649" lon="5.31511">
        <ele>881</ele>
        <time>2021-09-06T00:32:05+02:00</time>
      </trkpt>
      <trkpt lat="44.5462" lon="5.31555">
        <ele>879</ele>
        <time>2021-09-06T00:32:10+02:00</time>
      </trkpt>
      <trkpt lat="44.5455" lon="5.31586">
        <ele>876</ele>
        <time>2021-09-06T00:32:15+02:00</time>
      </trkpt>
      <trkpt lat="44.5446" lon="5.31658">
        <ele>864</ele>
        <time>2021-09-06T00:32:20+02:00</time>
      </trkpt>
      <trkpt lat="44.54422" lon="5.31724">
        <ele>852</ele>
        <time>2021-09-06T00:32:25+02:00</time>
      </trkpt>
      <trkpt lat="44.54551" lon="5.31704">
        <ele>826</ele>
        <time>2021-09-06T00:32:30+02:00</time>
      </trkpt>
      <trkpt lat="44.54436" lon="5.31847">
        <ele>813</ele>
        <time>2021-09-06T00:32:35+02:00</time>
      </trkpt>
      <trkpt lat="44.5451" lon="5.3182">
        <ele>801</ele>
        <time>2021-09-06T00:32:40+02:00</time>
      </trkpt>
      <trkpt lat="44.54489" lon="5.31958">
        <ele>786</ele>
        <time>2021-09-06T00:32:45+02:00</time>
      </trkpt>
      <trkpt lat="44.54488" lon="5.32023">
        <ele>772</ele>
        <time>2021-09-06T00:32:50+02:00</time>
      </trkpt>
      <trkpt lat="44.54447" lon="5.32092">
        <ele>769</ele>
        <time>2021-09-06T00:32:55+02:00</time>
      </trkpt>
      <trkpt lat="44.54463" lon="5.32141">
        <ele>770</ele>
        <time>2021-09-06T00:33:00+02:00</time>
      </trkpt>
      <trkpt lat="44.54495" lon="5.32244">
        <ele>787</ele>
        <time>2021-09-06T00:33:05+02:00</time>
      </trkpt>
      <trkpt lat="44.54435" lon="5.3222">
        <ele>780</ele>
        <time>2021-09-06T00:33:10+02:00</time>
      </trkpt>
      <trkpt lat="44.5438" lon="5.32261">
        <ele>784</ele>
        <time>2021-09-06T00:33:15+02:00</time>
      </trkpt>
      <trkpt lat="44.54349" lon="5.3247">
        <ele>792</ele>
        <time>2021-09-06T00:33:20+02:00</time>
      </trkpt>
      <trkpt lat="44.54326" lon="5.3261">
        <ele>796</ele>
        <time>2021-09-06T00:33:25+02:00</time>
      </trkpt>
      <trkpt lat="44.54288" lon="5.32726">
        <ele>793</ele>
        <time>2021-09-06T00:33:30+02:00</time>
      </trkpt>
      <trkpt lat="44.54279" lon="5.32874">
        <ele>795</ele>
        <time>2021-09-06T00:33:35+02:00</time>
      </trkpt>
      <trkpt lat="44.54265" lon="5.33067">
        <ele>792</ele>
        <time>2021-09-06T00:33:40+02:00</time>
      </trkpt>
      <trkpt lat="44.54278" lon="5.33146">
        <ele>793</ele>
        <time>2021-09-06T00:33:45+02:00</time>
      </trkpt>
      <trkpt lat="44.54282" lon="5.3329">
        <ele>791</ele>
        <time>2021-09-06T00:33:50+02:00</time>
      </trkpt>
      <trkpt lat="44.54363" lon="5.33345">
        <ele>806</ele>
        <time>2021-09-06T00:33:55+02:00</time>
      </trkpt>
      <trkpt lat="44.54352" lon="5.33478">
        <ele>801</ele>
        <time>2021-09-06T00:34:00+02:00</time>
      </trkpt>
      <trkpt lat="44.54333" lon="5.33559">
        <ele>801</ele>
        <time>2021-09-06T00:34:05+02:00</time>
      </trkpt>
      <trkpt lat="44.54329" lon="5.33641">
        <ele>802</ele>
        <time>2021-09-06T00:34:10+02:00</time>
      </trkpt>
      <trkpt lat="44.54384" lon="5.33769">
        <ele>810</ele>
        <time>2021-09-06T00:34:15+02:00</time>
      </trkpt>
      <trkpt lat="44.54531" lon="5.34073">
        <ele>820</ele>
        <time>2021-09-06T00:34:20+02:00</time>
      </trkpt>
      <trkpt lat="44.54552" lon="5.34132">
        <ele>820</ele>
        <time>2021-09-06T00:34:25+02:00</time>
      </trkpt>
      <trkpt lat="44.54598" lon="5.34178">
        <ele>823</ele>
        <time>2021-09-06T00:34:30+02:00</time>
      </trkpt>
      <trkpt lat="44.54779" lon="5.34489">
        <ele>830</ele>
        <time>2021-09-06T00:34:35+02:00</time>
      </trkpt>
      <trkpt lat="44.54855" lon="5.34561">
        <ele>834</ele>
        <time>2021-09-06T00:34:40+02:00</time>
      </trkpt>
      <trkpt lat="44.54876" lon="5.34637">
        <ele>833</ele>
        <time>2021-09-06T00:34:45+02:00</time>
      </trkpt>
      <trkpt lat="44.54952" lon="5.34768">
        <ele>834</ele>
        <time>2021-09-06T00:34:50+02:00</time>
      </trkpt>
      <trkpt lat="44.55021" lon="5.34799">
        <ele>839</ele>
        <time>2021-09-06T00:34:55+02:00</time>
      </trkpt>
      <trkpt lat="44.55074" lon="5.34854">
        <ele>842</ele>
        <time>2021-09-06T00:35:00+02:00</time>
      </trkpt>
      <trkpt lat="44.55184" lon="5.34971">
        <ele>843</ele>
        <time>2021-09-06T00:35:05+02:00</time>
      </trkpt>
      <trkpt lat="44.55251" lon="5.34997">
        <ele>846</ele>
        <time>2021-09-06T00:35:10+02:00</time>
      </trkpt>
      <trkpt lat="44.55385" lon="5.35027">
        <ele>853</ele>
        <time>2021-09-06T00:35:15+02:00</time>
      </trkpt>
      <trkpt lat="44.55632" lon="5.34864">
        <ele>885</ele>
        <time>2021-09-06T00:35:20+02:00</time>
      </trkpt>
      <trkpt lat="44.59602" lon="5.31782">
        <ele>713</ele>
        <time>2021-09-06T00:35:25+02:00</time>
      </trkpt>
      <trkpt lat="44.59602" lon="5.31782">
        <ele>713</ele>
        <time>2021-09-06T00:35:30+02:00</time>
      </trkpt>
      <trkpt lat="44.59598" lon="5.31758">
        <ele>712</ele>
        <time>2021-09-06T00:35:35+02:00</time>
      </trkpt>
      <trkpt lat="44.59593" lon="5.31721">
        <ele>710</ele>
        <time>2021-09-06T00:35:40+02:00</time>
      </trkpt>
      <trkpt lat="44.5958" lon="5.31722">
        <ele>711</ele>
        <time>2021-09-06T00:35:45+02:00</time>
      </trkpt>
      <trkpt lat="44.59556" lon="5.31724">
        <ele>711</ele>
        <time>2021-09-06T00:35:50+02:00</time>
      </trkpt>
      <trkpt lat="44.59536" lon="5.31723">
        <ele>711</ele>
        <time>2021-09-06T00:35:55+02:00</time>
      </trkpt>
      <trkpt lat="44.59519" lon="5.31722">
        <ele>710</ele>
        <time>2021-09-06T00:36:00+02:00</time>
      </trkpt>
      <trkpt lat="44.59502" lon="5.31722">
        <ele>708</ele>
        <time>2021-09-06T00:36:05+02:00</time>
      </trkpt>
      <trkpt lat="44.5949" lon="5.31727">
        <ele>708</ele>
        <time>2021-09-06T00:36:10+02:00</time>
      </trkpt>
      <trkpt lat="44.59479" lon="5.31734">
        <ele>709</ele>
        <time>2021-09-06T00:36:15+02:00</time>
      </trkpt>
      <trkpt lat="44.59469" lon="5.31744">
        <ele>710</ele>
        <time>2021-09-06T00:36:20+02:00</time>
      </trkpt>
      <trkpt lat="44.59459" lon="5.31757">
        <ele>712</ele>
        <time>2021-09-06T00:36:25+02:00</time>
      </trkpt>
      <trkpt lat="44.59451" lon="5.3178">
        <ele>715</ele>
        <time>2021-09-06T00:36:30+02:00</time>
      </trkpt>
      <trkpt lat="44.5944" lon="5.318">
        <ele>717</ele>
        <time>2021-09-06T00:36:35+02:00</time>
      </trkpt>
      <trkpt lat="44.59418" lon="5.3183">
        <ele>718</ele>
        <time>2021-09-06T00:36:40+02:00</time>
      </trkpt>
      <trkpt lat="44.59395" lon="5.31847">
        <ele>717</ele>
        <time>2021-09-06T00:36:45+02:00</time>
      </trkpt>
      <trkpt lat="44.59378" lon="5.31861">
        <ele>717</ele>
        <time>2021-09-06T00:36:50+02:00</time>
      </trkpt>
      <trkpt lat="44.59367" lon="5.3187">
        <ele>717</ele>
        <time>2021-09-06T00:36:55+02:00</time>
      </trkpt>
      <trkpt lat="44.59353" lon="5.31877">
        <ele>715</ele>
        <time>2021-09-06T00:37:00+02:00</time>
      </trkpt>
      <trkpt lat="44.5934" lon="5.3189">
        <ele>715</ele>
        <time>2021-09-06T00:37:05+02:00</time>
      </trkpt>
      <trkpt lat="44.59332" lon="5.31901">
        <ele>717</ele>
        <time>2021-09-06T00:37:10+02:00</time>
      </trkpt>
      <trkpt lat="44.59326" lon="5.31912">
        <ele>719</ele>
        <time>2021-09-06T00:37:15+02:00</time>
      </trkpt>
      <trkpt lat="44.5932" lon="5.31908">
        <ele>718</ele>
        <time>2021-09-06T00:37:20+02:00</time>
      </trkpt>
      <trkpt lat="44.59314" lon="5.31902">
        <ele>717</ele>
        <time>2021-09-06T00:37:25+02:00</time>
      </trkpt>
      <trkpt lat="44.59312" lon="5.31893">
        <ele>715</ele>
        <time>2021-09-06T00:37:30+02:00</time>
      </trkpt>
      <trkpt lat="44.59312" lon="5.31871">
        <ele>714</ele>
        <time>2021-09-06T00:37:35+02:00</time>
      </trkpt>
      <trkpt lat="44.59314" lon="5.31838">
        <ele>714</ele>
        <time>2021-09-06T00:37:40+02:00</time>
      </trkpt>
      <trkpt lat="44.59317" lon="5.31819">
        <ele>713</ele>
        <time>2021-09-06T00:37:45+02:00</time>
      </trkpt>
      <trkpt lat="44.59324" lon="5.31792">
        <ele>712</ele>
        <time>2021-09-06T00:37:50+02:00</time>
      </trkpt>
      <trkpt lat="44.5933" lon="5.31772">
        <ele>711</ele>
        <time>2021-09-06T00:37:55+02:00</time>
      </trkpt>
      <trkpt lat="44.59334" lon="5.31753">
        <ele>712</ele>
        <time>2021-09-06T00:38:00+02:00</time>
      </trkpt>
      <trkpt lat="44.5934" lon="5.31735">
        <ele>710</ele>
        <time>2021-09-06T00:38:05+02:00</time>
      </trkpt>
      <trkpt lat="44.59341" lon="5.31717">
        <ele>710</ele>
        <time>2021-09-06T00:38:10+02:00</time>
      </trkpt>
      <trkpt lat="44.59339" lon="5.31702">
        <ele>712</ele>
        <time>2021-09-06T00:38:15+02:00</time>
      </trkpt>
      <trkpt lat="44.59336" lon="5.31685">
        <ele>713</ele>
        <time>2021-09-06T00:38:20+02:00</time>
      </trkpt>
      <trkpt lat="44.59326" lon="5.31661">
        <ele>715</ele>
        <time>2021-09-06T00:38:25+02:00</time>
      </trkpt>
      <trkpt lat="44.59318" lon="5.31648">
        <ele>716</ele>
        <time>2021-09-06T00:38:30+02:00</time>
      </trkpt>
      <trkpt lat="44.59312" lon="5.31639">
        <ele>717</ele>
        <time>2021-09-06T00:38:35+02:00</time>
      </trkpt>
      <trkpt lat="44.593" lon="5.31628">
        <ele>720</ele>
        <time>2021-09-06T00:38:40+02:00</time>
      </trkpt>
      <trkpt lat="44.5929" lon="5.3162">
        <ele>721</ele>
        <time>2021-09-06T00:38:45+02:00</time>
      </trkpt>
      <trkpt lat="44.5928" lon="5.31611">
        <ele>721</ele>
        <time>2021-09-06T00:38:50+02:00</time>
      </trkpt>
      <trkpt lat="44.59265" lon="5.31603">
        <ele>721</ele>
        <time>2021-09-06T00:38:55+02:00</time>
      </trkpt>
      <trkpt lat="44.59248" lon="5.31592">
        <ele>720</ele>
        <time>2021-09-06T00:39:00+02:00</time>
      </trkpt>
      <trkpt lat="44.59239" lon="5.31588">
        <ele>720</ele>
        <time>2021-09-06T00:39:05+02:00</time>
      </trkpt>
      <trkpt lat="44.59234" lon="5.31599">
        <ele>722</ele>
        <time>2021-09-06T00:39:10+02:00</time>
      </trkpt>
      <trkpt lat="44.59229" lon="5.31611">
        <ele>724</ele>
        <time>2021-09-06T00:39:15+02:00</time>
      </trkpt>
      <trkpt lat="44.59222" lon="5.3162">
        <ele>725</ele>
        <time>2021-09-06T00:39:20+02:00</time>
      </trkpt>
      <trkpt lat="44.59216" lon="5.31627">
        <ele>726</ele>
        <time>2021-09-06T00:39:25+02:00</time>
      </trkpt>
      <trkpt lat="44.59203" lon="5.31625">
        <ele>726</ele>
        <time>2021-09-06T00:39:30+02:00</time>
      </trkpt>
      <trkpt lat="44.59186" lon="5.31613">
        <ele>728</ele>
        <time>2021-09-06T00:39:35+02:00</time>
      </trkpt>
      <trkpt lat="44.59176" lon="5.31609">
        <ele>729</ele>
        <time>2021-09-06T00:39:40+02:00</time>
      </trkpt>
      <trkpt lat="44.59163" lon="5.31604">
        <ele>730</ele>
        <time>2021-09-06T00:39:45+02:00</time>
      </trkpt>
      <trkpt lat="44.5915" lon="5.31598">
        <ele>731</ele>
        <time>2021-09-06T00:39:50+02:00</time>
      </trkpt>
      <trkpt lat="44.59135" lon="5.31594">
        <ele>732</ele>
        <time>2021-09-06T00:39:55+02:00</time>
      </trkpt>
      <trkpt lat="44.59121" lon="5.31588">
        <ele>733</ele>
        <time>2021-09-06T00:40:00+02:00</time>
      </trkpt>
      <trkpt lat="44.59108" lon="5.31579">
        <ele>733</ele>
        <time>2021-09-06T00:40:05+02:00</time>
      </trkpt>
      <trkpt lat="44.59099" lon="5.31572">
        <ele>734</ele>
        <time>2021-09-06T00:40:10+02:00</time>
      </trkpt>
      <trkpt lat="44.59087" lon="5.3156">
        <ele>735</ele>
        <time>2021-09-06T00:40:15+02:00</time>
      </trkpt>
      <trkpt lat="44.5908" lon="5.31546">
        <ele>735</ele>
        <time>2021-09-06T00:40:20+02:00</time>
      </trkpt>
      <trkpt lat="44.59075" lon="5.31534">
        <ele>735</ele>
        <time>2021-09-06T00:40:25+02:00</time>
      </trkpt>
      <trkpt lat="44.5907" lon="5.31521">
        <ele>734</ele>
        <time>2021-09-06T00:40:30+02:00</time>
      </trkpt>
      <trkpt lat="44.59064" lon="5.31516">
        <ele>735</ele>
        <time>2021-09-06T00:40:35+02:00</time>
      </trkpt>
      <trkpt lat="44.59059" lon="5.31521">
        <ele>738</ele>
        <time>2021-09-06T00:40:40+02:00</time>
      </trkpt>
      <trkpt lat="44.59059" lon="5.31531">
        <ele>739</ele>
        <time>2021-09-06T00:40:45+02:00</time>
      </trkpt>
      <trkpt lat="44.59065" lon="5.31539">
        <ele>738</ele>
        <time>2021-09-06T00:40:50+02:00</time>
      </trkpt>
      <trkpt lat="44.59066" lon="5.31548">
        <ele>739</ele>
        <time>2021-09-06T00:40:55+02:00</time>
      </trkpt>
      <trkpt lat="44.59067" lon="5.31561">
        <ele>740</ele>
        <time>2021-09-06T00:41:00+02:00</time>
      </trkpt>
      <trkpt lat="44.59068" lon="5.31583">
        <ele>742</ele>
        <time>2021-09-06T00:41:05+02:00</time>
      </trkpt>
      <trkpt lat="44.59068" lon="5.31602">
        <ele>744</ele>
        <time>2021-09-06T00:41:10+02:00</time>
      </trkpt>
      <trkpt lat="44.5907" lon="5.31614">
        <ele>745</ele>
        <time>2021-09-06T00:41:15+02:00</time>
      </trkpt>
      <trkpt lat="44.59074" lon="5.31634">
        <ele>746</ele>
        <time>2021-09-06T00:41:20+02:00</time>
      </trkpt>
      <trkpt lat="44.59079" lon="5.31653">
        <ele>748</ele>
        <time>2021-09-06T00:41:25+02:00</time>
      </trkpt>
      <trkpt lat="44.5908" lon="5.3167">
        <ele>750</ele>
        <time>2021-09-06T00:41:30+02:00</time>
      </trkpt>
      <trkpt lat="44.59083" lon="5.31688">
        <ele>754</ele>
        <time>2021-09-06T00:41:35+02:00</time>
      </trkpt>
      <trkpt lat="44.59088" lon="5.31698">
        <ele>755</ele>
        <time>2021-09-06T00:41:40+02:00</time>
      </trkpt>
      <trkpt lat="44.59095" lon="5.31712">
        <ele>756</ele>
        <time>2021-09-06T00:41:45+02:00</time>
      </trkpt>
      <trkpt lat="44.59107" lon="5.31726">
        <ele>756</ele>
        <time>2021-09-06T00:41:50+02:00</time>
      </trkpt>
      <trkpt lat="44.59113" lon="5.31734">
        <ele>755</ele>
        <time>2021-09-06T00:41:55+02:00</time>
      </trkpt>
      <trkpt lat="44.59118" lon="5.31744">
        <ele>755</ele>
        <time>2021-09-06T00:42:00+02:00</time>
      </trkpt>
      <trkpt lat="44.59122" lon="5.31759">
        <ele>756</ele>
        <time>2021-09-06T00:42:05+02:00</time>
      </trkpt>
      <trkpt lat="44.59127" lon="5.3178">
        <ele>759</ele>
        <time>2021-09-06T00:42:10+02:00</time>
      </trkpt>
      <trkpt lat="44.59134" lon="5.31801">
        <ele>761</ele>
        <time>2021-09-06T00:42:15+02:00</time>
      </trkpt>
      <trkpt lat="44.59144" lon="5.3182">
        <ele>762</ele>
        <time>2021-09-06T00:42:20+02:00</time>
      </trkpt>
      <trkpt lat="44.5915" lon="5.31836">
        <ele>763</ele>
        <time>2021-09-06T00:42:25+02:00</time>
      </trkpt>
      <trkpt lat="44.59157" lon="5.31852">
        <ele>763</ele>
        <time>2021-09-06T00:42:30+02:00</time>
      </trkpt>
      <trkpt lat="44.59159" lon="5.31863">
        <ele>764</ele>
        <time>2021-09-06T00:42:35+02:00</time>
      </trkpt>
      <trkpt lat="44.59159" lon="5.31877">
        <ele>766</ele>
        <time>2021-09-06T00:42:40+02:00</time>
      </trkpt>
      <trkpt lat="44.59158" lon="5.31891">
        <ele>768</ele>
        <time>2021-09-06T00:42:45+02:00</time>
      </trkpt>
      <trkpt lat="44.59152" lon="5.31915">
        <ele>774</ele>
        <time>2021-09-06T00:42:50+02:00</time>
      </trkpt>
      <trkpt lat="44.59151" lon="5.31929">
        <ele>775</ele>
        <time>2021-09-06T00:42:55+02:00</time>
      </trkpt>
      <trkpt lat="44.59156" lon="5.31955">
        <ele>776</ele>
        <time>2021-09-06T00:43:00+02:00</time>
      </trkpt>
      <trkpt lat="44.59161" lon="5.31974">
        <ele>777</ele>
        <time>2021-09-06T00:43:05+02:00</time>
      </trkpt>
      <trkpt lat="44.59166" lon="5.31992">
        <ele>778</ele>
        <time>2021-09-06T00:43:10+02:00</time>
      </trkpt>
      <trkpt lat="44.59165" lon="5.32007">
        <ele>780</ele>
        <time>2021-09-06T00:43:15+02:00</time>
      </trkpt>
      <trkpt lat="44.59162" lon="5.32016">
        <ele>781</ele>
        <time>2021-09-06T00:43:20+02:00</time>
      </trkpt>
      <trkpt lat="44.59157" lon="5.32029">
        <ele>784</ele>
        <time>2021-09-06T00:43:25+02:00</time>
      </trkpt>
      <trkpt lat="44.59149" lon="5.32047">
        <ele>786</ele>
        <time>2021-09-06T00:43:30+02:00</time>
      </trkpt>
      <trkpt lat="44.59142" lon="5.3206">
        <ele>789</ele>
        <time>2021-09-06T00:43:35+02:00</time>
      </trkpt>
      <trkpt lat="44.59135" lon="5.32075">
        <ele>791</ele>
        <time>2021-09-06T00:43:40+02:00</time>
      </trkpt>
      <trkpt lat="44.59129" lon="5.32088">
        <ele>792</ele>
        <time>2021-09-06T00:43:45+02:00</time>
      </trkpt>
      <trkpt lat="44.59125" lon="5.32108">
        <ele>792</ele>
        <time>2021-09-06T00:43:50+02:00</time>
      </trkpt>
      <trkpt lat="44.5912" lon="5.32132">
        <ele>793</ele>
        <time>2021-09-06T00:43:55+02:00</time>
      </trkpt>
      <trkpt lat="44.59111" lon="5.32143">
        <ele>795</ele>
        <time>2021-09-06T00:44:00+02:00</time>
      </trkpt>
      <trkpt lat="44.59106" lon="5.32157">
        <ele>796</ele>
        <time>2021-09-06T00:44:05+02:00</time>
      </trkpt>
      <trkpt lat="44.59099" lon="5.32172">
        <ele>798</ele>
        <time>2021-09-06T00:44:10+02:00</time>
      </trkpt>
      <trkpt lat="44.59088" lon="5.32186">
        <ele>800</ele>
        <time>2021-09-06T00:44:15+02:00</time>
      </trkpt>
      <trkpt lat="44.59077" lon="5.32195">
        <ele>803</ele>
        <time>2021-09-06T00:44:20+02:00</time>
      </trkpt>
      <trkpt lat="44.59073" lon="5.32202">
        <ele>803</ele>
        <time>2021-09-06T00:44:25+02:00</time>
      </trkpt>
      <trkpt lat="44.59069" lon="5.32215">
        <ele>803</ele>
        <time>2021-09-06T00:44:30+02:00</time>
      </trkpt>
      <trkpt lat="44.59064" lon="5.32242">
        <ele>804</ele>
        <time>2021-09-06T00:44:35+02:00</time>
      </trkpt>
      <trkpt lat="44.59061" lon="5.32268">
        <ele>805</ele>
        <time>2021-09-06T00:44:40+02:00</time>
      </trkpt>
      <trkpt lat="44.59056" lon="5.32291">
        <ele>807</ele>
        <time>2021-09-06T00:44:45+02:00</time>
      </trkpt>
      <trkpt lat="44.59048" lon="5.3231">
        <ele>810</ele>
        <time>2021-09-06T00:44:50+02:00</time>
      </trkpt>
      <trkpt lat="44.5904" lon="5.32325">
        <ele>813</ele>
        <time>2021-09-06T00:44:55+02:00</time>
      </trkpt>
      <trkpt lat="44.59036" lon="5.32341">
        <ele>814</ele>
        <time>2021-09-06T00:45:00+02:00</time>
      </trkpt>
      <trkpt lat="44.59035" lon="5.32356">
        <ele>814</ele>
        <time>2021-09-06T00:45:05+02:00</time>
      </trkpt>
      <trkpt lat="44.5903" lon="5.32373">
        <ele>816</ele>
        <time>2021-09-06T00:45:10+02:00</time>
      </trkpt>
      <trkpt lat="44.59021" lon="5.32385">
        <ele>820</ele>
        <time>2021-09-06T00:45:15+02:00</time>
      </trkpt>
      <trkpt lat="44.59011" lon="5.32397">
        <ele>824</ele>
        <time>2021-09-06T00:45:20+02:00</time>
      </trkpt>
      <trkpt lat="44.59004" lon="5.32411">
        <ele>826</ele>
        <time>2021-09-06T00:45:25+02:00</time>
      </trkpt>
      <trkpt lat="44.58997" lon="5.32428">
        <ele>829</ele>
        <time>2021-09-06T00:45:30+02:00</time>
      </trkpt>
      <trkpt lat="44.58996" lon="5.32442">
        <ele>829</ele>
        <time>2021-09-06T00:45:35+02:00</time>
      </trkpt>
      <trkpt lat="44.59002" lon="5.32464">
        <ele>826</ele>
        <time>2021-09-06T00:45:40+02:00</time>
      </trkpt>
      <trkpt lat="44.59007" lon="5.32482">
        <ele>825</ele>
        <time>2021-09-06T00:45:45+02:00</time>
      </trkpt>
      <trkpt lat="44.59011" lon="5.32502">
        <ele>824</ele>
        <time>2021-09-06T00:45:50+02:00</time>
      </trkpt>
      <trkpt lat="44.59013" lon="5.32518">
        <ele>825</ele>
        <time>2021-09-06T00:45:55+02:00</time>
      </trkpt>
      <trkpt lat="44.59013" lon="5.32535">
        <ele>828</ele>
        <time>2021-09-06T00:46:00+02:00</time>
      </trkpt>
      <trkpt lat="44.59012" lon="5.32556">
        <ele>832</ele>
        <time>2021-09-06T00:46:05+02:00</time>
      </trkpt>
      <trkpt lat="44.5901" lon="5.32576">
        <ele>835</ele>
        <time>2021-09-06T00:46:10+02:00</time>
      </trkpt>
      <trkpt lat="44.59011" lon="5.32599">
        <ele>838</ele>
        <time>2021-09-06T00:46:15+02:00</time>
      </trkpt>
      <trkpt lat="44.59012" lon="5.32613">
        <ele>840</ele>
        <time>2021-09-06T00:46:20+02:00</time>
      </trkpt>
      <trkpt lat="44.59014" lon="5.32629">
        <ele>842</ele>
        <time>2021-09-06T00:46:25+02:00</time>
      </trkpt>
      <trkpt lat="44.59015" lon="5.32639">
        <ele>843</ele>
        <time>2021-09-06T00:46:30+02:00</time>
      </trkpt>
      <trkpt lat="44.59014" lon="5.3265">
        <ele>845</ele>
        <time>2021-09-06T00:46:35+02:00</time>
      </trkpt>
      <trkpt lat="44.59009" lon="5.3267">
        <ele>850</ele>
        <time>2021-09-06T00:46:40+02:00</time>
      </trkpt>
      <trkpt lat="44.59007" lon="5.32681">
        <ele>851</ele>
        <time>2021-09-06T00:46:45+02:00</time>
      </trkpt>
      <trkpt lat="44.59004" lon="5.32691">
        <ele>852</ele>
        <time>2021-09-06T00:46:50+02:00</time>
      </trkpt>
      <trkpt lat="44.5901" lon="5.32707">
        <ele>854</ele>
        <time>2021-09-06T00:46:55+02:00</time>
      </trkpt>
      <trkpt lat="44.59017" lon="5.32714">
        <ele>855</ele>
        <time>2021-09-06T00:47:00+02:00</time>
      </trkpt>
      <trkpt lat="44.59027" lon="5.32721">
        <ele>856</ele>
        <time>2021-09-06T00:47:05+02:00</time>
      </trkpt>
      <trkpt lat="44.5904" lon="5.32722">
        <ele>858</ele>
        <time>2021-09-06T00:47:10+02:00</time>
      </trkpt>
      <trkpt lat="44.59049" lon="5.32719">
        <ele>858</ele>
        <time>2021-09-06T00:47:15+02:00</time>
      </trkpt>
      <trkpt lat="44.59057" lon="5.32715">
        <ele>859</ele>
        <time>2021-09-06T00:47:20+02:00</time>
      </trkpt>
      <trkpt lat="44.59064" lon="5.32713">
        <ele>857</ele>
        <time>2021-09-06T00:47:25+02:00</time>
      </trkpt>
      <trkpt lat="44.59069" lon="5.32719">
        <ele>858</ele>
        <time>2021-09-06T00:47:30+02:00</time>
      </trkpt>
      <trkpt lat="44.59067" lon="5.32728">
        <ele>860</ele>
        <time>2021-09-06T00:47:35+02:00</time>
      </trkpt>
      <trkpt lat="44.59064" lon="5.32738">
        <ele>862</ele>
        <time>2021-09-06T00:47:40+02:00</time>
      </trkpt>
      <trkpt lat="44.59061" lon="5.32749">
        <ele>865</ele>
        <time>2021-09-06T00:47:45+02:00</time>
      </trkpt>
      <trkpt lat="44.5906" lon="5.32759">
        <ele>866</ele>
        <time>2021-09-06T00:47:50+02:00</time>
      </trkpt>
      <trkpt lat="44.59062" lon="5.32777">
        <ele>869</ele>
        <time>2021-09-06T00:47:55+02:00</time>
      </trkpt>
      <trkpt lat="44.59061" lon="5.32789">
        <ele>871</ele>
        <time>2021-09-06T00:48:00+02:00</time>
      </trkpt>
      <trkpt lat="44.59052" lon="5.32793">
        <ele>870</ele>
        <time>2021-09-06T00:48:05+02:00</time>
      </trkpt>
      <trkpt lat="44.59041" lon="5.32806">
        <ele>871</ele>
        <time>2021-09-06T00:48:10+02:00</time>
      </trkpt>
      <trkpt lat="44.59028" lon="5.32825">
        <ele>874</ele>
        <time>2021-09-06T00:48:15+02:00</time>
      </trkpt>
      <trkpt lat="44.59022" lon="5.32836">
        <ele>875</ele>
        <time>2021-09-06T00:48:20+02:00</time>
      </trkpt>
      <trkpt lat="44.59012" lon="5.32846">
        <ele>876</ele>
        <time>2021-09-06T00:48:25+02:00</time>
      </trkpt>
      <trkpt lat="44.59007" lon="5.32854">
        <ele>877</ele>
        <time>2021-09-06T00:48:30+02:00</time>
      </trkpt>
      <trkpt lat="44.59013" lon="5.32862">
        <ele>879</ele>
        <time>2021-09-06T00:48:35+02:00</time>
      </trkpt>
      <trkpt lat="44.59025" lon="5.32865">
        <ele>881</ele>
        <time>2021-09-06T00:48:40+02:00</time>
      </trkpt>
      <trkpt lat="44.59037" lon="5.3287">
        <ele>882</ele>
        <time>2021-09-06T00:48:45+02:00</time>
      </trkpt>
      <trkpt lat="44.59049" lon="5.3287">
        <ele>882</ele>
        <time>2021-09-06T00:48:50+02:00</time>
      </trkpt>
      <trkpt lat="44.5906" lon="5.32872">
        <ele>882</ele>
        <time>2021-09-06T00:48:55+02:00</time>
      </trkpt>
      <trkpt lat="44.59069" lon="5.32878">
        <ele>884</ele>
        <time>2021-09-06T00:49:00+02:00</time>
      </trkpt>
      <trkpt lat="44.59066" lon="5.32888">
        <ele>886</ele>
        <time>2021-09-06T00:49:05+02:00</time>
      </trkpt>
      <trkpt lat="44.5906" lon="5.32893">
        <ele>887</ele>
        <time>2021-09-06T00:49:10+02:00</time>
      </trkpt>
      <trkpt lat="44.59052" lon="5.32899">
        <ele>888</ele>
        <time>2021-09-06T00:49:15+02:00</time>
      </trkpt>
      <trkpt lat="44.5904" lon="5.32913">
        <ele>890</ele>
        <time>2021-09-06T00:49:20+02:00</time>
      </trkpt>
      <trkpt lat="44.59032" lon="5.32923">
        <ele>892</ele>
        <time>2021-09-06T00:49:25+02:00</time>
      </trkpt>
      <trkpt lat="44.59024" lon="5.32933">
        <ele>893</ele>
        <time>2021-09-06T00:49:30+02:00</time>
      </trkpt>
      <trkpt lat="44.59016" lon="5.32939">
        <ele>894</ele>
        <time>2021-09-06T00:49:35+02:00</time>
      </trkpt>
      <trkpt lat="44.59005" lon="5.32945">
        <ele>896</ele>
        <time>2021-09-06T00:49:40+02:00</time>
      </trkpt>
      <trkpt lat="44.58995" lon="5.32945">
        <ele>896</ele>
        <time>2021-09-06T00:49:45+02:00</time>
      </trkpt>
      <trkpt lat="44.58985" lon="5.32946">
        <ele>897</ele>
        <time>2021-09-06T00:49:50+02:00</time>
      </trkpt>
      <trkpt lat="44.58979" lon="5.32951">
        <ele>899</ele>
        <time>2021-09-06T00:49:55+02:00</time>
      </trkpt>
      <trkpt lat="44.58981" lon="5.32961">
        <ele>901</ele>
        <time>2021-09-06T00:50:00+02:00</time>
      </trkpt>
      <trkpt lat="44.58994" lon="5.32972">
        <ele>902</ele>
        <time>2021-09-06T00:50:05+02:00</time>
      </trkpt>
      <trkpt lat="44.59022" lon="5.32993">
        <ele>907</ele>
        <time>2021-09-06T00:50:10+02:00</time>
      </trkpt>
      <trkpt lat="44.59074" lon="5.33038">
        <ele>916</ele>
        <time>2021-09-06T00:50:15+02:00</time>
      </trkpt>
      <trkpt lat="44.59102" lon="5.33061">
        <ele>919</ele>
        <time>2021-09-06T00:50:20+02:00</time>
      </trkpt>
      <trkpt lat="44.59123" lon="5.33077">
        <ele>923</ele>
        <time>2021-09-06T00:50:25+02:00</time>
      </trkpt>
      <trkpt lat="44.59136" lon="5.33089">
        <ele>924</ele>
        <time>2021-09-06T00:50:30+02:00</time>
      </trkpt>
      <trkpt lat="44.59149" lon="5.33104">
        <ele>929</ele>
        <time>2021-09-06T00:50:35+02:00</time>
      </trkpt>
      <trkpt lat="44.5915" lon="5.33111">
        <ele>930</ele>
        <time>2021-09-06T00:50:40+02:00</time>
      </trkpt>
      <trkpt lat="44.59143" lon="5.33121">
        <ele>931</ele>
        <time>2021-09-06T00:50:45+02:00</time>
      </trkpt>
      <trkpt lat="44.59131" lon="5.33128">
        <ele>933</ele>
        <time>2021-09-06T00:50:50+02:00</time>
      </trkpt>
      <trkpt lat="44.59118" lon="5.33134">
        <ele>935</ele>
        <time>2021-09-06T00:50:55+02:00</time>
      </trkpt>
      <trkpt lat="44.59101" lon="5.3314">
        <ele>937</ele>
        <time>2021-09-06T00:51:00+02:00</time>
      </trkpt>
      <trkpt lat="44.59093" lon="5.33142">
        <ele>938</ele>
        <time>2021-09-06T00:51:05+02:00</time>
      </trkpt>
      <trkpt lat="44.59079" lon="5.33141">
        <ele>939</ele>
        <time>2021-09-06T00:51:10+02:00</time>
      </trkpt>
      <trkpt lat="44.59073" lon="5.33142">
        <ele>941</ele>
        <time>2021-09-06T00:51:15+02:00</time>
      </trkpt>
      <trkpt lat="44.59071" lon="5.33151">
        <ele>943</ele>
        <time>2021-09-06T00:51:20+02:00</time>
      </trkpt>
      <trkpt lat="44.59078" lon="5.33156">
        <ele>943</ele>
        <time>2021-09-06T00:51:25+02:00</time>
      </trkpt>
      <trkpt lat="44.5909" lon="5.33164">
        <ele>943</ele>
        <time>2021-09-06T00:51:30+02:00</time>
      </trkpt>
      <trkpt lat="44.59098" lon="5.33173">
        <ele>945</ele>
        <time>2021-09-06T00:51:35+02:00</time>
      </trkpt>
      <trkpt lat="44.59107" lon="5.33189">
        <ele>948</ele>
        <time>2021-09-06T00:51:40+02:00</time>
      </trkpt>
      <trkpt lat="44.59112" lon="5.33199">
        <ele>950</ele>
        <time>2021-09-06T00:51:45+02:00</time>
      </trkpt>
      <trkpt lat="44.59117" lon="5.33205">
        <ele>951</ele>
        <time>2021-09-06T00:51:50+02:00</time>
      </trkpt>
      <trkpt lat="44.59123" lon="5.33214">
        <ele>953</ele>
        <time>2021-09-06T00:51:55+02:00</time>
      </trkpt>
      <trkpt lat="44.59146" lon="5.33226">
        <ele>955</ele>
        <time>2021-09-06T00:52:00+02:00</time>
      </trkpt>
      <trkpt lat="44.59172" lon="5.33235">
        <ele>958</ele>
        <time>2021-09-06T00:52:05+02:00</time>
      </trkpt>
      <trkpt lat="44.59198" lon="5.33245">
        <ele>962</ele>
        <time>2021-09-06T00:52:10+02:00</time>
      </trkpt>
      <trkpt lat="44.59218" lon="5.33251">
        <ele>963</ele>
        <time>2021-09-06T00:52:15+02:00</time>
      </trkpt>
      <trkpt lat="44.59227" lon="5.33252">
        <ele>965</ele>
        <time>2021-09-06T00:52:20+02:00</time>
      </trkpt>
      <trkpt lat="44.59237" lon="5.33252">
        <ele>967</ele>
        <time>2021-09-06T00:52:25+02:00</time>
      </trkpt>
      <trkpt lat="44.59242" lon="5.33256">
        <ele>968</ele>
        <time>2021-09-06T00:52:30+02:00</time>
      </trkpt>
      <trkpt lat="44.59244" lon="5.33265">
        <ele>970</ele>
        <time>2021-09-06T00:52:35+02:00</time>
      </trkpt>
      <trkpt lat="44.59236" lon="5.33274">
        <ele>971</ele>
        <time>2021-09-06T00:52:40+02:00</time>
      </trkpt>
      <trkpt lat="44.59224" lon="5.3329">
        <ele>973</ele>
        <time>2021-09-06T00:52:45+02:00</time>
      </trkpt>
      <trkpt lat="44.59217" lon="5.33295">
        <ele>974</ele>
        <time>2021-09-06T00:52:50+02:00</time>
      </trkpt>
      <trkpt lat="44.59206" lon="5.33298">
        <ele>974</ele>
        <time>2021-09-06T00:52:55+02:00</time>
      </trkpt>
      <trkpt lat="44.59196" lon="5.33302">
        <ele>975</ele>
        <time>2021-09-06T00:53:00+02:00</time>
      </trkpt>
      <trkpt lat="44.59195" lon="5.33308">
        <ele>977</ele>
        <time>2021-09-06T00:53:05+02:00</time>
      </trkpt>
      <trkpt lat="44.59205" lon="5.33321">
        <ele>980</ele>
        <time>2021-09-06T00:53:10+02:00</time>
      </trkpt>
      <trkpt lat="44.59229" lon="5.33335">
        <ele>984</ele>
        <time>2021-09-06T00:53:15+02:00</time>
      </trkpt>
      <trkpt lat="44.59248" lon="5.33343">
        <ele>986</ele>
        <time>2021-09-06T00:53:20+02:00</time>
      </trkpt>
      <trkpt lat="44.5927" lon="5.33352">
        <ele>990</ele>
        <time>2021-09-06T00:53:25+02:00</time>
      </trkpt>
      <trkpt lat="44.59284" lon="5.33351">
        <ele>991</ele>
        <time>2021-09-06T00:53:30+02:00</time>
      </trkpt>
      <trkpt lat="44.59298" lon="5.3335">
        <ele>993</ele>
        <time>2021-09-06T00:53:35+02:00</time>
      </trkpt>
      <trkpt lat="44.5931" lon="5.33351">
        <ele>995</ele>
        <time>2021-09-06T00:53:40+02:00</time>
      </trkpt>
      <trkpt lat="44.5931" lon="5.33359">
        <ele>996</ele>
        <time>2021-09-06T00:53:45+02:00</time>
      </trkpt>
      <trkpt lat="44.59302" lon="5.33369">
        <ele>996</ele>
        <time>2021-09-06T00:53:50+02:00</time>
      </trkpt>
      <trkpt lat="44.59291" lon="5.33384">
        <ele>997</ele>
        <time>2021-09-06T00:53:55+02:00</time>
      </trkpt>
      <trkpt lat="44.5928" lon="5.33396">
        <ele>998</ele>
        <time>2021-09-06T00:54:00+02:00</time>
      </trkpt>
      <trkpt lat="44.59269" lon="5.33401">
        <ele>1000</ele>
        <time>2021-09-06T00:54:05+02:00</time>
      </trkpt>
      <trkpt lat="44.59258" lon="5.33406">
        <ele>1001</ele>
        <time>2021-09-06T00:54:10+02:00</time>
      </trkpt>
      <trkpt lat="44.5926" lon="5.33414">
        <ele>1004</ele>
        <time>2021-09-06T00:54:15+02:00</time>
      </trkpt>
      <trkpt lat="44.59286" lon="5.33423">
        <ele>1006</ele>
        <time>2021-09-06T00:54:20+02:00</time>
      </trkpt>
      <trkpt lat="44.59315" lon="5.3343">
        <ele>1011</ele>
        <time>2021-09-06T00:54:25+02:00</time>
      </trkpt>
      <trkpt lat="44.59335" lon="5.33428">
        <ele>1014</ele>
        <time>2021-09-06T00:54:30+02:00</time>
      </trkpt>
      <trkpt lat="44.59349" lon="5.3342">
        <ele>1016</ele>
        <time>2021-09-06T00:54:35+02:00</time>
      </trkpt>
      <trkpt lat="44.59363" lon="5.33415">
        <ele>1018</ele>
        <time>2021-09-06T00:54:40+02:00</time>
      </trkpt>
      <trkpt lat="44.59373" lon="5.33403">
        <ele>1019</ele>
        <time>2021-09-06T00:54:45+02:00</time>
      </trkpt>
      <trkpt lat="44.59379" lon="5.33396">
        <ele>1020</ele>
        <time>2021-09-06T00:54:50+02:00</time>
      </trkpt>
      <trkpt lat="44.59384" lon="5.33377">
        <ele>1020</ele>
        <time>2021-09-06T00:54:55+02:00</time>
      </trkpt>
      <trkpt lat="44.59388" lon="5.33353">
        <ele>1021</ele>
        <time>2021-09-06T00:55:00+02:00</time>
      </trkpt>
      <trkpt lat="44.59392" lon="5.33328">
        <ele>1023</ele>
        <time>2021-09-06T00:55:05+02:00</time>
      </trkpt>
      <trkpt lat="44.59394" lon="5.33304">
        <ele>1024</ele>
        <time>2021-09-06T00:55:10+02:00</time>
      </trkpt>
      <trkpt lat="44.59397" lon="5.3328">
        <ele>1026</ele>
        <time>2021-09-06T00:55:15+02:00</time>
      </trkpt>
      <trkpt lat="44.59399" lon="5.33263">
        <ele>1026</ele>
        <time>2021-09-06T00:55:20+02:00</time>
      </trkpt>
      <trkpt lat="44.59404" lon="5.33246">
        <ele>1027</ele>
        <time>2021-09-06T00:55:25+02:00</time>
      </trkpt>
      <trkpt lat="44.59408" lon="5.33233">
        <ele>1027</ele>
        <time>2021-09-06T00:55:30+02:00</time>
      </trkpt>
      <trkpt lat="44.59413" lon="5.33227">
        <ele>1027</ele>
        <time>2021-09-06T00:55:35+02:00</time>
      </trkpt>
      <trkpt lat="44.59419" lon="5.33224">
        <ele>1029</ele>
        <time>2021-09-06T00:55:40+02:00</time>
      </trkpt>
      <trkpt lat="44.59423" lon="5.33231">
        <ele>1030</ele>
        <time>2021-09-06T00:55:45+02:00</time>
      </trkpt>
      <trkpt lat="44.5942" lon="5.33241">
        <ele>1031</ele>
        <time>2021-09-06T00:55:50+02:00</time>
      </trkpt>
      <trkpt lat="44.5942" lon="5.33255">
        <ele>1032</ele>
        <time>2021-09-06T00:55:55+02:00</time>
      </trkpt>
      <trkpt lat="44.59422" lon="5.33268">
        <ele>1034</ele>
        <time>2021-09-06T00:56:00+02:00</time>
      </trkpt>
      <trkpt lat="44.59425" lon="5.33284">
        <ele>1035</ele>
        <time>2021-09-06T00:56:05+02:00</time>
      </trkpt>
      <trkpt lat="44.5943" lon="5.33297">
        <ele>1036</ele>
        <time>2021-09-06T00:56:10+02:00</time>
      </trkpt>
      <trkpt lat="44.59435" lon="5.33313">
        <ele>1038</ele>
        <time>2021-09-06T00:56:15+02:00</time>
      </trkpt>
      <trkpt lat="44.59441" lon="5.33333">
        <ele>1041</ele>
        <time>2021-09-06T00:56:20+02:00</time>
      </trkpt>
      <trkpt lat="44.59452" lon="5.33383">
        <ele>1042</ele>
        <time>2021-09-06T00:56:25+02:00</time>
      </trkpt>
      <trkpt lat="44.59464" lon="5.3343">
        <ele>1044</ele>
        <time>2021-09-06T00:56:30+02:00</time>
      </trkpt>
      <trkpt lat="44.59471" lon="5.33454">
        <ele>1045</ele>
        <time>2021-09-06T00:56:35+02:00</time>
      </trkpt>
      <trkpt lat="44.59477" lon="5.33469">
        <ele>1046</ele>
        <time>2021-09-06T00:56:40+02:00</time>
      </trkpt>
      <trkpt lat="44.59481" lon="5.33486">
        <ele>1047</ele>
        <time>2021-09-06T00:56:45+02:00</time>
      </trkpt>
      <trkpt lat="44.59482" lon="5.33498">
        <ele>1047</ele>
        <time>2021-09-06T00:56:50+02:00</time>
      </trkpt>
      <trkpt lat="44.59479" lon="5.3351">
        <ele>1048</ele>
        <time>2021-09-06T00:56:55+02:00</time>
      </trkpt>
      <trkpt lat="44.59473" lon="5.33523">
        <ele>1048</ele>
        <time>2021-09-06T00:57:00+02:00</time>
      </trkpt>
      <trkpt lat="44.59465" lon="5.33534">
        <ele>1049</ele>
        <time>2021-09-06T00:57:05+02:00</time>
      </trkpt>
      <trkpt lat="44.59459" lon="5.33537">
        <ele>1048</ele>
        <time>2021-09-06T00:57:10+02:00</time>
      </trkpt>
      <trkpt lat="44.59452" lon="5.33545">
        <ele>1049</ele>
        <time>2021-09-06T00:57:15+02:00</time>
      </trkpt>
      <trkpt lat="44.59452" lon="5.33554">
        <ele>1051</ele>
        <time>2021-09-06T00:57:20+02:00</time>
      </trkpt>
      <trkpt lat="44.59457" lon="5.33561">
        <ele>1053</ele>
        <time>2021-09-06T00:57:25+02:00</time>
      </trkpt>
      <trkpt lat="44.59465" lon="5.33559">
        <ele>1053</ele>
        <time>2021-09-06T00:57:30+02:00</time>
      </trkpt>
      <trkpt lat="44.5948" lon="5.33549">
        <ele>1053</ele>
        <time>2021-09-06T00:57:35+02:00</time>
      </trkpt>
      <trkpt lat="44.59498" lon="5.33541">
        <ele>1056</ele>
        <time>2021-09-06T00:57:40+02:00</time>
      </trkpt>
      <trkpt lat="44.59514" lon="5.33533">
        <ele>1058</ele>
        <time>2021-09-06T00:57:45+02:00</time>
      </trkpt>
      <trkpt lat="44.59525" lon="5.33518">
        <ele>1060</ele>
        <time>2021-09-06T00:57:50+02:00</time>
      </trkpt>
      <trkpt lat="44.59535" lon="5.33496">
        <ele>1060</ele>
        <time>2021-09-06T00:57:55+02:00</time>
      </trkpt>
      <trkpt lat="44.5954" lon="5.33468">
        <ele>1059</ele>
        <time>2021-09-06T00:58:00+02:00</time>
      </trkpt>
      <trkpt lat="44.59544" lon="5.33459">
        <ele>1058</ele>
        <time>2021-09-06T00:58:05+02:00</time>
      </trkpt>
      <trkpt lat="44.59553" lon="5.33458">
        <ele>1059</ele>
        <time>2021-09-06T00:58:10+02:00</time>
      </trkpt>
      <trkpt lat="44.5956" lon="5.3346">
        <ele>1059</ele>
        <time>2021-09-06T00:58:15+02:00</time>
      </trkpt>
      <trkpt lat="44.5957" lon="5.33471">
        <ele>1059</ele>
        <time>2021-09-06T00:58:20+02:00</time>
      </trkpt>
      <trkpt lat="44.59591" lon="5.33491">
        <ele>1063</ele>
        <time>2021-09-06T00:58:25+02:00</time>
      </trkpt>
      <trkpt lat="44.59603" lon="5.33494">
        <ele>1065</ele>
        <time>2021-09-06T00:58:30+02:00</time>
      </trkpt>
      <trkpt lat="44.59616" lon="5.33496">
        <ele>1067</ele>
        <time>2021-09-06T00:58:35+02:00</time>
      </trkpt>
      <trkpt lat="44.59629" lon="5.33499">
        <ele>1071</ele>
        <time>2021-09-06T00:58:40+02:00</time>
      </trkpt>
      <trkpt lat="44.59642" lon="5.33494">
        <ele>1070</ele>
        <time>2021-09-06T00:58:45+02:00</time>
      </trkpt>
      <trkpt lat="44.5971" lon="5.33453">
        <ele>1068</ele>
        <time>2021-09-06T00:58:50+02:00</time>
      </trkpt>
      <trkpt lat="44.5973" lon="5.33451">
        <ele>1071</ele>
        <time>2021-09-06T00:58:55+02:00</time>
      </trkpt>
      <trkpt lat="44.59753" lon="5.33446">
        <ele>1073</ele>
        <time>2021-09-06T00:59:00+02:00</time>
      </trkpt>
      <trkpt lat="44.59767" lon="5.33444">
        <ele>1072</ele>
        <time>2021-09-06T00:59:05+02:00</time>
      </trkpt>
      <trkpt lat="44.59782" lon="5.33448">
        <ele>1073</ele>
        <time>2021-09-06T00:59:10+02:00</time>
      </trkpt>
      <trkpt lat="44.59877" lon="5.33499">
        <ele>1083</ele>
        <time>2021-09-06T00:59:15+02:00</time>
      </trkpt>
      <trkpt lat="44.59891" lon="5.33509">
        <ele>1085</ele>
        <time>2021-09-06T00:59:20+02:00</time>
      </trkpt>
      <trkpt lat="44.59965" lon="5.33553">
        <ele>1093</ele>
        <time>2021-09-06T00:59:25+02:00</time>
      </trkpt>
      <trkpt lat="44.59969" lon="5.33563">
        <ele>1095</ele>
        <time>2021-09-06T00:59:30+02:00</time>
      </trkpt>
      <trkpt lat="44.59962" lon="5.33568">
        <ele>1096</ele>
        <time>2021-09-06T00:59:35+02:00</time>
      </trkpt>
      <trkpt lat="44.59944" lon="5.33579">
        <ele>1098</ele>
        <time>2021-09-06T00:59:40+02:00</time>
      </trkpt>
      <trkpt lat="44.59928" lon="5.33585">
        <ele>1101</ele>
        <time>2021-09-06T00:59:45+02:00</time>
      </trkpt>
      <trkpt lat="44.59918" lon="5.33589">
        <ele>1103</ele>
        <time>2021-09-06T00:59:50+02:00</time>
      </trkpt>
      <trkpt lat="44.59917" lon="5.33596">
        <ele>1105</ele>
        <time>2021-09-06T00:59:55+02:00</time>
      </trkpt>
      <trkpt lat="44.59933" lon="5.33614">
        <ele>1109</ele>
        <time>2021-09-06T01:00:00+02:00</time>
      </trkpt>
      <trkpt lat="44.59957" lon="5.33638">
        <ele>1114</ele>
        <time>2021-09-06T01:00:05+02:00</time>
      </trkpt>
      <trkpt lat="44.59999" lon="5.33666">
        <ele>1118</ele>
        <time>2021-09-06T01:00:10+02:00</time>
      </trkpt>
      <trkpt lat="44.60015" lon="5.33678">
        <ele>1120</ele>
        <time>2021-09-06T01:00:15+02:00</time>
      </trkpt>
      <trkpt lat="44.60024" lon="5.33689">
        <ele>1121</ele>
        <time>2021-09-06T01:00:20+02:00</time>
      </trkpt>
      <trkpt lat="44.60036" lon="5.33709">
        <ele>1125</ele>
        <time>2021-09-06T01:00:25+02:00</time>
      </trkpt>
      <trkpt lat="44.60058" lon="5.33738">
        <ele>1133</ele>
        <time>2021-09-06T01:00:30+02:00</time>
      </trkpt>
      <trkpt lat="44.6007" lon="5.33743">
        <ele>1137</ele>
        <time>2021-09-06T01:00:35+02:00</time>
      </trkpt>
      <trkpt lat="44.60076" lon="5.33736">
        <ele>1136</ele>
        <time>2021-09-06T01:00:40+02:00</time>
      </trkpt>
      <trkpt lat="44.60088" lon="5.33735">
        <ele>1137</ele>
        <time>2021-09-06T01:00:45+02:00</time>
      </trkpt>
      <trkpt lat="44.60103" lon="5.33736">
        <ele>1139</ele>
        <time>2021-09-06T01:00:50+02:00</time>
      </trkpt>
      <trkpt lat="44.60118" lon="5.33736">
        <ele>1142</ele>
        <time>2021-09-06T01:00:55+02:00</time>
      </trkpt>
      <trkpt lat="44.60129" lon="5.33734">
        <ele>1143</ele>
        <time>2021-09-06T01:01:00+02:00</time>
      </trkpt>
      <trkpt lat="44.60136" lon="5.3373">
        <ele>1143</ele>
        <time>2021-09-06T01:01:05+02:00</time>
      </trkpt>
      <trkpt lat="44.60145" lon="5.33733">
        <ele>1147</ele>
        <time>2021-09-06T01:01:10+02:00</time>
      </trkpt>
      <trkpt lat="44.60145" lon="5.33741">
        <ele>1149</ele>
        <time>2021-09-06T01:01:15+02:00</time>
      </trkpt>
      <trkpt lat="44.60137" lon="5.33754">
        <ele>1152</ele>
        <time>2021-09-06T01:01:20+02:00</time>
      </trkpt>
      <trkpt lat="44.60129" lon="5.33761">
        <ele>1153</ele>
        <time>2021-09-06T01:01:25+02:00</time>
      </trkpt>
      <trkpt lat="44.60124" lon="5.33769">
        <ele>1154</ele>
        <time>2021-09-06T01:01:30+02:00</time>
      </trkpt>
      <trkpt lat="44.60132" lon="5.33776">
        <ele>1158</ele>
        <time>2021-09-06T01:01:35+02:00</time>
      </trkpt>
      <trkpt lat="44.6024" lon="5.33715">
        <ele>1172</ele>
        <time>2021-09-06T01:01:40+02:00</time>
      </trkpt>
      <trkpt lat="44.60261" lon="5.33697">
        <ele>1171</ele>
        <time>2021-09-06T01:01:45+02:00</time>
      </trkpt>
      <trkpt lat="44.60279" lon="5.33688">
        <ele>1175</ele>
        <time>2021-09-06T01:01:50+02:00</time>
      </trkpt>
      <trkpt lat="44.60293" lon="5.33681">
        <ele>1178</ele>
        <time>2021-09-06T01:01:55+02:00</time>
      </trkpt>
      <trkpt lat="44.60302" lon="5.33665">
        <ele>1176</ele>
        <time>2021-09-06T01:02:00+02:00</time>
      </trkpt>
      <trkpt lat="44.60317" lon="5.33656">
        <ele>1179</ele>
        <time>2021-09-06T01:02:05+02:00</time>
      </trkpt>
      <trkpt lat="44.60326" lon="5.33653">
        <ele>1182</ele>
        <time>2021-09-06T01:02:10+02:00</time>
      </trkpt>
      <trkpt lat="44.60336" lon="5.33643">
        <ele>1183</ele>
        <time>2021-09-06T01:02:15+02:00</time>
      </trkpt>
      <trkpt lat="44.60404" lon="5.33558">
        <ele>1190</ele>
        <time>2021-09-06T01:02:20+02:00</time>
      </trkpt>
      <trkpt lat="44.60419" lon="5.33537">
        <ele>1192</ele>
        <time>2021-09-06T01:02:25+02:00</time>
      </trkpt>
      <trkpt lat="44.60429" lon="5.33518">
        <ele>1191</ele>
        <time>2021-09-06T01:02:30+02:00</time>
      </trkpt>
      <trkpt lat="44.60452" lon="5.33477">
        <ele>1188</ele>
        <time>2021-09-06T01:02:35+02:00</time>
      </trkpt>
      <trkpt lat="44.60459" lon="5.33467">
        <ele>1187</ele>
        <time>2021-09-06T01:02:40+02:00</time>
      </trkpt>
      <trkpt lat="44.6047" lon="5.33465">
        <ele>1187</ele>
        <time>2021-09-06T01:02:45+02:00</time>
      </trkpt>
      <trkpt lat="44.60477" lon="5.33468">
        <ele>1186</ele>
        <time>2021-09-06T01:02:50+02:00</time>
      </trkpt>
      <trkpt lat="44.60486" lon="5.33499">
        <ele>1189</ele>
        <time>2021-09-06T01:02:55+02:00</time>
      </trkpt>
      <trkpt lat="44.60492" lon="5.33509">
        <ele>1190</ele>
        <time>2021-09-06T01:03:00+02:00</time>
      </trkpt>
      <trkpt lat="44.60577" lon="5.33612">
        <ele>1196</ele>
        <time>2021-09-06T01:03:05+02:00</time>
      </trkpt>
      <trkpt lat="44.60596" lon="5.33629">
        <ele>1195</ele>
        <time>2021-09-06T01:03:10+02:00</time>
      </trkpt>
      <trkpt lat="44.60617" lon="5.33645">
        <ele>1194</ele>
        <time>2021-09-06T01:03:15+02:00</time>
      </trkpt>
      <trkpt lat="44.6063" lon="5.33657">
        <ele>1193</ele>
        <time>2021-09-06T01:03:20+02:00</time>
      </trkpt>
      <trkpt lat="44.60641" lon="5.33676">
        <ele>1192</ele>
        <time>2021-09-06T01:03:25+02:00</time>
      </trkpt>
      <trkpt lat="44.60653" lon="5.33693">
        <ele>1190</ele>
        <time>2021-09-06T01:03:30+02:00</time>
      </trkpt>
      <trkpt lat="44.60659" lon="5.33718">
        <ele>1190</ele>
        <time>2021-09-06T01:03:35+02:00</time>
      </trkpt>
      <trkpt lat="44.60665" lon="5.33749">
        <ele>1190</ele>
        <time>2021-09-06T01:03:40+02:00</time>
      </trkpt>
      <trkpt lat="44.60682" lon="5.33839">
        <ele>1188</ele>
        <time>2021-09-06T01:03:45+02:00</time>
      </trkpt>
      <trkpt lat="44.60685" lon="5.33867">
        <ele>1187</ele>
        <time>2021-09-06T01:03:50+02:00</time>
      </trkpt>
      <trkpt lat="44.60686" lon="5.33893">
        <ele>1188</ele>
        <time>2021-09-06T01:03:55+02:00</time>
      </trkpt>
      <trkpt lat="44.60685" lon="5.33908">
        <ele>1189</ele>
        <time>2021-09-06T01:04:00+02:00</time>
      </trkpt>
      <trkpt lat="44.60682" lon="5.33931">
        <ele>1191</ele>
        <time>2021-09-06T01:04:05+02:00</time>
      </trkpt>
      <trkpt lat="44.60683" lon="5.33949">
        <ele>1191</ele>
        <time>2021-09-06T01:04:10+02:00</time>
      </trkpt>
      <trkpt lat="44.60688" lon="5.34007">
        <ele>1192</ele>
        <time>2021-09-06T01:04:15+02:00</time>
      </trkpt>
      <trkpt lat="44.60692" lon="5.34056">
        <ele>1192</ele>
        <time>2021-09-06T01:04:20+02:00</time>
      </trkpt>
      <trkpt lat="44.60694" lon="5.34087">
        <ele>1192</ele>
        <time>2021-09-06T01:04:25+02:00</time>
      </trkpt>
      <trkpt lat="44.60693" lon="5.34115">
        <ele>1193</ele>
        <time>2021-09-06T01:04:30+02:00</time>
      </trkpt>
      <trkpt lat="44.60687" lon="5.34145">
        <ele>1195</ele>
        <time>2021-09-06T01:04:35+02:00</time>
      </trkpt>
      <trkpt lat="44.60673" lon="5.34178">
        <ele>1200</ele>
        <time>2021-09-06T01:04:40+02:00</time>
      </trkpt>
      <trkpt lat="44.60659" lon="5.34207">
        <ele>1204</ele>
        <time>2021-09-06T01:04:45+02:00</time>
      </trkpt>
      <trkpt lat="44.60648" lon="5.34233">
        <ele>1204</ele>
        <time>2021-09-06T01:04:50+02:00</time>
      </trkpt>
      <trkpt lat="44.60639" lon="5.34253">
        <ele>1204</ele>
        <time>2021-09-06T01:04:55+02:00</time>
      </trkpt>
      <trkpt lat="44.60628" lon="5.34269">
        <ele>1205</ele>
        <time>2021-09-06T01:05:00+02:00</time>
      </trkpt>
      <trkpt lat="44.60615" lon="5.34282">
        <ele>1207</ele>
        <time>2021-09-06T01:05:05+02:00</time>
      </trkpt>
      <trkpt lat="44.60613" lon="5.34296">
        <ele>1207</ele>
        <time>2021-09-06T01:05:10+02:00</time>
      </trkpt>
      <trkpt lat="44.60615" lon="5.34317">
        <ele>1207</ele>
        <time>2021-09-06T01:05:15+02:00</time>
      </trkpt>
      <trkpt lat="44.60614" lon="5.34347">
        <ele>1210</ele>
        <time>2021-09-06T01:05:20+02:00</time>
      </trkpt>
      <trkpt lat="44.60615" lon="5.34372">
        <ele>1211</ele>
        <time>2021-09-06T01:05:25+02:00</time>
      </trkpt>
      <trkpt lat="44.60615" lon="5.34394">
        <ele>1213</ele>
        <time>2021-09-06T01:05:30+02:00</time>
      </trkpt>
      <trkpt lat="44.60613" lon="5.34416">
        <ele>1215</ele>
        <time>2021-09-06T01:05:35+02:00</time>
      </trkpt>
      <trkpt lat="44.60611" lon="5.34456">
        <ele>1217</ele>
        <time>2021-09-06T01:05:40+02:00</time>
      </trkpt>
      <trkpt lat="44.6061" lon="5.34479">
        <ele>1219</ele>
        <time>2021-09-06T01:05:45+02:00</time>
      </trkpt>
      <trkpt lat="44.60608" lon="5.34496">
        <ele>1223</ele>
        <time>2021-09-06T01:05:50+02:00</time>
      </trkpt>
      <trkpt lat="44.60605" lon="5.34519">
        <ele>1227</ele>
        <time>2021-09-06T01:05:55+02:00</time>
      </trkpt>
      <trkpt lat="44.60601" lon="5.34538">
        <ele>1230</ele>
        <time>2021-09-06T01:06:00+02:00</time>
      </trkpt>
      <trkpt lat="44.60592" lon="5.34566">
        <ele>1235</ele>
        <time>2021-09-06T01:06:05+02:00</time>
      </trkpt>
      <trkpt lat="44.60586" lon="5.34583">
        <ele>1237</ele>
        <time>2021-09-06T01:06:10+02:00</time>
      </trkpt>
      <trkpt lat="44.60579" lon="5.34601">
        <ele>1239</ele>
        <time>2021-09-06T01:06:15+02:00</time>
      </trkpt>
      <trkpt lat="44.60575" lon="5.34615">
        <ele>1241</ele>
        <time>2021-09-06T01:06:20+02:00</time>
      </trkpt>
      <trkpt lat="44.6057" lon="5.34625">
        <ele>1242</ele>
        <time>2021-09-06T01:06:25+02:00</time>
      </trkpt>
      <trkpt lat="44.60563" lon="5.34639">
        <ele>1243</ele>
        <time>2021-09-06T01:06:30+02:00</time>
      </trkpt>
      <trkpt lat="44.60544" lon="5.34662">
        <ele>1247</ele>
        <time>2021-09-06T01:06:35+02:00</time>
      </trkpt>
      <trkpt lat="44.60533" lon="5.34677">
        <ele>1248</ele>
        <time>2021-09-06T01:06:40+02:00</time>
      </trkpt>
      <trkpt lat="44.60525" lon="5.34693">
        <ele>1248</ele>
        <time>2021-09-06T01:06:45+02:00</time>
      </trkpt>
      <trkpt lat="44.60523" lon="5.3472">
        <ele>1249</ele>
        <time>2021-09-06T01:06:50+02:00</time>
      </trkpt>
      <trkpt lat="44.60523" lon="5.34741">
        <ele>1250</ele>
        <time>2021-09-06T01:06:55+02:00</time>
      </trkpt>
      <trkpt lat="44.6052" lon="5.3477">
        <ele>1251</ele>
        <time>2021-09-06T01:07:00+02:00</time>
      </trkpt>
      <trkpt lat="44.60515" lon="5.34809">
        <ele>1251</ele>
        <time>2021-09-06T01:07:05+02:00</time>
      </trkpt>
      <trkpt lat="44.60507" lon="5.34861">
        <ele>1250</ele>
        <time>2021-09-06T01:07:10+02:00</time>
      </trkpt>
      <trkpt lat="44.605" lon="5.34908">
        <ele>1250</ele>
        <time>2021-09-06T01:07:15+02:00</time>
      </trkpt>
      <trkpt lat="44.60492" lon="5.34959">
        <ele>1252</ele>
        <time>2021-09-06T01:07:20+02:00</time>
      </trkpt>
      <trkpt lat="44.60487" lon="5.34997">
        <ele>1254</ele>
        <time>2021-09-06T01:07:25+02:00</time>
      </trkpt>
      <trkpt lat="44.60475" lon="5.35024">
        <ele>1257</ele>
        <time>2021-09-06T01:07:30+02:00</time>
      </trkpt>
      <trkpt lat="44.60457" lon="5.35062">
        <ele>1259</ele>
        <time>2021-09-06T01:07:35+02:00</time>
      </trkpt>
      <trkpt lat="44.60441" lon="5.35086">
        <ele>1259</ele>
        <time>2021-09-06T01:07:40+02:00</time>
      </trkpt>
      <trkpt lat="44.60419" lon="5.35105">
        <ele>1259</ele>
        <time>2021-09-06T01:07:45+02:00</time>
      </trkpt>
      <trkpt lat="44.60396" lon="5.35124">
        <ele>1261</ele>
        <time>2021-09-06T01:07:50+02:00</time>
      </trkpt>
      <trkpt lat="44.60377" lon="5.35142">
        <ele>1264</ele>
        <time>2021-09-06T01:07:55+02:00</time>
      </trkpt>
      <trkpt lat="44.60347" lon="5.35169">
        <ele>1269</ele>
        <time>2021-09-06T01:08:00+02:00</time>
      </trkpt>
      <trkpt lat="44.60327" lon="5.35184">
        <ele>1269</ele>
        <time>2021-09-06T01:08:05+02:00</time>
      </trkpt>
      <trkpt lat="44.6031" lon="5.35189">
        <ele>1269</ele>
        <time>2021-09-06T01:08:10+02:00</time>
      </trkpt>
      <trkpt lat="44.60294" lon="5.35194">
        <ele>1269</ele>
        <time>2021-09-06T01:08:15+02:00</time>
      </trkpt>
      <trkpt lat="44.6028" lon="5.35209">
        <ele>1271</ele>
        <time>2021-09-06T01:08:20+02:00</time>
      </trkpt>
      <trkpt lat="44.6024" lon="5.35265">
        <ele>1278</ele>
        <time>2021-09-06T01:08:25+02:00</time>
      </trkpt>
      <trkpt lat="44.60197" lon="5.35326">
        <ele>1280</ele>
        <time>2021-09-06T01:08:30+02:00</time>
      </trkpt>
      <trkpt lat="44.60166" lon="5.35371">
        <ele>1280</ele>
        <time>2021-09-06T01:08:35+02:00</time>
      </trkpt>
      <trkpt lat="44.60139" lon="5.35407">
        <ele>1284</ele>
        <time>2021-09-06T01:08:40+02:00</time>
      </trkpt>
      <trkpt lat="44.60131" lon="5.35423">
        <ele>1284</ele>
        <time>2021-09-06T01:08:45+02:00</time>
      </trkpt>
      <trkpt lat="44.6013" lon="5.35459">
        <ele>1284</ele>
        <time>2021-09-06T01:08:50+02:00</time>
      </trkpt>
      <trkpt lat="44.60128" lon="5.35487">
        <ele>1284</ele>
        <time>2021-09-06T01:08:55+02:00</time>
      </trkpt>
      <trkpt lat="44.60123" lon="5.35517">
        <ele>1285</ele>
        <time>2021-09-06T01:09:00+02:00</time>
      </trkpt>
      <trkpt lat="44.60117" lon="5.35545">
        <ele>1285</ele>
        <time>2021-09-06T01:09:05+02:00</time>
      </trkpt>
      <trkpt lat="44.60112" lon="5.35574">
        <ele>1285</ele>
        <time>2021-09-06T01:09:10+02:00</time>
      </trkpt>
      <trkpt lat="44.60108" lon="5.35605">
        <ele>1286</ele>
        <time>2021-09-06T01:09:15+02:00</time>
      </trkpt>
      <trkpt lat="44.60106" lon="5.35629">
        <ele>1287</ele>
        <time>2021-09-06T01:09:20+02:00</time>
      </trkpt>
      <trkpt lat="44.60109" lon="5.3565">
        <ele>1288</ele>
        <time>2021-09-06T01:09:25+02:00</time>
      </trkpt>
      <trkpt lat="44.60115" lon="5.35689">
        <ele>1290</ele>
        <time>2021-09-06T01:09:30+02:00</time>
      </trkpt>
      <trkpt lat="44.60119" lon="5.35715">
        <ele>1291</ele>
        <time>2021-09-06T01:09:35+02:00</time>
      </trkpt>
      <trkpt lat="44.6012" lon="5.35735">
        <ele>1292</ele>
        <time>2021-09-06T01:09:40+02:00</time>
      </trkpt>
      <trkpt lat="44.60119" lon="5.35751">
        <ele>1293</ele>
        <time>2021-09-06T01:09:45+02:00</time>
      </trkpt>
      <trkpt lat="44.60115" lon="5.35801">
        <ele>1295</ele>
        <time>2021-09-06T01:09:50+02:00</time>
      </trkpt>
      <trkpt lat="44.60109" lon="5.35838">
        <ele>1293</ele>
        <time>2021-09-06T01:09:55+02:00</time>
      </trkpt>
      <trkpt lat="44.60108" lon="5.35859">
        <ele>1291</ele>
        <time>2021-09-06T01:10:00+02:00</time>
      </trkpt>
      <trkpt lat="44.60108" lon="5.35886">
        <ele>1291</ele>
        <time>2021-09-06T01:10:05+02:00</time>
      </trkpt>
      <trkpt lat="44.60105" lon="5.35902">
        <ele>1291</ele>
        <time>2021-09-06T01:10:10+02:00</time>
      </trkpt>
      <trkpt lat="44.60093" lon="5.35997">
        <ele>1291</ele>
        <time>2021-09-06T01:10:15+02:00</time>
      </trkpt>
      <trkpt lat="44.60087" lon="5.36043">
        <ele>1292</ele>
        <time>2021-09-06T01:10:20+02:00</time>
      </trkpt>
      <trkpt lat="44.60083" lon="5.36081">
        <ele>1292</ele>
        <time>2021-09-06T01:10:25+02:00</time>
      </trkpt>
      <trkpt lat="44.60081" lon="5.36103">
        <ele>1293</ele>
        <time>2021-09-06T01:10:30+02:00</time>
      </trkpt>
      <trkpt lat="44.6008" lon="5.3612">
        <ele>1293</ele>
        <time>2021-09-06T01:10:35+02:00</time>
      </trkpt>
      <trkpt lat="44.60075" lon="5.36137">
        <ele>1294</ele>
        <time>2021-09-06T01:10:40+02:00</time>
      </trkpt>
      <trkpt lat="44.60049" lon="5.36184">
        <ele>1296</ele>
        <time>2021-09-06T01:10:45+02:00</time>
      </trkpt>
      <trkpt lat="44.60022" lon="5.36232">
        <ele>1299</ele>
        <time>2021-09-06T01:10:50+02:00</time>
      </trkpt>
      <trkpt lat="44.60006" lon="5.36259">
        <ele>1299</ele>
        <time>2021-09-06T01:10:55+02:00</time>
      </trkpt>
      <trkpt lat="44.59994" lon="5.36293">
        <ele>1298</ele>
        <time>2021-09-06T01:11:00+02:00</time>
      </trkpt>
      <trkpt lat="44.59978" lon="5.3633">
        <ele>1298</ele>
        <time>2021-09-06T01:11:05+02:00</time>
      </trkpt>
      <trkpt lat="44.59965" lon="5.36354">
        <ele>1299</ele>
        <time>2021-09-06T01:11:10+02:00</time>
      </trkpt>
      <trkpt lat="44.59952" lon="5.3637">
        <ele>1299</ele>
        <time>2021-09-06T01:11:15+02:00</time>
      </trkpt>
      <trkpt lat="44.59944" lon="5.36383">
        <ele>1299</ele>
        <time>2021-09-06T01:11:20+02:00</time>
      </trkpt>
      <trkpt lat="44.59936" lon="5.36394">
        <ele>1299</ele>
        <time>2021-09-06T01:11:25+02:00</time>
      </trkpt>
      <trkpt lat="44.59922" lon="5.36403">
        <ele>1299</ele>
        <time>2021-09-06T01:11:30+02:00</time>
      </trkpt>
      <trkpt lat="44.59907" lon="5.36414">
        <ele>1300</ele>
        <time>2021-09-06T01:11:35+02:00</time>
      </trkpt>
      <trkpt lat="44.59896" lon="5.36429">
        <ele>1300</ele>
        <time>2021-09-06T01:11:40+02:00</time>
      </trkpt>
      <trkpt lat="44.59885" lon="5.36448">
        <ele>1301</ele>
        <time>2021-09-06T01:11:45+02:00</time>
      </trkpt>
      <trkpt lat="44.59875" lon="5.36459">
        <ele>1303</ele>
        <time>2021-09-06T01:11:50+02:00</time>
      </trkpt>
      <trkpt lat="44.59858" lon="5.36458">
        <ele>1304</ele>
        <time>2021-09-06T01:11:55+02:00</time>
      </trkpt>
      <trkpt lat="44.59842" lon="5.36455">
        <ele>1306</ele>
        <time>2021-09-06T01:12:00+02:00</time>
      </trkpt>
      <trkpt lat="44.59827" lon="5.36446">
        <ele>1307</ele>
        <time>2021-09-06T01:12:05+02:00</time>
      </trkpt>
      <trkpt lat="44.59814" lon="5.36439">
        <ele>1308</ele>
        <time>2021-09-06T01:12:10+02:00</time>
      </trkpt>
      <trkpt lat="44.598" lon="5.36442">
        <ele>1309</ele>
        <time>2021-09-06T01:12:15+02:00</time>
      </trkpt>
      <trkpt lat="44.59779" lon="5.36449">
        <ele>1309</ele>
        <time>2021-09-06T01:12:20+02:00</time>
      </trkpt>
      <trkpt lat="44.59757" lon="5.36458">
        <ele>1309</ele>
        <time>2021-09-06T01:12:25+02:00</time>
      </trkpt>
      <trkpt lat="44.59732" lon="5.36478">
        <ele>1309</ele>
        <time>2021-09-06T01:12:30+02:00</time>
      </trkpt>
      <trkpt lat="44.59714" lon="5.36502">
        <ele>1310</ele>
        <time>2021-09-06T01:12:35+02:00</time>
      </trkpt>
      <trkpt lat="44.59708" lon="5.36528">
        <ele>1312</ele>
        <time>2021-09-06T01:12:40+02:00</time>
      </trkpt>
      <trkpt lat="44.59704" lon="5.36544">
        <ele>1313</ele>
        <time>2021-09-06T01:12:45+02:00</time>
      </trkpt>
      <trkpt lat="44.59695" lon="5.36562">
        <ele>1314</ele>
        <time>2021-09-06T01:12:50+02:00</time>
      </trkpt>
      <trkpt lat="44.59676" lon="5.3659">
        <ele>1314</ele>
        <time>2021-09-06T01:12:55+02:00</time>
      </trkpt>
      <trkpt lat="44.59665" lon="5.36605">
        <ele>1314</ele>
        <time>2021-09-06T01:13:00+02:00</time>
      </trkpt>
      <trkpt lat="44.59656" lon="5.36618">
        <ele>1315</ele>
        <time>2021-09-06T01:13:05+02:00</time>
      </trkpt>
      <trkpt lat="44.5965" lon="5.36632">
        <ele>1315</ele>
        <time>2021-09-06T01:13:10+02:00</time>
      </trkpt>
      <trkpt lat="44.5965" lon="5.36647">
        <ele>1316</ele>
        <time>2021-09-06T01:13:15+02:00</time>
      </trkpt>
      <trkpt lat="44.59653" lon="5.36665">
        <ele>1317</ele>
        <time>2021-09-06T01:13:20+02:00</time>
      </trkpt>
      <trkpt lat="44.59652" lon="5.36681">
        <ele>1317</ele>
        <time>2021-09-06T01:13:25+02:00</time>
      </trkpt>
      <trkpt lat="44.59648" lon="5.36699">
        <ele>1317</ele>
        <time>2021-09-06T01:13:30+02:00</time>
      </trkpt>
      <trkpt lat="44.59633" lon="5.36717">
        <ele>1317</ele>
        <time>2021-09-06T01:13:35+02:00</time>
      </trkpt>
      <trkpt lat="44.59617" lon="5.36728">
        <ele>1319</ele>
        <time>2021-09-06T01:13:40+02:00</time>
      </trkpt>
      <trkpt lat="44.59587" lon="5.36756">
        <ele>1320</ele>
        <time>2021-09-06T01:13:45+02:00</time>
      </trkpt>
      <trkpt lat="44.59463" lon="5.36883">
        <ele>1332</ele>
        <time>2021-09-06T01:13:50+02:00</time>
      </trkpt>
      <trkpt lat="44.59448" lon="5.36902">
        <ele>1334</ele>
        <time>2021-09-06T01:13:55+02:00</time>
      </trkpt>
      <trkpt lat="44.59436" lon="5.36904">
        <ele>1334</ele>
        <time>2021-09-06T01:14:00+02:00</time>
      </trkpt>
      <trkpt lat="44.59423" lon="5.36907">
        <ele>1335</ele>
        <time>2021-09-06T01:14:05+02:00</time>
      </trkpt>
      <trkpt lat="44.59409" lon="5.36901">
        <ele>1335</ele>
        <time>2021-09-06T01:14:10+02:00</time>
      </trkpt>
      <trkpt lat="44.59401" lon="5.36898">
        <ele>1335</ele>
        <time>2021-09-06T01:14:15+02:00</time>
      </trkpt>
      <trkpt lat="44.59394" lon="5.36902">
        <ele>1335</ele>
        <time>2021-09-06T01:14:20+02:00</time>
      </trkpt>
      <trkpt lat="44.59388" lon="5.36923">
        <ele>1335</ele>
        <time>2021-09-06T01:14:25+02:00</time>
      </trkpt>
      <trkpt lat="44.59375" lon="5.36987">
        <ele>1332</ele>
        <time>2021-09-06T01:14:30+02:00</time>
      </trkpt>
      <trkpt lat="44.59373" lon="5.37009">
        <ele>1331</ele>
        <time>2021-09-06T01:14:35+02:00</time>
      </trkpt>
      <trkpt lat="44.59371" lon="5.37032">
        <ele>1329</ele>
        <time>2021-09-06T01:14:40+02:00</time>
      </trkpt>
      <trkpt lat="44.59369" lon="5.37045">
        <ele>1328</ele>
        <time>2021-09-06T01:14:45+02:00</time>
      </trkpt>
      <trkpt lat="44.59364" lon="5.37061">
        <ele>1325</ele>
        <time>2021-09-06T01:14:50+02:00</time>
      </trkpt>
      <trkpt lat="44.59352" lon="5.37066">
        <ele>1324</ele>
        <time>2021-09-06T01:14:55+02:00</time>
      </trkpt>
      <trkpt lat="44.59343" lon="5.37067">
        <ele>1324</ele>
        <time>2021-09-06T01:15:00+02:00</time>
      </trkpt>
      <trkpt lat="44.59333" lon="5.37071">
        <ele>1323</ele>
        <time>2021-09-06T01:15:05+02:00</time>
      </trkpt>
      <trkpt lat="44.59326" lon="5.3708">
        <ele>1323</ele>
        <time>2021-09-06T01:15:10+02:00</time>
      </trkpt>
      <trkpt lat="44.59322" lon="5.37091">
        <ele>1322</ele>
        <time>2021-09-06T01:15:15+02:00</time>
      </trkpt>
      <trkpt lat="44.59316" lon="5.371">
        <ele>1322</ele>
        <time>2021-09-06T01:15:20+02:00</time>
      </trkpt>
      <trkpt lat="44.59268" lon="5.37117">
        <ele>1322</ele>
        <time>2021-09-06T01:15:25+02:00</time>
      </trkpt>
      <trkpt lat="44.59244" lon="5.37115">
        <ele>1322</ele>
        <time>2021-09-06T01:15:30+02:00</time>
      </trkpt>
      <trkpt lat="44.59214" lon="5.37112">
        <ele>1322</ele>
        <time>2021-09-06T01:15:35+02:00</time>
      </trkpt>
      <trkpt lat="44.59199" lon="5.37114">
        <ele>1321</ele>
        <time>2021-09-06T01:15:40+02:00</time>
      </trkpt>
      <trkpt lat="44.59173" lon="5.37117">
        <ele>1320</ele>
        <time>2021-09-06T01:15:45+02:00</time>
      </trkpt>
      <trkpt lat="44.59149" lon="5.37113">
        <ele>1320</ele>
        <time>2021-09-06T01:15:50+02:00</time>
      </trkpt>
      <trkpt lat="44.5913" lon="5.3711">
        <ele>1320</ele>
        <time>2021-09-06T01:15:55+02:00</time>
      </trkpt>
      <trkpt lat="44.5911" lon="5.37105">
        <ele>1319</ele>
        <time>2021-09-06T01:16:00+02:00</time>
      </trkpt>
      <trkpt lat="44.5908" lon="5.37098">
        <ele>1314</ele>
        <time>2021-09-06T01:16:05+02:00</time>
      </trkpt>
      <trkpt lat="44.59057" lon="5.37096">
        <ele>1311</ele>
        <time>2021-09-06T01:16:10+02:00</time>
      </trkpt>
      <trkpt lat="44.59026" lon="5.37096">
        <ele>1311</ele>
        <time>2021-09-06T01:16:15+02:00</time>
      </trkpt>
      <trkpt lat="44.58987" lon="5.37094">
        <ele>1310</ele>
        <time>2021-09-06T01:16:20+02:00</time>
      </trkpt>
      <trkpt lat="44.58972" lon="5.3709">
        <ele>1310</ele>
        <time>2021-09-06T01:16:25+02:00</time>
      </trkpt>
      <trkpt lat="44.58954" lon="5.37081">
        <ele>1310</ele>
        <time>2021-09-06T01:16:30+02:00</time>
      </trkpt>
      <trkpt lat="44.5894" lon="5.37074">
        <ele>1312</ele>
        <time>2021-09-06T01:16:35+02:00</time>
      </trkpt>
      <trkpt lat="44.58926" lon="5.37075">
        <ele>1311</ele>
        <time>2021-09-06T01:16:40+02:00</time>
      </trkpt>
      <trkpt lat="44.58912" lon="5.37073">
        <ele>1311</ele>
        <time>2021-09-06T01:16:45+02:00</time>
      </trkpt>
      <trkpt lat="44.58895" lon="5.37065">
        <ele>1310</ele>
        <time>2021-09-06T01:16:50+02:00</time>
      </trkpt>
      <trkpt lat="44.58877" lon="5.3706">
        <ele>1309</ele>
        <time>2021-09-06T01:16:55+02:00</time>
      </trkpt>
      <trkpt lat="44.58861" lon="5.37054">
        <ele>1308</ele>
        <time>2021-09-06T01:17:00+02:00</time>
      </trkpt>
      <trkpt lat="44.58844" lon="5.37053">
        <ele>1306</ele>
        <time>2021-09-06T01:17:05+02:00</time>
      </trkpt>
      <trkpt lat="44.58826" lon="5.37059">
        <ele>1305</ele>
        <time>2021-09-06T01:17:10+02:00</time>
      </trkpt>
      <trkpt lat="44.58818" lon="5.37061">
        <ele>1304</ele>
        <time>2021-09-06T01:17:15+02:00</time>
      </trkpt>
      <trkpt lat="44.58794" lon="5.37052">
        <ele>1302</ele>
        <time>2021-09-06T01:17:20+02:00</time>
      </trkpt>
      <trkpt lat="44.58782" lon="5.37049">
        <ele>1301</ele>
        <time>2021-09-06T01:17:25+02:00</time>
      </trkpt>
      <trkpt lat="44.58764" lon="5.37048">
        <ele>1301</ele>
        <time>2021-09-06T01:17:30+02:00</time>
      </trkpt>
      <trkpt lat="44.58756" lon="5.37042">
        <ele>1300</ele>
        <time>2021-09-06T01:17:35+02:00</time>
      </trkpt>
      <trkpt lat="44.5873" lon="5.3702">
        <ele>1298</ele>
        <time>2021-09-06T01:17:40+02:00</time>
      </trkpt>
      <trkpt lat="44.58705" lon="5.36998">
        <ele>1294</ele>
        <time>2021-09-06T01:17:45+02:00</time>
      </trkpt>
      <trkpt lat="44.58696" lon="5.3699">
        <ele>1293</ele>
        <time>2021-09-06T01:17:50+02:00</time>
      </trkpt>
      <trkpt lat="44.58688" lon="5.36988">
        <ele>1292</ele>
        <time>2021-09-06T01:17:55+02:00</time>
      </trkpt>
      <trkpt lat="44.58678" lon="5.36993">
        <ele>1292</ele>
        <time>2021-09-06T01:18:00+02:00</time>
      </trkpt>
      <trkpt lat="44.58666" lon="5.36999">
        <ele>1291</ele>
        <time>2021-09-06T01:18:05+02:00</time>
      </trkpt>
      <trkpt lat="44.58659" lon="5.36995">
        <ele>1291</ele>
        <time>2021-09-06T01:18:10+02:00</time>
      </trkpt>
      <trkpt lat="44.58652" lon="5.36988">
        <ele>1291</ele>
        <time>2021-09-06T01:18:15+02:00</time>
      </trkpt>
      <trkpt lat="44.58641" lon="5.36964">
        <ele>1290</ele>
        <time>2021-09-06T01:18:20+02:00</time>
      </trkpt>
      <trkpt lat="44.58631" lon="5.36951">
        <ele>1290</ele>
        <time>2021-09-06T01:18:25+02:00</time>
      </trkpt>
      <trkpt lat="44.5862" lon="5.36941">
        <ele>1290</ele>
        <time>2021-09-06T01:18:30+02:00</time>
      </trkpt>
      <trkpt lat="44.58601" lon="5.36915">
        <ele>1289</ele>
        <time>2021-09-06T01:18:35+02:00</time>
      </trkpt>
      <trkpt lat="44.58587" lon="5.36907">
        <ele>1288</ele>
        <time>2021-09-06T01:18:40+02:00</time>
      </trkpt>
      <trkpt lat="44.58573" lon="5.369">
        <ele>1287</ele>
        <time>2021-09-06T01:18:45+02:00</time>
      </trkpt>
      <trkpt lat="44.58565" lon="5.36891">
        <ele>1286</ele>
        <time>2021-09-06T01:18:50+02:00</time>
      </trkpt>
      <trkpt lat="44.58552" lon="5.36877">
        <ele>1284</ele>
        <time>2021-09-06T01:18:55+02:00</time>
      </trkpt>
      <trkpt lat="44.58534" lon="5.36861">
        <ele>1281</ele>
        <time>2021-09-06T01:19:00+02:00</time>
      </trkpt>
      <trkpt lat="44.58517" lon="5.3685">
        <ele>1281</ele>
        <time>2021-09-06T01:19:05+02:00</time>
      </trkpt>
      <trkpt lat="44.58494" lon="5.36837">
        <ele>1280</ele>
        <time>2021-09-06T01:19:10+02:00</time>
      </trkpt>
      <trkpt lat="44.58489" lon="5.36823">
        <ele>1281</ele>
        <time>2021-09-06T01:19:15+02:00</time>
      </trkpt>
      <trkpt lat="44.5848" lon="5.36803">
        <ele>1282</ele>
        <time>2021-09-06T01:19:20+02:00</time>
      </trkpt>
      <trkpt lat="44.58472" lon="5.36797">
        <ele>1282</ele>
        <time>2021-09-06T01:19:25+02:00</time>
      </trkpt>
      <trkpt lat="44.58451" lon="5.36783">
        <ele>1281</ele>
        <time>2021-09-06T01:19:30+02:00</time>
      </trkpt>
      <trkpt lat="44.58437" lon="5.36774">
        <ele>1279</ele>
        <time>2021-09-06T01:19:35+02:00</time>
      </trkpt>
      <trkpt lat="44.58421" lon="5.36763">
        <ele>1277</ele>
        <time>2021-09-06T01:19:40+02:00</time>
      </trkpt>
      <trkpt lat="44.58397" lon="5.36748">
        <ele>1275</ele>
        <time>2021-09-06T01:19:45+02:00</time>
      </trkpt>
      <trkpt lat="44.58383" lon="5.36737">
        <ele>1274</ele>
        <time>2021-09-06T01:19:50+02:00</time>
      </trkpt>
      <trkpt lat="44.58371" lon="5.36711">
        <ele>1274</ele>
        <time>2021-09-06T01:19:55+02:00</time>
      </trkpt>
      <trkpt lat="44.58358" lon="5.36685">
        <ele>1273</ele>
        <time>2021-09-06T01:20:00+02:00</time>
      </trkpt>
      <trkpt lat="44.58353" lon="5.36667">
        <ele>1273</ele>
        <time>2021-09-06T01:20:05+02:00</time>
      </trkpt>
      <trkpt lat="44.58343" lon="5.36649">
        <ele>1271</ele>
        <time>2021-09-06T01:20:10+02:00</time>
      </trkpt>
      <trkpt lat="44.58331" lon="5.36638">
        <ele>1269</ele>
        <time>2021-09-06T01:20:15+02:00</time>
      </trkpt>
      <trkpt lat="44.58319" lon="5.36627">
        <ele>1267</ele>
        <time>2021-09-06T01:20:20+02:00</time>
      </trkpt>
      <trkpt lat="44.58304" lon="5.36622">
        <ele>1263</ele>
        <time>2021-09-06T01:20:25+02:00</time>
      </trkpt>
      <trkpt lat="44.58291" lon="5.36604">
        <ele>1262</ele>
        <time>2021-09-06T01:20:30+02:00</time>
      </trkpt>
      <trkpt lat="44.58278" lon="5.36583">
        <ele>1261</ele>
        <time>2021-09-06T01:20:35+02:00</time>
      </trkpt>
      <trkpt lat="44.58269" lon="5.36561">
        <ele>1260</ele>
        <time>2021-09-06T01:20:40+02:00</time>
      </trkpt>
      <trkpt lat="44.58264" lon="5.36538">
        <ele>1261</ele>
        <time>2021-09-06T01:20:45+02:00</time>
      </trkpt>
      <trkpt lat="44.58256" lon="5.36517">
        <ele>1260</ele>
        <time>2021-09-06T01:20:50+02:00</time>
      </trkpt>
      <trkpt lat="44.58249" lon="5.36502">
        <ele>1259</ele>
        <time>2021-09-06T01:20:55+02:00</time>
      </trkpt>
      <trkpt lat="44.58242" lon="5.36476">
        <ele>1258</ele>
        <time>2021-09-06T01:21:00+02:00</time>
      </trkpt>
      <trkpt lat="44.58231" lon="5.36469">
        <ele>1257</ele>
        <time>2021-09-06T01:21:05+02:00</time>
      </trkpt>
      <trkpt lat="44.58217" lon="5.36461">
        <ele>1257</ele>
        <time>2021-09-06T01:21:10+02:00</time>
      </trkpt>
      <trkpt lat="44.58204" lon="5.36448">
        <ele>1258</ele>
        <time>2021-09-06T01:21:15+02:00</time>
      </trkpt>
      <trkpt lat="44.58192" lon="5.36435">
        <ele>1258</ele>
        <time>2021-09-06T01:21:20+02:00</time>
      </trkpt>
      <trkpt lat="44.58184" lon="5.36427">
        <ele>1258</ele>
        <time>2021-09-06T01:21:25+02:00</time>
      </trkpt>
      <trkpt lat="44.58178" lon="5.36403">
        <ele>1260</ele>
        <time>2021-09-06T01:21:30+02:00</time>
      </trkpt>
      <trkpt lat="44.58173" lon="5.36385">
        <ele>1262</ele>
        <time>2021-09-06T01:21:35+02:00</time>
      </trkpt>
      <trkpt lat="44.58158" lon="5.36372">
        <ele>1261</ele>
        <time>2021-09-06T01:21:40+02:00</time>
      </trkpt>
      <trkpt lat="44.58142" lon="5.36366">
        <ele>1260</ele>
        <time>2021-09-06T01:21:45+02:00</time>
      </trkpt>
      <trkpt lat="44.58128" lon="5.36356">
        <ele>1261</ele>
        <time>2021-09-06T01:21:50+02:00</time>
      </trkpt>
      <trkpt lat="44.58109" lon="5.36339">
        <ele>1264</ele>
        <time>2021-09-06T01:21:55+02:00</time>
      </trkpt>
      <trkpt lat="44.5809" lon="5.36327">
        <ele>1266</ele>
        <time>2021-09-06T01:22:00+02:00</time>
      </trkpt>
      <trkpt lat="44.58073" lon="5.36316">
        <ele>1267</ele>
        <time>2021-09-06T01:22:05+02:00</time>
      </trkpt>
      <trkpt lat="44.58055" lon="5.36305">
        <ele>1269</ele>
        <time>2021-09-06T01:22:10+02:00</time>
      </trkpt>
      <trkpt lat="44.58032" lon="5.36298">
        <ele>1271</ele>
        <time>2021-09-06T01:22:15+02:00</time>
      </trkpt>
      <trkpt lat="44.57998" lon="5.36293">
        <ele>1272</ele>
        <time>2021-09-06T01:22:20+02:00</time>
      </trkpt>
      <trkpt lat="44.57976" lon="5.36291">
        <ele>1273</ele>
        <time>2021-09-06T01:22:25+02:00</time>
      </trkpt>
      <trkpt lat="44.57956" lon="5.36286">
        <ele>1275</ele>
        <time>2021-09-06T01:22:30+02:00</time>
      </trkpt>
      <trkpt lat="44.57945" lon="5.36286">
        <ele>1275</ele>
        <time>2021-09-06T01:22:35+02:00</time>
      </trkpt>
      <trkpt lat="44.57913" lon="5.36266">
        <ele>1280</ele>
        <time>2021-09-06T01:22:40+02:00</time>
      </trkpt>
      <trkpt lat="44.57895" lon="5.36259">
        <ele>1282</ele>
        <time>2021-09-06T01:22:45+02:00</time>
      </trkpt>
      <trkpt lat="44.5786" lon="5.36248">
        <ele>1284</ele>
        <time>2021-09-06T01:22:50+02:00</time>
      </trkpt>
      <trkpt lat="44.57831" lon="5.36234">
        <ele>1286</ele>
        <time>2021-09-06T01:22:55+02:00</time>
      </trkpt>
      <trkpt lat="44.57801" lon="5.36206">
        <ele>1287</ele>
        <time>2021-09-06T01:23:00+02:00</time>
      </trkpt>
      <trkpt lat="44.57779" lon="5.36171">
        <ele>1289</ele>
        <time>2021-09-06T01:23:05+02:00</time>
      </trkpt>
      <trkpt lat="44.57758" lon="5.36135">
        <ele>1288</ele>
        <time>2021-09-06T01:23:10+02:00</time>
      </trkpt>
      <trkpt lat="44.57739" lon="5.36092">
        <ele>1284</ele>
        <time>2021-09-06T01:23:15+02:00</time>
      </trkpt>
      <trkpt lat="44.57723" lon="5.36055">
        <ele>1280</ele>
        <time>2021-09-06T01:23:20+02:00</time>
      </trkpt>
      <trkpt lat="44.57716" lon="5.35926">
        <ele>1267</ele>
        <time>2021-09-06T01:23:25+02:00</time>
      </trkpt>
      <trkpt lat="44.57732" lon="5.35867">
        <ele>1264</ele>
        <time>2021-09-06T01:23:30+02:00</time>
      </trkpt>
      <trkpt lat="44.57742" lon="5.35835">
        <ele>1260</ele>
        <time>2021-09-06T01:23:35+02:00</time>
      </trkpt>
      <trkpt lat="44.57734" lon="5.35822">
        <ele>1257</ele>
        <time>2021-09-06T01:23:40+02:00</time>
      </trkpt>
      <trkpt lat="44.5771" lon="5.3582">
        <ele>1256</ele>
        <time>2021-09-06T01:23:45+02:00</time>
      </trkpt>
      <trkpt lat="44.57675" lon="5.35797">
        <ele>1251</ele>
        <time>2021-09-06T01:23:50+02:00</time>
      </trkpt>
      <trkpt lat="44.57648" lon="5.35777">
        <ele>1250</ele>
        <time>2021-09-06T01:23:55+02:00</time>
      </trkpt>
      <trkpt lat="44.57629" lon="5.35753">
        <ele>1245</ele>
        <time>2021-09-06T01:24:00+02:00</time>
      </trkpt>
      <trkpt lat="44.57586" lon="5.3572">
        <ele>1239</ele>
        <time>2021-09-06T01:24:05+02:00</time>
      </trkpt>
      <trkpt lat="44.57541" lon="5.35702">
        <ele>1233</ele>
        <time>2021-09-06T01:24:10+02:00</time>
      </trkpt>
      <trkpt lat="44.57499" lon="5.35684">
        <ele>1230</ele>
        <time>2021-09-06T01:24:15+02:00</time>
      </trkpt>
      <trkpt lat="44.57477" lon="5.35673">
        <ele>1230</ele>
        <time>2021-09-06T01:24:20+02:00</time>
      </trkpt>
      <trkpt lat="44.57469" lon="5.35659">
        <ele>1229</ele>
        <time>2021-09-06T01:24:25+02:00</time>
      </trkpt>
      <trkpt lat="44.57449" lon="5.35654">
        <ele>1227</ele>
        <time>2021-09-06T01:24:30+02:00</time>
      </trkpt>
      <trkpt lat="44.57429" lon="5.35664">
        <ele>1227</ele>
        <time>2021-09-06T01:24:35+02:00</time>
      </trkpt>
      <trkpt lat="44.5741" lon="5.35667">
        <ele>1225</ele>
        <time>2021-09-06T01:24:40+02:00</time>
      </trkpt>
      <trkpt lat="44.57373" lon="5.35658">
        <ele>1220</ele>
        <time>2021-09-06T01:24:45+02:00</time>
      </trkpt>
      <trkpt lat="44.57353" lon="5.35649">
        <ele>1217</ele>
        <time>2021-09-06T01:24:50+02:00</time>
      </trkpt>
      <trkpt lat="44.57349" lon="5.35631">
        <ele>1215</ele>
        <time>2021-09-06T01:24:55+02:00</time>
      </trkpt>
      <trkpt lat="44.57356" lon="5.35602">
        <ele>1211</ele>
        <time>2021-09-06T01:25:00+02:00</time>
      </trkpt>
      <trkpt lat="44.57369" lon="5.3557">
        <ele>1207</ele>
        <time>2021-09-06T01:25:05+02:00</time>
      </trkpt>
      <trkpt lat="44.57388" lon="5.35543">
        <ele>1204</ele>
        <time>2021-09-06T01:25:10+02:00</time>
      </trkpt>
      <trkpt lat="44.57403" lon="5.35523">
        <ele>1201</ele>
        <time>2021-09-06T01:25:15+02:00</time>
      </trkpt>
      <trkpt lat="44.57427" lon="5.35512">
        <ele>1200</ele>
        <time>2021-09-06T01:25:20+02:00</time>
      </trkpt>
      <trkpt lat="44.57432" lon="5.355">
        <ele>1197</ele>
        <time>2021-09-06T01:25:25+02:00</time>
      </trkpt>
      <trkpt lat="44.57399" lon="5.35487">
        <ele>1194</ele>
        <time>2021-09-06T01:25:30+02:00</time>
      </trkpt>
      <trkpt lat="44.57359" lon="5.35475">
        <ele>1188</ele>
        <time>2021-09-06T01:25:35+02:00</time>
      </trkpt>
      <trkpt lat="44.57335" lon="5.35469">
        <ele>1185</ele>
        <time>2021-09-06T01:25:40+02:00</time>
      </trkpt>
      <trkpt lat="44.57305" lon="5.35472">
        <ele>1181</ele>
        <time>2021-09-06T01:25:45+02:00</time>
      </trkpt>
      <trkpt lat="44.57267" lon="5.35463">
        <ele>1171</ele>
        <time>2021-09-06T01:25:50+02:00</time>
      </trkpt>
      <trkpt lat="44.57226" lon="5.35452">
        <ele>1165</ele>
        <time>2021-09-06T01:25:55+02:00</time>
      </trkpt>
      <trkpt lat="44.57205" lon="5.35429">
        <ele>1160</ele>
        <time>2021-09-06T01:26:00+02:00</time>
      </trkpt>
      <trkpt lat="44.5718" lon="5.35401">
        <ele>1156</ele>
        <time>2021-09-06T01:26:05+02:00</time>
      </trkpt>
      <trkpt lat="44.57162" lon="5.35358">
        <ele>1152</ele>
        <time>2021-09-06T01:26:10+02:00</time>
      </trkpt>
      <trkpt lat="44.57139" lon="5.35337">
        <ele>1150</ele>
        <time>2021-09-06T01:26:15+02:00</time>
      </trkpt>
      <trkpt lat="44.57108" lon="5.3533">
        <ele>1147</ele>
        <time>2021-09-06T01:26:20+02:00</time>
      </trkpt>
      <trkpt lat="44.5708" lon="5.35325">
        <ele>1141</ele>
        <time>2021-09-06T01:26:25+02:00</time>
      </trkpt>
      <trkpt lat="44.57037" lon="5.35326">
        <ele>1134</ele>
        <time>2021-09-06T01:26:30+02:00</time>
      </trkpt>
      <trkpt lat="44.57013" lon="5.35317">
        <ele>1130</ele>
        <time>2021-09-06T01:26:35+02:00</time>
      </trkpt>
      <trkpt lat="44.56988" lon="5.35313">
        <ele>1125</ele>
        <time>2021-09-06T01:26:40+02:00</time>
      </trkpt>
      <trkpt lat="44.56958" lon="5.35329">
        <ele>1124</ele>
        <time>2021-09-06T01:26:45+02:00</time>
      </trkpt>
      <trkpt lat="44.5694" lon="5.35343">
        <ele>1124</ele>
        <time>2021-09-06T01:26:50+02:00</time>
      </trkpt>
      <trkpt lat="44.56899" lon="5.35373">
        <ele>1123</ele>
        <time>2021-09-06T01:26:55+02:00</time>
      </trkpt>
      <trkpt lat="44.56876" lon="5.35391">
        <ele>1122</ele>
        <time>2021-09-06T01:27:00+02:00</time>
      </trkpt>
      <trkpt lat="44.56843" lon="5.35407">
        <ele>1118</ele>
        <time>2021-09-06T01:27:05+02:00</time>
      </trkpt>
      <trkpt lat="44.56798" lon="5.3541">
        <ele>1110</ele>
        <time>2021-09-06T01:27:10+02:00</time>
      </trkpt>
      <trkpt lat="44.56714" lon="5.35391">
        <ele>1096</ele>
        <time>2021-09-06T01:27:15+02:00</time>
      </trkpt>
      <trkpt lat="44.56679" lon="5.35382">
        <ele>1090</ele>
        <time>2021-09-06T01:27:20+02:00</time>
      </trkpt>
      <trkpt lat="44.56624" lon="5.35374">
        <ele>1083</ele>
        <time>2021-09-06T01:27:25+02:00</time>
      </trkpt>
      <trkpt lat="44.56586" lon="5.35358">
        <ele>1077</ele>
        <time>2021-09-06T01:27:30+02:00</time>
      </trkpt>
      <trkpt lat="44.5654" lon="5.35353">
        <ele>1071</ele>
        <time>2021-09-06T01:27:35+02:00</time>
      </trkpt>
      <trkpt lat="44.565" lon="5.35342">
        <ele>1064</ele>
        <time>2021-09-06T01:27:40+02:00</time>
      </trkpt>
      <trkpt lat="44.56475" lon="5.3533">
        <ele>1059</ele>
        <time>2021-09-06T01:27:45+02:00</time>
      </trkpt>
      <trkpt lat="44.56444" lon="5.35335">
        <ele>1058</ele>
        <time>2021-09-06T01:27:50+02:00</time>
      </trkpt>
      <trkpt lat="44.56416" lon="5.35342">
        <ele>1056</ele>
        <time>2021-09-06T01:27:55+02:00</time>
      </trkpt>
      <trkpt lat="44.56396" lon="5.35352">
        <ele>1055</ele>
        <time>2021-09-06T01:28:00+02:00</time>
      </trkpt>
      <trkpt lat="44.56325" lon="5.35355">
        <ele>1044</ele>
        <time>2021-09-06T01:28:05+02:00</time>
      </trkpt>
      <trkpt lat="44.56283" lon="5.35363">
        <ele>1039</ele>
        <time>2021-09-06T01:28:10+02:00</time>
      </trkpt>
      <trkpt lat="44.56237" lon="5.35369">
        <ele>1035</ele>
        <time>2021-09-06T01:28:15+02:00</time>
      </trkpt>
      <trkpt lat="44.56218" lon="5.3538">
        <ele>1035</ele>
        <time>2021-09-06T01:28:20+02:00</time>
      </trkpt>
      <trkpt lat="44.56177" lon="5.35403">
        <ele>1031</ele>
        <time>2021-09-06T01:28:25+02:00</time>
      </trkpt>
      <trkpt lat="44.5615" lon="5.3542">
        <ele>1028</ele>
        <time>2021-09-06T01:28:30+02:00</time>
      </trkpt>
      <trkpt lat="44.56126" lon="5.35447">
        <ele>1026</ele>
        <time>2021-09-06T01:28:35+02:00</time>
      </trkpt>
      <trkpt lat="44.56114" lon="5.35467">
        <ele>1025</ele>
        <time>2021-09-06T01:28:40+02:00</time>
      </trkpt>
      <trkpt lat="44.56105" lon="5.35494">
        <ele>1022</ele>
        <time>2021-09-06T01:28:45+02:00</time>
      </trkpt>
      <trkpt lat="44.56095" lon="5.35484">
        <ele>1020</ele>
        <time>2021-09-06T01:28:50+02:00</time>
      </trkpt>
      <trkpt lat="44.56088" lon="5.35458">
        <ele>1019</ele>
        <time>2021-09-06T01:28:55+02:00</time>
      </trkpt>
      <trkpt lat="44.56078" lon="5.3543">
        <ele>1016</ele>
        <time>2021-09-06T01:29:00+02:00</time>
      </trkpt>
      <trkpt lat="44.56073" lon="5.35407">
        <ele>1013</ele>
        <time>2021-09-06T01:29:05+02:00</time>
      </trkpt>
      <trkpt lat="44.56086" lon="5.35345">
        <ele>1007</ele>
        <time>2021-09-06T01:29:10+02:00</time>
      </trkpt>
      <trkpt lat="44.56094" lon="5.35299">
        <ele>1001</ele>
        <time>2021-09-06T01:29:15+02:00</time>
      </trkpt>
      <trkpt lat="44.56098" lon="5.3526">
        <ele>996</ele>
        <time>2021-09-06T01:29:20+02:00</time>
      </trkpt>
      <trkpt lat="44.56104" lon="5.35245">
        <ele>995</ele>
        <time>2021-09-06T01:29:25+02:00</time>
      </trkpt>
      <trkpt lat="44.56114" lon="5.35234">
        <ele>993</ele>
        <time>2021-09-06T01:29:30+02:00</time>
      </trkpt>
      <trkpt lat="44.56121" lon="5.35223">
        <ele>992</ele>
        <time>2021-09-06T01:29:35+02:00</time>
      </trkpt>
      <trkpt lat="44.56129" lon="5.35208">
        <ele>990</ele>
        <time>2021-09-06T01:29:40+02:00</time>
      </trkpt>
      <trkpt lat="44.56143" lon="5.35194">
        <ele>988</ele>
        <time>2021-09-06T01:29:45+02:00</time>
      </trkpt>
      <trkpt lat="44.56157" lon="5.35182">
        <ele>985</ele>
        <time>2021-09-06T01:29:50+02:00</time>
      </trkpt>
      <trkpt lat="44.56174" lon="5.35181">
        <ele>986</ele>
        <time>2021-09-06T01:29:55+02:00</time>
      </trkpt>
      <trkpt lat="44.56182" lon="5.35178">
        <ele>985</ele>
        <time>2021-09-06T01:30:00+02:00</time>
      </trkpt>
      <trkpt lat="44.56185" lon="5.35168">
        <ele>982</ele>
        <time>2021-09-06T01:30:05+02:00</time>
      </trkpt>
      <trkpt lat="44.56174" lon="5.35161">
        <ele>979</ele>
        <time>2021-09-06T01:30:10+02:00</time>
      </trkpt>
      <trkpt lat="44.56158" lon="5.3516">
        <ele>978</ele>
        <time>2021-09-06T01:30:15+02:00</time>
      </trkpt>
      <trkpt lat="44.56141" lon="5.35154">
        <ele>976</ele>
        <time>2021-09-06T01:30:20+02:00</time>
      </trkpt>
      <trkpt lat="44.56132" lon="5.35148">
        <ele>974</ele>
        <time>2021-09-06T01:30:25+02:00</time>
      </trkpt>
      <trkpt lat="44.56121" lon="5.35137">
        <ele>971</ele>
        <time>2021-09-06T01:30:30+02:00</time>
      </trkpt>
      <trkpt lat="44.56112" lon="5.35127">
        <ele>969</ele>
        <time>2021-09-06T01:30:35+02:00</time>
      </trkpt>
      <trkpt lat="44.56099" lon="5.35124">
        <ele>970</ele>
        <time>2021-09-06T01:30:40+02:00</time>
      </trkpt>
      <trkpt lat="44.56091" lon="5.35115">
        <ele>969</ele>
        <time>2021-09-06T01:30:45+02:00</time>
      </trkpt>
      <trkpt lat="44.56081" lon="5.35108">
        <ele>969</ele>
        <time>2021-09-06T01:30:50+02:00</time>
      </trkpt>
      <trkpt lat="44.56067" lon="5.35108">
        <ele>968</ele>
        <time>2021-09-06T01:30:55+02:00</time>
      </trkpt>
      <trkpt lat="44.56043" lon="5.35113">
        <ele>966</ele>
        <time>2021-09-06T01:31:00+02:00</time>
      </trkpt>
      <trkpt lat="44.56028" lon="5.3512">
        <ele>965</ele>
        <time>2021-09-06T01:31:05+02:00</time>
      </trkpt>
      <trkpt lat="44.56007" lon="5.35133">
        <ele>963</ele>
        <time>2021-09-06T01:31:10+02:00</time>
      </trkpt>
      <trkpt lat="44.5598" lon="5.35151">
        <ele>960</ele>
        <time>2021-09-06T01:31:15+02:00</time>
      </trkpt>
      <trkpt lat="44.55966" lon="5.35158">
        <ele>959</ele>
        <time>2021-09-06T01:31:20+02:00</time>
      </trkpt>
      <trkpt lat="44.55939" lon="5.35162">
        <ele>955</ele>
        <time>2021-09-06T01:31:25+02:00</time>
      </trkpt>
      <trkpt lat="44.55929" lon="5.35164">
        <ele>954</ele>
        <time>2021-09-06T01:31:30+02:00</time>
      </trkpt>
      <trkpt lat="44.5591" lon="5.35176">
        <ele>952</ele>
        <time>2021-09-06T01:31:35+02:00</time>
      </trkpt>
      <trkpt lat="44.55889" lon="5.35181">
        <ele>948</ele>
        <time>2021-09-06T01:31:40+02:00</time>
      </trkpt>
      <trkpt lat="44.55871" lon="5.35183">
        <ele>944</ele>
        <time>2021-09-06T01:31:45+02:00</time>
      </trkpt>
      <trkpt lat="44.55856" lon="5.35188">
        <ele>942</ele>
        <time>2021-09-06T01:31:50+02:00</time>
      </trkpt>
      <trkpt lat="44.55841" lon="5.35199">
        <ele>942</ele>
        <time>2021-09-06T01:31:55+02:00</time>
      </trkpt>
      <trkpt lat="44.5583" lon="5.35208">
        <ele>941</ele>
        <time>2021-09-06T01:32:00+02:00</time>
      </trkpt>
      <trkpt lat="44.55814" lon="5.35216">
        <ele>940</ele>
        <time>2021-09-06T01:32:05+02:00</time>
      </trkpt>
      <trkpt lat="44.55786" lon="5.35227">
        <ele>936</ele>
        <time>2021-09-06T01:32:10+02:00</time>
      </trkpt>
      <trkpt lat="44.55769" lon="5.35234">
        <ele>934</ele>
        <time>2021-09-06T01:32:15+02:00</time>
      </trkpt>
      <trkpt lat="44.55759" lon="5.3524">
        <ele>932</ele>
        <time>2021-09-06T01:32:20+02:00</time>
      </trkpt>
      <trkpt lat="44.55751" lon="5.35236">
        <ele>931</ele>
        <time>2021-09-06T01:32:25+02:00</time>
      </trkpt>
      <trkpt lat="44.55745" lon="5.35223">
        <ele>929</ele>
        <time>2021-09-06T01:32:30+02:00</time>
      </trkpt>
      <trkpt lat="44.55741" lon="5.35198">
        <ele>927</ele>
        <time>2021-09-06T01:32:35+02:00</time>
      </trkpt>
      <trkpt lat="44.55736" lon="5.35181">
        <ele>925</ele>
        <time>2021-09-06T01:32:40+02:00</time>
      </trkpt>
      <trkpt lat="44.55733" lon="5.35168">
        <ele>923</ele>
        <time>2021-09-06T01:32:45+02:00</time>
      </trkpt>
      <trkpt lat="44.55742" lon="5.35141">
        <ele>921</ele>
        <time>2021-09-06T01:32:50+02:00</time>
      </trkpt>
      <trkpt lat="44.55751" lon="5.3512">
        <ele>918</ele>
        <time>2021-09-06T01:32:55+02:00</time>
      </trkpt>
      <trkpt lat="44.55763" lon="5.35108">
        <ele>916</ele>
        <time>2021-09-06T01:33:00+02:00</time>
      </trkpt>
      <trkpt lat="44.55776" lon="5.35095">
        <ele>915</ele>
        <time>2021-09-06T01:33:05+02:00</time>
      </trkpt>
      <trkpt lat="44.55778" lon="5.35084">
        <ele>913</ele>
        <time>2021-09-06T01:33:10+02:00</time>
      </trkpt>
      <trkpt lat="44.55768" lon="5.35074">
        <ele>911</ele>
        <time>2021-09-06T01:33:15+02:00</time>
      </trkpt>
      <trkpt lat="44.55752" lon="5.35062">
        <ele>907</ele>
        <time>2021-09-06T01:33:20+02:00</time>
      </trkpt>
      <trkpt lat="44.55742" lon="5.35044">
        <ele>904</ele>
        <time>2021-09-06T01:33:25+02:00</time>
      </trkpt>
      <trkpt lat="44.55731" lon="5.35023">
        <ele>900</ele>
        <time>2021-09-06T01:33:30+02:00</time>
      </trkpt>
      <trkpt lat="44.5572" lon="5.34997">
        <ele>898</ele>
        <time>2021-09-06T01:33:35+02:00</time>
      </trkpt>
      <trkpt lat="44.5571" lon="5.34979">
        <ele>896</ele>
        <time>2021-09-06T01:33:40+02:00</time>
      </trkpt>
      <trkpt lat="44.55699" lon="5.34964">
        <ele>895</ele>
        <time>2021-09-06T01:33:45+02:00</time>
      </trkpt>
      <trkpt lat="44.55685" lon="5.34947">
        <ele>894</ele>
        <time>2021-09-06T01:33:50+02:00</time>
      </trkpt>
      <trkpt lat="44.55672" lon="5.34939">
        <ele>893</ele>
        <time>2021-09-06T01:33:55+02:00</time>
      </trkpt>
      <trkpt lat="44.55656" lon="5.34928">
        <ele>891</ele>
        <time>2021-09-06T01:34:00+02:00</time>
      </trkpt>
      <trkpt lat="44.55646" lon="5.34912">
        <ele>889</ele>
        <time>2021-09-06T01:34:05+02:00</time>
      </trkpt>
      <trkpt lat="44.55642" lon="5.34896">
        <ele>888</ele>
        <time>2021-09-06T01:34:10+02:00</time>
      </trkpt>
      <trkpt lat="44.55655" lon="5.34893">
        <ele>888</ele>
        <time>2021-09-06T01:34:15+02:00</time>
      </trkpt>
      <trkpt lat="44.5568" lon="5.34877">
        <ele>888</ele>
        <time>2021-09-06T01:34:20+02:00</time>
      </trkpt>
      <trkpt lat="44.55709" lon="5.34853">
        <ele>887</ele>
        <time>2021-09-06T01:34:25+02:00</time>
      </trkpt>
      <trkpt lat="44.55732" lon="5.34837">
        <ele>885</ele>
        <time>2021-09-06T01:34:30+02:00</time>
      </trkpt>
      <trkpt lat="44.5575" lon="5.34812">
        <ele>883</ele>
        <time>2021-09-06T01:34:35+02:00</time>
      </trkpt>
      <trkpt lat="44.55762" lon="5.34785">
        <ele>881</ele>
        <time>2021-09-06T01:34:40+02:00</time>
      </trkpt>
      <trkpt lat="44.55801" lon="5.34721">
        <ele>875</ele>
        <time>2021-09-06T01:34:45+02:00</time>
      </trkpt>
      <trkpt lat="44.55828" lon="5.34674">
        <ele>872</ele>
        <time>2021-09-06T01:34:50+02:00</time>
      </trkpt>
      <trkpt lat="44.55852" lon="5.34638">
        <ele>869</ele>
        <time>2021-09-06T01:34:55+02:00</time>
      </trkpt>
      <trkpt lat="44.5587" lon="5.34599">
        <ele>865</ele>
        <time>2021-09-06T01:35:00+02:00</time>
      </trkpt>
      <trkpt lat="44.55876" lon="5.3458">
        <ele>863</ele>
        <time>2021-09-06T01:35:05+02:00</time>
      </trkpt>
      <trkpt lat="44.55887" lon="5.34564">
        <ele>862</ele>
        <time>2021-09-06T01:35:10+02:00</time>
      </trkpt>
      <trkpt lat="44.55895" lon="5.34548">
        <ele>861</ele>
        <time>2021-09-06T01:35:15+02:00</time>
      </trkpt>
      <trkpt lat="44.55899" lon="5.34535">
        <ele>861</ele>
        <time>2021-09-06T01:35:20+02:00</time>
      </trkpt>
      <trkpt lat="44.55904" lon="5.34522">
        <ele>861</ele>
        <time>2021-09-06T01:35:25+02:00</time>
      </trkpt>
      <trkpt lat="44.55907" lon="5.34511">
        <ele>860</ele>
        <time>2021-09-06T01:35:30+02:00</time>
      </trkpt>
      <trkpt lat="44.55914" lon="5.34505">
        <ele>860</ele>
        <time>2021-09-06T01:35:35+02:00</time>
      </trkpt>
      <trkpt lat="44.55921" lon="5.345">
        <ele>860</ele>
        <time>2021-09-06T01:35:40+02:00</time>
      </trkpt>
      <trkpt lat="44.55932" lon="5.34488">
        <ele>860</ele>
        <time>2021-09-06T01:35:45+02:00</time>
      </trkpt>
      <trkpt lat="44.55945" lon="5.34476">
        <ele>860</ele>
        <time>2021-09-06T01:35:50+02:00</time>
      </trkpt>
      <trkpt lat="44.55959" lon="5.34463">
        <ele>860</ele>
        <time>2021-09-06T01:35:55+02:00</time>
      </trkpt>
      <trkpt lat="44.55968" lon="5.34455">
        <ele>860</ele>
        <time>2021-09-06T01:36:00+02:00</time>
      </trkpt>
      <trkpt lat="44.55976" lon="5.34447">
        <ele>860</ele>
        <time>2021-09-06T01:36:05+02:00</time>
      </trkpt>
      <trkpt lat="44.55982" lon="5.34444">
        <ele>860</ele>
        <time>2021-09-06T01:36:10+02:00</time>
      </trkpt>
      <trkpt lat="44.55987" lon="5.34445">
        <ele>860</ele>
        <time>2021-09-06T01:36:15+02:00</time>
      </trkpt>
      <trkpt lat="44.55993" lon="5.3444">
        <ele>860</ele>
        <time>2021-09-06T01:36:20+02:00</time>
      </trkpt>
      <trkpt lat="44.55999" lon="5.34439">
        <ele>860</ele>
        <time>2021-09-06T01:36:25+02:00</time>
      </trkpt>
      <trkpt lat="44.62685" lon="5.2013">
        <ele>1052</ele>
        <time>2021-09-06T01:36:30+02:00</time>
      </trkpt>
      <trkpt lat="44.62685" lon="5.2013">
        <ele>1052</ele>
        <time>2021-09-06T01:36:35+02:00</time>
      </trkpt>
      <trkpt lat="44.62689" lon="5.20146">
        <ele>1050</ele>
        <time>2021-09-06T01:36:40+02:00</time>
      </trkpt>
      <trkpt lat="44.62702" lon="5.20159">
        <ele>1050</ele>
        <time>2021-09-06T01:36:45+02:00</time>
      </trkpt>
      <trkpt lat="44.62715" lon="5.20173">
        <ele>1047</ele>
        <time>2021-09-06T01:36:50+02:00</time>
      </trkpt>
      <trkpt lat="44.62724" lon="5.2018">
        <ele>1046</ele>
        <time>2021-09-06T01:36:55+02:00</time>
      </trkpt>
      <trkpt lat="44.62754" lon="5.20192">
        <ele>1047</ele>
        <time>2021-09-06T01:37:00+02:00</time>
      </trkpt>
      <trkpt lat="44.62767" lon="5.20198">
        <ele>1049</ele>
        <time>2021-09-06T01:37:05+02:00</time>
      </trkpt>
      <trkpt lat="44.62792" lon="5.20226">
        <ele>1049</ele>
        <time>2021-09-06T01:37:10+02:00</time>
      </trkpt>
      <trkpt lat="44.6284" lon="5.20294">
        <ele>1048</ele>
        <time>2021-09-06T01:37:15+02:00</time>
      </trkpt>
      <trkpt lat="44.62856" lon="5.20328">
        <ele>1044</ele>
        <time>2021-09-06T01:37:20+02:00</time>
      </trkpt>
      <trkpt lat="44.62899" lon="5.20385">
        <ele>1042</ele>
        <time>2021-09-06T01:37:25+02:00</time>
      </trkpt>
      <trkpt lat="44.62918" lon="5.20413">
        <ele>1038</ele>
        <time>2021-09-06T01:37:30+02:00</time>
      </trkpt>
      <trkpt lat="44.62921" lon="5.20439">
        <ele>1033</ele>
        <time>2021-09-06T01:37:35+02:00</time>
      </trkpt>
      <trkpt lat="44.62921" lon="5.20463">
        <ele>1029</ele>
        <time>2021-09-06T01:37:40+02:00</time>
      </trkpt>
      <trkpt lat="44.62928" lon="5.20486">
        <ele>1026</ele>
        <time>2021-09-06T01:37:45+02:00</time>
      </trkpt>
      <trkpt lat="44.62941" lon="5.20499">
        <ele>1026</ele>
        <time>2021-09-06T01:37:50+02:00</time>
      </trkpt>
      <trkpt lat="44.62972" lon="5.20527">
        <ele>1028</ele>
        <time>2021-09-06T01:37:55+02:00</time>
      </trkpt>
      <trkpt lat="44.6299" lon="5.2055">
        <ele>1027</ele>
        <time>2021-09-06T01:38:00+02:00</time>
      </trkpt>
      <trkpt lat="44.63" lon="5.20579">
        <ele>1024</ele>
        <time>2021-09-06T01:38:05+02:00</time>
      </trkpt>
      <trkpt lat="44.63013" lon="5.20601">
        <ele>1023</ele>
        <time>2021-09-06T01:38:10+02:00</time>
      </trkpt>
      <trkpt lat="44.63025" lon="5.2062">
        <ele>1024</ele>
        <time>2021-09-06T01:38:15+02:00</time>
      </trkpt>
      <trkpt lat="44.63031" lon="5.20634">
        <ele>1025</ele>
        <time>2021-09-06T01:38:20+02:00</time>
      </trkpt>
      <trkpt lat="44.63031" lon="5.20653">
        <ele>1023</ele>
        <time>2021-09-06T01:38:25+02:00</time>
      </trkpt>
      <trkpt lat="44.63026" lon="5.20687">
        <ele>1016</ele>
        <time>2021-09-06T01:38:30+02:00</time>
      </trkpt>
      <trkpt lat="44.63029" lon="5.20709">
        <ele>1014</ele>
        <time>2021-09-06T01:38:35+02:00</time>
      </trkpt>
      <trkpt lat="44.63033" lon="5.20739">
        <ele>1010</ele>
        <time>2021-09-06T01:38:40+02:00</time>
      </trkpt>
      <trkpt lat="44.63041" lon="5.20768">
        <ele>1009</ele>
        <time>2021-09-06T01:38:45+02:00</time>
      </trkpt>
      <trkpt lat="44.63052" lon="5.20793">
        <ele>1008</ele>
        <time>2021-09-06T01:38:50+02:00</time>
      </trkpt>
      <trkpt lat="44.63073" lon="5.20823">
        <ele>1005</ele>
        <time>2021-09-06T01:38:55+02:00</time>
      </trkpt>
      <trkpt lat="44.63103" lon="5.20851">
        <ele>1002</ele>
        <time>2021-09-06T01:39:00+02:00</time>
      </trkpt>
      <trkpt lat="44.63124" lon="5.2086">
        <ele>1002</ele>
        <time>2021-09-06T01:39:05+02:00</time>
      </trkpt>
      <trkpt lat="44.63142" lon="5.20875">
        <ele>1001</ele>
        <time>2021-09-06T01:39:10+02:00</time>
      </trkpt>
      <trkpt lat="44.63157" lon="5.20891">
        <ele>999</ele>
        <time>2021-09-06T01:39:15+02:00</time>
      </trkpt>
      <trkpt lat="44.63182" lon="5.20922">
        <ele>992</ele>
        <time>2021-09-06T01:39:20+02:00</time>
      </trkpt>
      <trkpt lat="44.63219" lon="5.20937">
        <ele>988</ele>
        <time>2021-09-06T01:39:25+02:00</time>
      </trkpt>
      <trkpt lat="44.63243" lon="5.20941">
        <ele>986</ele>
        <time>2021-09-06T01:39:30+02:00</time>
      </trkpt>
      <trkpt lat="44.63276" lon="5.20945">
        <ele>984</ele>
        <time>2021-09-06T01:39:35+02:00</time>
      </trkpt>
      <trkpt lat="44.63293" lon="5.20941">
        <ele>983</ele>
        <time>2021-09-06T01:39:40+02:00</time>
      </trkpt>
      <trkpt lat="44.63314" lon="5.20928">
        <ele>982</ele>
        <time>2021-09-06T01:39:45+02:00</time>
      </trkpt>
      <trkpt lat="44.63327" lon="5.20917">
        <ele>982</ele>
        <time>2021-09-06T01:39:50+02:00</time>
      </trkpt>
      <trkpt lat="44.63338" lon="5.20912">
        <ele>982</ele>
        <time>2021-09-06T01:39:55+02:00</time>
      </trkpt>
      <trkpt lat="44.63355" lon="5.20918">
        <ele>983</ele>
        <time>2021-09-06T01:40:00+02:00</time>
      </trkpt>
      <trkpt lat="44.63385" lon="5.20953">
        <ele>980</ele>
        <time>2021-09-06T01:40:05+02:00</time>
      </trkpt>
      <trkpt lat="44.63409" lon="5.20975">
        <ele>976</ele>
        <time>2021-09-06T01:40:10+02:00</time>
      </trkpt>
      <trkpt lat="44.63428" lon="5.20976">
        <ele>975</ele>
        <time>2021-09-06T01:40:15+02:00</time>
      </trkpt>
      <trkpt lat="44.63449" lon="5.20973">
        <ele>975</ele>
        <time>2021-09-06T01:40:20+02:00</time>
      </trkpt>
      <trkpt lat="44.6347" lon="5.2097">
        <ele>974</ele>
        <time>2021-09-06T01:40:25+02:00</time>
      </trkpt>
      <trkpt lat="44.63492" lon="5.20974">
        <ele>972</ele>
        <time>2021-09-06T01:40:30+02:00</time>
      </trkpt>
      <trkpt lat="44.63522" lon="5.20968">
        <ele>969</ele>
        <time>2021-09-06T01:40:35+02:00</time>
      </trkpt>
      <trkpt lat="44.6354" lon="5.20963">
        <ele>967</ele>
        <time>2021-09-06T01:40:40+02:00</time>
      </trkpt>
      <trkpt lat="44.63557" lon="5.20956">
        <ele>966</ele>
        <time>2021-09-06T01:40:45+02:00</time>
      </trkpt>
      <trkpt lat="44.63573" lon="5.20956">
        <ele>965</ele>
        <time>2021-09-06T01:40:50+02:00</time>
      </trkpt>
      <trkpt lat="44.63579" lon="5.20961">
        <ele>963</ele>
        <time>2021-09-06T01:40:55+02:00</time>
      </trkpt>
      <trkpt lat="44.63572" lon="5.20984">
        <ele>960</ele>
        <time>2021-09-06T01:41:00+02:00</time>
      </trkpt>
      <trkpt lat="44.63565" lon="5.21022">
        <ele>956</ele>
        <time>2021-09-06T01:41:05+02:00</time>
      </trkpt>
      <trkpt lat="44.63561" lon="5.21047">
        <ele>952</ele>
        <time>2021-09-06T01:41:10+02:00</time>
      </trkpt>
      <trkpt lat="44.63564" lon="5.21072">
        <ele>947</ele>
        <time>2021-09-06T01:41:15+02:00</time>
      </trkpt>
      <trkpt lat="44.63569" lon="5.21104">
        <ele>940</ele>
        <time>2021-09-06T01:41:20+02:00</time>
      </trkpt>
      <trkpt lat="44.63567" lon="5.21123">
        <ele>936</ele>
        <time>2021-09-06T01:41:25+02:00</time>
      </trkpt>
      <trkpt lat="44.63571" lon="5.21134">
        <ele>934</ele>
        <time>2021-09-06T01:41:30+02:00</time>
      </trkpt>
      <trkpt lat="44.63583" lon="5.21141">
        <ele>932</ele>
        <time>2021-09-06T01:41:35+02:00</time>
      </trkpt>
      <trkpt lat="44.63591" lon="5.21158">
        <ele>927</ele>
        <time>2021-09-06T01:41:40+02:00</time>
      </trkpt>
      <trkpt lat="44.63587" lon="5.21178">
        <ele>924</ele>
        <time>2021-09-06T01:41:45+02:00</time>
      </trkpt>
      <trkpt lat="44.63581" lon="5.21199">
        <ele>923</ele>
        <time>2021-09-06T01:41:50+02:00</time>
      </trkpt>
      <trkpt lat="44.63572" lon="5.21202">
        <ele>923</ele>
        <time>2021-09-06T01:41:55+02:00</time>
      </trkpt>
      <trkpt lat="44.63564" lon="5.21197">
        <ele>925</ele>
        <time>2021-09-06T01:42:00+02:00</time>
      </trkpt>
      <trkpt lat="44.6356" lon="5.21187">
        <ele>927</ele>
        <time>2021-09-06T01:42:05+02:00</time>
      </trkpt>
      <trkpt lat="44.63552" lon="5.21181">
        <ele>928</ele>
        <time>2021-09-06T01:42:10+02:00</time>
      </trkpt>
      <trkpt lat="44.63541" lon="5.21185">
        <ele>926</ele>
        <time>2021-09-06T01:42:15+02:00</time>
      </trkpt>
      <trkpt lat="44.63531" lon="5.21188">
        <ele>924</ele>
        <time>2021-09-06T01:42:20+02:00</time>
      </trkpt>
      <trkpt lat="44.63519" lon="5.21181">
        <ele>925</ele>
        <time>2021-09-06T01:42:25+02:00</time>
      </trkpt>
      <trkpt lat="44.63505" lon="5.21177">
        <ele>925</ele>
        <time>2021-09-06T01:42:30+02:00</time>
      </trkpt>
      <trkpt lat="44.63492" lon="5.21175">
        <ele>923</ele>
        <time>2021-09-06T01:42:35+02:00</time>
      </trkpt>
      <trkpt lat="44.63474" lon="5.21181">
        <ele>918</ele>
        <time>2021-09-06T01:42:40+02:00</time>
      </trkpt>
      <trkpt lat="44.63463" lon="5.2119">
        <ele>914</ele>
        <time>2021-09-06T01:42:45+02:00</time>
      </trkpt>
      <trkpt lat="44.63446" lon="5.21217">
        <ele>908</ele>
        <time>2021-09-06T01:42:50+02:00</time>
      </trkpt>
      <trkpt lat="44.63428" lon="5.21221">
        <ele>907</ele>
        <time>2021-09-06T01:42:55+02:00</time>
      </trkpt>
      <trkpt lat="44.63405" lon="5.21217">
        <ele>907</ele>
        <time>2021-09-06T01:43:00+02:00</time>
      </trkpt>
      <trkpt lat="44.6339" lon="5.21214">
        <ele>907</ele>
        <time>2021-09-06T01:43:05+02:00</time>
      </trkpt>
      <trkpt lat="44.63377" lon="5.2121">
        <ele>905</ele>
        <time>2021-09-06T01:43:10+02:00</time>
      </trkpt>
      <trkpt lat="44.63365" lon="5.21222">
        <ele>902</ele>
        <time>2021-09-06T01:43:15+02:00</time>
      </trkpt>
      <trkpt lat="44.63356" lon="5.21243">
        <ele>897</ele>
        <time>2021-09-06T01:43:20+02:00</time>
      </trkpt>
      <trkpt lat="44.63352" lon="5.21265">
        <ele>894</ele>
        <time>2021-09-06T01:43:25+02:00</time>
      </trkpt>
      <trkpt lat="44.63342" lon="5.21291">
        <ele>891</ele>
        <time>2021-09-06T01:43:30+02:00</time>
      </trkpt>
      <trkpt lat="44.63337" lon="5.21307">
        <ele>890</ele>
        <time>2021-09-06T01:43:35+02:00</time>
      </trkpt>
      <trkpt lat="44.63331" lon="5.21325">
        <ele>890</ele>
        <time>2021-09-06T01:43:40+02:00</time>
      </trkpt>
      <trkpt lat="44.63328" lon="5.21349">
        <ele>888</ele>
        <time>2021-09-06T01:43:45+02:00</time>
      </trkpt>
      <trkpt lat="44.63327" lon="5.21369">
        <ele>887</ele>
        <time>2021-09-06T01:43:50+02:00</time>
      </trkpt>
      <trkpt lat="44.63325" lon="5.21394">
        <ele>885</ele>
        <time>2021-09-06T01:43:55+02:00</time>
      </trkpt>
      <trkpt lat="44.6332" lon="5.21419">
        <ele>883</ele>
        <time>2021-09-06T01:44:00+02:00</time>
      </trkpt>
      <trkpt lat="44.63315" lon="5.21438">
        <ele>882</ele>
        <time>2021-09-06T01:44:05+02:00</time>
      </trkpt>
      <trkpt lat="44.6331" lon="5.21461">
        <ele>883</ele>
        <time>2021-09-06T01:44:10+02:00</time>
      </trkpt>
      <trkpt lat="44.6331" lon="5.21484">
        <ele>882</ele>
        <time>2021-09-06T01:44:15+02:00</time>
      </trkpt>
      <trkpt lat="44.63315" lon="5.21506">
        <ele>881</ele>
        <time>2021-09-06T01:44:20+02:00</time>
      </trkpt>
      <trkpt lat="44.63322" lon="5.21534">
        <ele>880</ele>
        <time>2021-09-06T01:44:25+02:00</time>
      </trkpt>
      <trkpt lat="44.63333" lon="5.21546">
        <ele>878</ele>
        <time>2021-09-06T01:44:30+02:00</time>
      </trkpt>
      <trkpt lat="44.63344" lon="5.21558">
        <ele>877</ele>
        <time>2021-09-06T01:44:35+02:00</time>
      </trkpt>
      <trkpt lat="44.63364" lon="5.21566">
        <ele>876</ele>
        <time>2021-09-06T01:44:40+02:00</time>
      </trkpt>
      <trkpt lat="44.63391" lon="5.21573">
        <ele>874</ele>
        <time>2021-09-06T01:44:45+02:00</time>
      </trkpt>
      <trkpt lat="44.63409" lon="5.21577">
        <ele>872</ele>
        <time>2021-09-06T01:44:50+02:00</time>
      </trkpt>
      <trkpt lat="44.63433" lon="5.21586">
        <ele>870</ele>
        <time>2021-09-06T01:44:55+02:00</time>
      </trkpt>
      <trkpt lat="44.6345" lon="5.21593">
        <ele>870</ele>
        <time>2021-09-06T01:45:00+02:00</time>
      </trkpt>
      <trkpt lat="44.63481" lon="5.21604">
        <ele>867</ele>
        <time>2021-09-06T01:45:05+02:00</time>
      </trkpt>
      <trkpt lat="44.63495" lon="5.2161">
        <ele>865</ele>
        <time>2021-09-06T01:45:10+02:00</time>
      </trkpt>
      <trkpt lat="44.63512" lon="5.21618">
        <ele>863</ele>
        <time>2021-09-06T01:45:15+02:00</time>
      </trkpt>
      <trkpt lat="44.63532" lon="5.2162">
        <ele>861</ele>
        <time>2021-09-06T01:45:20+02:00</time>
      </trkpt>
      <trkpt lat="44.63548" lon="5.21622">
        <ele>860</ele>
        <time>2021-09-06T01:45:25+02:00</time>
      </trkpt>
      <trkpt lat="44.63567" lon="5.2163">
        <ele>859</ele>
        <time>2021-09-06T01:45:30+02:00</time>
      </trkpt>
      <trkpt lat="44.63589" lon="5.21636">
        <ele>857</ele>
        <time>2021-09-06T01:45:35+02:00</time>
      </trkpt>
      <trkpt lat="44.63613" lon="5.21646">
        <ele>853</ele>
        <time>2021-09-06T01:45:40+02:00</time>
      </trkpt>
      <trkpt lat="44.63635" lon="5.21658">
        <ele>851</ele>
        <time>2021-09-06T01:45:45+02:00</time>
      </trkpt>
      <trkpt lat="44.63656" lon="5.2167">
        <ele>848</ele>
        <time>2021-09-06T01:45:50+02:00</time>
      </trkpt>
      <trkpt lat="44.63672" lon="5.21683">
        <ele>846</ele>
        <time>2021-09-06T01:45:55+02:00</time>
      </trkpt>
      <trkpt lat="44.63686" lon="5.21697">
        <ele>846</ele>
        <time>2021-09-06T01:46:00+02:00</time>
      </trkpt>
      <trkpt lat="44.63703" lon="5.21715">
        <ele>845</ele>
        <time>2021-09-06T01:46:05+02:00</time>
      </trkpt>
      <trkpt lat="44.6372" lon="5.21733">
        <ele>845</ele>
        <time>2021-09-06T01:46:10+02:00</time>
      </trkpt>
      <trkpt lat="44.63733" lon="5.21749">
        <ele>844</ele>
        <time>2021-09-06T01:46:15+02:00</time>
      </trkpt>
      <trkpt lat="44.63751" lon="5.21766">
        <ele>844</ele>
        <time>2021-09-06T01:46:20+02:00</time>
      </trkpt>
      <trkpt lat="44.63763" lon="5.21791">
        <ele>844</ele>
        <time>2021-09-06T01:46:25+02:00</time>
      </trkpt>
      <trkpt lat="44.63779" lon="5.21807">
        <ele>842</ele>
        <time>2021-09-06T01:46:30+02:00</time>
      </trkpt>
      <trkpt lat="44.63798" lon="5.21825">
        <ele>839</ele>
        <time>2021-09-06T01:46:35+02:00</time>
      </trkpt>
      <trkpt lat="44.63818" lon="5.21845">
        <ele>838</ele>
        <time>2021-09-06T01:46:40+02:00</time>
      </trkpt>
      <trkpt lat="44.63835" lon="5.21864">
        <ele>837</ele>
        <time>2021-09-06T01:46:45+02:00</time>
      </trkpt>
      <trkpt lat="44.63851" lon="5.21874">
        <ele>835</ele>
        <time>2021-09-06T01:46:50+02:00</time>
      </trkpt>
      <trkpt lat="44.63866" lon="5.21885">
        <ele>831</ele>
        <time>2021-09-06T01:46:55+02:00</time>
      </trkpt>
      <trkpt lat="44.63874" lon="5.21903">
        <ele>831</ele>
        <time>2021-09-06T01:47:00+02:00</time>
      </trkpt>
      <trkpt lat="44.63877" lon="5.21918">
        <ele>833</ele>
        <time>2021-09-06T01:47:05+02:00</time>
      </trkpt>
      <trkpt lat="44.6388" lon="5.21935">
        <ele>835</ele>
        <time>2021-09-06T01:47:10+02:00</time>
      </trkpt>
      <trkpt lat="44.63889" lon="5.21946">
        <ele>833</ele>
        <time>2021-09-06T01:47:15+02:00</time>
      </trkpt>
      <trkpt lat="44.63898" lon="5.21961">
        <ele>831</ele>
        <time>2021-09-06T01:47:20+02:00</time>
      </trkpt>
      <trkpt lat="44.63907" lon="5.21988">
        <ele>830</ele>
        <time>2021-09-06T01:47:25+02:00</time>
      </trkpt>
      <trkpt lat="44.63912" lon="5.22021">
        <ele>831</ele>
        <time>2021-09-06T01:47:30+02:00</time>
      </trkpt>
      <trkpt lat="44.63913" lon="5.22045">
        <ele>832</ele>
        <time>2021-09-06T01:47:35+02:00</time>
      </trkpt>
      <trkpt lat="44.63914" lon="5.22075">
        <ele>830</ele>
        <time>2021-09-06T01:47:40+02:00</time>
      </trkpt>
      <trkpt lat="44.63912" lon="5.22096">
        <ele>829</ele>
        <time>2021-09-06T01:47:45+02:00</time>
      </trkpt>
      <trkpt lat="44.63909" lon="5.2212">
        <ele>829</ele>
        <time>2021-09-06T01:47:50+02:00</time>
      </trkpt>
      <trkpt lat="44.6391" lon="5.22137">
        <ele>828</ele>
        <time>2021-09-06T01:47:55+02:00</time>
      </trkpt>
      <trkpt lat="44.63922" lon="5.22145">
        <ele>826</ele>
        <time>2021-09-06T01:48:00+02:00</time>
      </trkpt>
      <trkpt lat="44.63934" lon="5.22153">
        <ele>824</ele>
        <time>2021-09-06T01:48:05+02:00</time>
      </trkpt>
      <trkpt lat="44.63953" lon="5.22163">
        <ele>824</ele>
        <time>2021-09-06T01:48:10+02:00</time>
      </trkpt>
      <trkpt lat="44.63967" lon="5.22165">
        <ele>823</ele>
        <time>2021-09-06T01:48:15+02:00</time>
      </trkpt>
      <trkpt lat="44.6398" lon="5.22161">
        <ele>822</ele>
        <time>2021-09-06T01:48:20+02:00</time>
      </trkpt>
      <trkpt lat="44.63994" lon="5.22159">
        <ele>821</ele>
        <time>2021-09-06T01:48:25+02:00</time>
      </trkpt>
      <trkpt lat="44.64012" lon="5.22153">
        <ele>818</ele>
        <time>2021-09-06T01:48:30+02:00</time>
      </trkpt>
      <trkpt lat="44.64025" lon="5.22167">
        <ele>821</ele>
        <time>2021-09-06T01:48:35+02:00</time>
      </trkpt>
      <trkpt lat="44.64036" lon="5.22173">
        <ele>818</ele>
        <time>2021-09-06T01:48:40+02:00</time>
      </trkpt>
      <trkpt lat="44.64047" lon="5.22184">
        <ele>815</ele>
        <time>2021-09-06T01:48:45+02:00</time>
      </trkpt>
      <trkpt lat="44.64054" lon="5.22206">
        <ele>816</ele>
        <time>2021-09-06T01:48:50+02:00</time>
      </trkpt>
      <trkpt lat="44.64056" lon="5.22226">
        <ele>818</ele>
        <time>2021-09-06T01:48:55+02:00</time>
      </trkpt>
      <trkpt lat="44.64057" lon="5.22247">
        <ele>821</ele>
        <time>2021-09-06T01:49:00+02:00</time>
      </trkpt>
      <trkpt lat="44.64059" lon="5.22258">
        <ele>821</ele>
        <time>2021-09-06T01:49:05+02:00</time>
      </trkpt>
      <trkpt lat="44.64064" lon="5.2227">
        <ele>820</ele>
        <time>2021-09-06T01:49:10+02:00</time>
      </trkpt>
      <trkpt lat="44.64074" lon="5.22272">
        <ele>815</ele>
        <time>2021-09-06T01:49:15+02:00</time>
      </trkpt>
      <trkpt lat="44.64086" lon="5.2228">
        <ele>811</ele>
        <time>2021-09-06T01:49:20+02:00</time>
      </trkpt>
      <trkpt lat="44.64091" lon="5.22306">
        <ele>813</ele>
        <time>2021-09-06T01:49:25+02:00</time>
      </trkpt>
      <trkpt lat="44.64099" lon="5.22319">
        <ele>812</ele>
        <time>2021-09-06T01:49:30+02:00</time>
      </trkpt>
      <trkpt lat="44.64115" lon="5.22329">
        <ele>807</ele>
        <time>2021-09-06T01:49:35+02:00</time>
      </trkpt>
      <trkpt lat="44.64144" lon="5.22351">
        <ele>798</ele>
        <time>2021-09-06T01:49:40+02:00</time>
      </trkpt>
      <trkpt lat="44.64157" lon="5.22361">
        <ele>795</ele>
        <time>2021-09-06T01:49:45+02:00</time>
      </trkpt>
      <trkpt lat="44.64165" lon="5.22382">
        <ele>796</ele>
        <time>2021-09-06T01:49:50+02:00</time>
      </trkpt>
      <trkpt lat="44.64171" lon="5.22405">
        <ele>796</ele>
        <time>2021-09-06T01:49:55+02:00</time>
      </trkpt>
      <trkpt lat="44.64183" lon="5.22441">
        <ele>795</ele>
        <time>2021-09-06T01:50:00+02:00</time>
      </trkpt>
      <trkpt lat="44.64196" lon="5.22476">
        <ele>797</ele>
        <time>2021-09-06T01:50:05+02:00</time>
      </trkpt>
      <trkpt lat="44.64206" lon="5.22493">
        <ele>794</ele>
        <time>2021-09-06T01:50:10+02:00</time>
      </trkpt>
      <trkpt lat="44.64216" lon="5.22508">
        <ele>791</ele>
        <time>2021-09-06T01:50:15+02:00</time>
      </trkpt>
      <trkpt lat="44.64218" lon="5.22525">
        <ele>792</ele>
        <time>2021-09-06T01:50:20+02:00</time>
      </trkpt>
      <trkpt lat="44.64201" lon="5.22536">
        <ele>795</ele>
        <time>2021-09-06T01:50:25+02:00</time>
      </trkpt>
      <trkpt lat="44.64188" lon="5.22545">
        <ele>798</ele>
        <time>2021-09-06T01:50:30+02:00</time>
      </trkpt>
      <trkpt lat="44.6418" lon="5.2256">
        <ele>797</ele>
        <time>2021-09-06T01:50:35+02:00</time>
      </trkpt>
      <trkpt lat="44.64169" lon="5.22587">
        <ele>792</ele>
        <time>2021-09-06T01:50:40+02:00</time>
      </trkpt>
      <trkpt lat="44.6416" lon="5.22609">
        <ele>788</ele>
        <time>2021-09-06T01:50:45+02:00</time>
      </trkpt>
      <trkpt lat="44.6416" lon="5.22635">
        <ele>782</ele>
        <time>2021-09-06T01:50:50+02:00</time>
      </trkpt>
      <trkpt lat="44.64166" lon="5.22657">
        <ele>779</ele>
        <time>2021-09-06T01:50:55+02:00</time>
      </trkpt>
      <trkpt lat="44.64177" lon="5.22667">
        <ele>778</ele>
        <time>2021-09-06T01:51:00+02:00</time>
      </trkpt>
      <trkpt lat="44.64195" lon="5.22675">
        <ele>777</ele>
        <time>2021-09-06T01:51:05+02:00</time>
      </trkpt>
      <trkpt lat="44.64213" lon="5.22684">
        <ele>773</ele>
        <time>2021-09-06T01:51:10+02:00</time>
      </trkpt>
      <trkpt lat="44.64224" lon="5.22703">
        <ele>774</ele>
        <time>2021-09-06T01:51:15+02:00</time>
      </trkpt>
      <trkpt lat="44.64232" lon="5.22727">
        <ele>777</ele>
        <time>2021-09-06T01:51:20+02:00</time>
      </trkpt>
      <trkpt lat="44.64239" lon="5.22751">
        <ele>780</ele>
        <time>2021-09-06T01:51:25+02:00</time>
      </trkpt>
      <trkpt lat="44.64248" lon="5.22765">
        <ele>780</ele>
        <time>2021-09-06T01:51:30+02:00</time>
      </trkpt>
      <trkpt lat="44.64258" lon="5.22772">
        <ele>778</ele>
        <time>2021-09-06T01:51:35+02:00</time>
      </trkpt>
      <trkpt lat="44.64264" lon="5.22789">
        <ele>779</ele>
        <time>2021-09-06T01:51:40+02:00</time>
      </trkpt>
      <trkpt lat="44.64274" lon="5.22808">
        <ele>780</ele>
        <time>2021-09-06T01:51:45+02:00</time>
      </trkpt>
      <trkpt lat="44.64287" lon="5.22811">
        <ele>778</ele>
        <time>2021-09-06T01:51:50+02:00</time>
      </trkpt>
      <trkpt lat="44.64301" lon="5.22811">
        <ele>775</ele>
        <time>2021-09-06T01:51:55+02:00</time>
      </trkpt>
      <trkpt lat="44.64316" lon="5.22821">
        <ele>773</ele>
        <time>2021-09-06T01:52:00+02:00</time>
      </trkpt>
      <trkpt lat="44.64331" lon="5.22822">
        <ele>769</ele>
        <time>2021-09-06T01:52:05+02:00</time>
      </trkpt>
      <trkpt lat="44.64348" lon="5.22827">
        <ele>766</ele>
        <time>2021-09-06T01:52:10+02:00</time>
      </trkpt>
      <trkpt lat="44.64361" lon="5.2284">
        <ele>766</ele>
        <time>2021-09-06T01:52:15+02:00</time>
      </trkpt>
      <trkpt lat="44.64377" lon="5.2286">
        <ele>768</ele>
        <time>2021-09-06T01:52:20+02:00</time>
      </trkpt>
      <trkpt lat="44.64394" lon="5.22883">
        <ele>767</ele>
        <time>2021-09-06T01:52:25+02:00</time>
      </trkpt>
      <trkpt lat="44.64407" lon="5.22905">
        <ele>768</ele>
        <time>2021-09-06T01:52:30+02:00</time>
      </trkpt>
      <trkpt lat="44.64416" lon="5.22929">
        <ele>770</ele>
        <time>2021-09-06T01:52:35+02:00</time>
      </trkpt>
      <trkpt lat="44.64429" lon="5.22951">
        <ele>773</ele>
        <time>2021-09-06T01:52:40+02:00</time>
      </trkpt>
      <trkpt lat="44.64446" lon="5.22966">
        <ele>772</ele>
        <time>2021-09-06T01:52:45+02:00</time>
      </trkpt>
      <trkpt lat="44.64461" lon="5.22987">
        <ele>771</ele>
        <time>2021-09-06T01:52:50+02:00</time>
      </trkpt>
      <trkpt lat="44.64483" lon="5.23009">
        <ele>767</ele>
        <time>2021-09-06T01:52:55+02:00</time>
      </trkpt>
      <trkpt lat="44.64499" lon="5.23027">
        <ele>764</ele>
        <time>2021-09-06T01:53:00+02:00</time>
      </trkpt>
      <trkpt lat="44.64507" lon="5.2304">
        <ele>762</ele>
        <time>2021-09-06T01:53:05+02:00</time>
      </trkpt>
      <trkpt lat="44.64509" lon="5.23077">
        <ele>764</ele>
        <time>2021-09-06T01:53:10+02:00</time>
      </trkpt>
      <trkpt lat="44.64507" lon="5.23103">
        <ele>765</ele>
        <time>2021-09-06T01:53:15+02:00</time>
      </trkpt>
      <trkpt lat="44.64495" lon="5.23123">
        <ele>765</ele>
        <time>2021-09-06T01:53:20+02:00</time>
      </trkpt>
      <trkpt lat="44.6447" lon="5.23137">
        <ele>769</ele>
        <time>2021-09-06T01:53:25+02:00</time>
      </trkpt>
      <trkpt lat="44.64441" lon="5.23162">
        <ele>767</ele>
        <time>2021-09-06T01:53:30+02:00</time>
      </trkpt>
      <trkpt lat="44.64415" lon="5.23184">
        <ele>768</ele>
        <time>2021-09-06T01:53:35+02:00</time>
      </trkpt>
      <trkpt lat="44.64398" lon="5.23199">
        <ele>769</ele>
        <time>2021-09-06T01:53:40+02:00</time>
      </trkpt>
      <trkpt lat="44.64392" lon="5.23213">
        <ele>769</ele>
        <time>2021-09-06T01:53:45+02:00</time>
      </trkpt>
      <trkpt lat="44.64406" lon="5.2322">
        <ele>764</ele>
        <time>2021-09-06T01:53:50+02:00</time>
      </trkpt>
      <trkpt lat="44.6443" lon="5.23228">
        <ele>760</ele>
        <time>2021-09-06T01:53:55+02:00</time>
      </trkpt>
      <trkpt lat="44.64451" lon="5.2324">
        <ele>760</ele>
        <time>2021-09-06T01:54:00+02:00</time>
      </trkpt>
      <trkpt lat="44.64486" lon="5.23252">
        <ele>756</ele>
        <time>2021-09-06T01:54:05+02:00</time>
      </trkpt>
      <trkpt lat="44.64499" lon="5.23263">
        <ele>757</ele>
        <time>2021-09-06T01:54:10+02:00</time>
      </trkpt>
      <trkpt lat="44.6451" lon="5.23274">
        <ele>757</ele>
        <time>2021-09-06T01:54:15+02:00</time>
      </trkpt>
      <trkpt lat="44.64522" lon="5.23286">
        <ele>757</ele>
        <time>2021-09-06T01:54:20+02:00</time>
      </trkpt>
      <trkpt lat="44.64532" lon="5.23302">
        <ele>757</ele>
        <time>2021-09-06T01:54:25+02:00</time>
      </trkpt>
      <trkpt lat="44.64534" lon="5.23327">
        <ele>756</ele>
        <time>2021-09-06T01:54:30+02:00</time>
      </trkpt>
      <trkpt lat="44.64528" lon="5.23346">
        <ele>756</ele>
        <time>2021-09-06T01:54:35+02:00</time>
      </trkpt>
      <trkpt lat="44.64526" lon="5.23374">
        <ele>754</ele>
        <time>2021-09-06T01:54:40+02:00</time>
      </trkpt>
      <trkpt lat="44.6453" lon="5.23406">
        <ele>749</ele>
        <time>2021-09-06T01:54:45+02:00</time>
      </trkpt>
      <trkpt lat="44.64529" lon="5.2344">
        <ele>747</ele>
        <time>2021-09-06T01:54:50+02:00</time>
      </trkpt>
      <trkpt lat="44.64527" lon="5.2348">
        <ele>745</ele>
        <time>2021-09-06T01:54:55+02:00</time>
      </trkpt>
      <trkpt lat="44.64534" lon="5.23529">
        <ele>744</ele>
        <time>2021-09-06T01:55:00+02:00</time>
      </trkpt>
      <trkpt lat="44.64532" lon="5.2356">
        <ele>749</ele>
        <time>2021-09-06T01:55:05+02:00</time>
      </trkpt>
      <trkpt lat="44.64537" lon="5.23589">
        <ele>753</ele>
        <time>2021-09-06T01:55:10+02:00</time>
      </trkpt>
      <trkpt lat="44.64548" lon="5.23581">
        <ele>753</ele>
        <time>2021-09-06T01:55:15+02:00</time>
      </trkpt>
      <trkpt lat="44.64572" lon="5.23561">
        <ele>756</ele>
        <time>2021-09-06T01:55:20+02:00</time>
      </trkpt>
      <trkpt lat="44.64592" lon="5.23546">
        <ele>760</ele>
        <time>2021-09-06T01:55:25+02:00</time>
      </trkpt>
      <trkpt lat="44.64599" lon="5.23544">
        <ele>763</ele>
        <time>2021-09-06T01:55:30+02:00</time>
      </trkpt>
      <trkpt lat="44.64601" lon="5.23533">
        <ele>759</ele>
        <time>2021-09-06T01:55:35+02:00</time>
      </trkpt>
      <trkpt lat="44.64605" lon="5.23524">
        <ele>757</ele>
        <time>2021-09-06T01:55:40+02:00</time>
      </trkpt>
      <trkpt lat="44.64622" lon="5.23508">
        <ele>757</ele>
        <time>2021-09-06T01:55:45+02:00</time>
      </trkpt>
      <trkpt lat="44.64633" lon="5.23501">
        <ele>758</ele>
        <time>2021-09-06T01:55:50+02:00</time>
      </trkpt>
      <trkpt lat="44.64645" lon="5.23498">
        <ele>762</ele>
        <time>2021-09-06T01:55:55+02:00</time>
      </trkpt>
      <trkpt lat="44.64655" lon="5.23485">
        <ele>759</ele>
        <time>2021-09-06T01:56:00+02:00</time>
      </trkpt>
      <trkpt lat="44.64671" lon="5.23477">
        <ele>761</ele>
        <time>2021-09-06T01:56:05+02:00</time>
      </trkpt>
      <trkpt lat="44.64683" lon="5.2347">
        <ele>761</ele>
        <time>2021-09-06T01:56:10+02:00</time>
      </trkpt>
      <trkpt lat="44.64692" lon="5.23469">
        <ele>764</ele>
        <time>2021-09-06T01:56:15+02:00</time>
      </trkpt>
      <trkpt lat="44.64702" lon="5.23448">
        <ele>759</ele>
        <time>2021-09-06T01:56:20+02:00</time>
      </trkpt>
      <trkpt lat="44.64724" lon="5.23427">
        <ele>761</ele>
        <time>2021-09-06T01:56:25+02:00</time>
      </trkpt>
      <trkpt lat="44.64732" lon="5.23412">
        <ele>759</ele>
        <time>2021-09-06T01:56:30+02:00</time>
      </trkpt>
      <trkpt lat="44.64739" lon="5.23392">
        <ele>758</ele>
        <time>2021-09-06T01:56:35+02:00</time>
      </trkpt>
      <trkpt lat="44.64745" lon="5.23377">
        <ele>757</ele>
        <time>2021-09-06T01:56:40+02:00</time>
      </trkpt>
      <trkpt lat="44.64751" lon="5.23358">
        <ele>754</ele>
        <time>2021-09-06T01:56:45+02:00</time>
      </trkpt>
      <trkpt lat="44.64759" lon="5.23339">
        <ele>750</ele>
        <time>2021-09-06T01:56:50+02:00</time>
      </trkpt>
      <trkpt lat="44.64767" lon="5.2332">
        <ele>746</ele>
        <time>2021-09-06T01:56:55+02:00</time>
      </trkpt>
      <trkpt lat="44.64776" lon="5.23308">
        <ele>746</ele>
        <time>2021-09-06T01:57:00+02:00</time>
      </trkpt>
      <trkpt lat="44.64782" lon="5.23295">
        <ele>744</ele>
        <time>2021-09-06T01:57:05+02:00</time>
      </trkpt>
      <trkpt lat="44.6479" lon="5.23282">
        <ele>740</ele>
        <time>2021-09-06T01:57:10+02:00</time>
      </trkpt>
      <trkpt lat="44.64793" lon="5.23271">
        <ele>739</ele>
        <time>2021-09-06T01:57:15+02:00</time>
      </trkpt>
      <trkpt lat="44.64798" lon="5.23265">
        <ele>738</ele>
        <time>2021-09-06T01:57:20+02:00</time>
      </trkpt>
      <trkpt lat="44.64801" lon="5.23283">
        <ele>739</ele>
        <time>2021-09-06T01:57:25+02:00</time>
      </trkpt>
      <trkpt lat="44.64809" lon="5.23308">
        <ele>741</ele>
        <time>2021-09-06T01:57:30+02:00</time>
      </trkpt>
      <trkpt lat="44.64815" lon="5.2333">
        <ele>740</ele>
        <time>2021-09-06T01:57:35+02:00</time>
      </trkpt>
      <trkpt lat="44.64819" lon="5.23349">
        <ele>741</ele>
        <time>2021-09-06T01:57:40+02:00</time>
      </trkpt>
      <trkpt lat="44.64822" lon="5.23368">
        <ele>744</ele>
        <time>2021-09-06T01:57:45+02:00</time>
      </trkpt>
      <trkpt lat="44.64825" lon="5.23389">
        <ele>748</ele>
        <time>2021-09-06T01:57:50+02:00</time>
      </trkpt>
      <trkpt lat="44.64834" lon="5.23411">
        <ele>752</ele>
        <time>2021-09-06T01:57:55+02:00</time>
      </trkpt>
      <trkpt lat="44.64845" lon="5.2343">
        <ele>755</ele>
        <time>2021-09-06T01:58:00+02:00</time>
      </trkpt>
      <trkpt lat="44.6486" lon="5.23451">
        <ele>756</ele>
        <time>2021-09-06T01:58:05+02:00</time>
      </trkpt>
      <trkpt lat="44.64874" lon="5.23475">
        <ele>757</ele>
        <time>2021-09-06T01:58:10+02:00</time>
      </trkpt>
      <trkpt lat="44.64886" lon="5.23492">
        <ele>761</ele>
        <time>2021-09-06T01:58:15+02:00</time>
      </trkpt>
      <trkpt lat="44.64894" lon="5.23505">
        <ele>765</ele>
        <time>2021-09-06T01:58:20+02:00</time>
      </trkpt>
      <trkpt lat="44.64904" lon="5.23521">
        <ele>772</ele>
        <time>2021-09-06T01:58:25+02:00</time>
      </trkpt>
      <trkpt lat="44.64928" lon="5.23526">
        <ele>772</ele>
        <time>2021-09-06T01:58:30+02:00</time>
      </trkpt>
      <trkpt lat="44.64946" lon="5.2353">
        <ele>772</ele>
        <time>2021-09-06T01:58:35+02:00</time>
      </trkpt>
      <trkpt lat="44.64959" lon="5.2353">
        <ele>772</ele>
        <time>2021-09-06T01:58:40+02:00</time>
      </trkpt>
      <trkpt lat="44.64974" lon="5.23537">
        <ele>772</ele>
        <time>2021-09-06T01:58:45+02:00</time>
      </trkpt>
      <trkpt lat="44.64984" lon="5.23546">
        <ele>771</ele>
        <time>2021-09-06T01:58:50+02:00</time>
      </trkpt>
      <trkpt lat="44.64995" lon="5.23559">
        <ele>771</ele>
        <time>2021-09-06T01:58:55+02:00</time>
      </trkpt>
      <trkpt lat="44.64999" lon="5.23577">
        <ele>776</ele>
        <time>2021-09-06T01:59:00+02:00</time>
      </trkpt>
      <trkpt lat="44.65008" lon="5.23589">
        <ele>776</ele>
        <time>2021-09-06T01:59:05+02:00</time>
      </trkpt>
      <trkpt lat="44.65019" lon="5.23599">
        <ele>776</ele>
        <time>2021-09-06T01:59:10+02:00</time>
      </trkpt>
      <trkpt lat="44.65031" lon="5.23617">
        <ele>779</ele>
        <time>2021-09-06T01:59:15+02:00</time>
      </trkpt>
      <trkpt lat="44.65047" lon="5.23637">
        <ele>784</ele>
        <time>2021-09-06T01:59:20+02:00</time>
      </trkpt>
      <trkpt lat="44.6507" lon="5.23662">
        <ele>787</ele>
        <time>2021-09-06T01:59:25+02:00</time>
      </trkpt>
      <trkpt lat="44.65083" lon="5.23677">
        <ele>790</ele>
        <time>2021-09-06T01:59:30+02:00</time>
      </trkpt>
      <trkpt lat="44.65096" lon="5.23688">
        <ele>792</ele>
        <time>2021-09-06T01:59:35+02:00</time>
      </trkpt>
      <trkpt lat="44.65111" lon="5.23699">
        <ele>793</ele>
        <time>2021-09-06T01:59:40+02:00</time>
      </trkpt>
      <trkpt lat="44.65126" lon="5.23708">
        <ele>792</ele>
        <time>2021-09-06T01:59:45+02:00</time>
      </trkpt>
      <trkpt lat="44.65138" lon="5.23712">
        <ele>789</ele>
        <time>2021-09-06T01:59:50+02:00</time>
      </trkpt>
      <trkpt lat="44.65147" lon="5.23724">
        <ele>789</ele>
        <time>2021-09-06T01:59:55+02:00</time>
      </trkpt>
      <trkpt lat="44.65158" lon="5.23749">
        <ele>794</ele>
        <time>2021-09-06T02:00:00+02:00</time>
      </trkpt>
      <trkpt lat="44.65167" lon="5.23774">
        <ele>801</ele>
        <time>2021-09-06T02:00:05+02:00</time>
      </trkpt>
      <trkpt lat="44.65178" lon="5.23793">
        <ele>809</ele>
        <time>2021-09-06T02:00:10+02:00</time>
      </trkpt>
      <trkpt lat="44.6519" lon="5.23803">
        <ele>811</ele>
        <time>2021-09-06T02:00:15+02:00</time>
      </trkpt>
      <trkpt lat="44.65217" lon="5.23808">
        <ele>809</ele>
        <time>2021-09-06T02:00:20+02:00</time>
      </trkpt>
      <trkpt lat="44.65242" lon="5.23817">
        <ele>810</ele>
        <time>2021-09-06T02:00:25+02:00</time>
      </trkpt>
      <trkpt lat="44.65264" lon="5.23826">
        <ele>810</ele>
        <time>2021-09-06T02:00:30+02:00</time>
      </trkpt>
      <trkpt lat="44.65282" lon="5.23837">
        <ele>810</ele>
        <time>2021-09-06T02:00:35+02:00</time>
      </trkpt>
      <trkpt lat="44.65296" lon="5.23848">
        <ele>811</ele>
        <time>2021-09-06T02:00:40+02:00</time>
      </trkpt>
      <trkpt lat="44.65307" lon="5.23864">
        <ele>812</ele>
        <time>2021-09-06T02:00:45+02:00</time>
      </trkpt>
      <trkpt lat="44.6532" lon="5.23878">
        <ele>811</ele>
        <time>2021-09-06T02:00:50+02:00</time>
      </trkpt>
      <trkpt lat="44.65333" lon="5.23884">
        <ele>807</ele>
        <time>2021-09-06T02:00:55+02:00</time>
      </trkpt>
      <trkpt lat="44.65335" lon="5.23918">
        <ele>810</ele>
        <time>2021-09-06T02:01:00+02:00</time>
      </trkpt>
      <trkpt lat="44.65336" lon="5.23944">
        <ele>812</ele>
        <time>2021-09-06T02:01:05+02:00</time>
      </trkpt>
      <trkpt lat="44.65339" lon="5.2397">
        <ele>812</ele>
        <time>2021-09-06T02:01:10+02:00</time>
      </trkpt>
      <trkpt lat="44.65344" lon="5.23994">
        <ele>810</ele>
        <time>2021-09-06T02:01:15+02:00</time>
      </trkpt>
      <trkpt lat="44.65347" lon="5.24014">
        <ele>809</ele>
        <time>2021-09-06T02:01:20+02:00</time>
      </trkpt>
      <trkpt lat="44.65342" lon="5.24029">
        <ele>811</ele>
        <time>2021-09-06T02:01:25+02:00</time>
      </trkpt>
      <trkpt lat="44.65333" lon="5.24052">
        <ele>814</ele>
        <time>2021-09-06T02:01:30+02:00</time>
      </trkpt>
      <trkpt lat="44.65323" lon="5.24081">
        <ele>818</ele>
        <time>2021-09-06T02:01:35+02:00</time>
      </trkpt>
      <trkpt lat="44.65313" lon="5.24105">
        <ele>820</ele>
        <time>2021-09-06T02:01:40+02:00</time>
      </trkpt>
      <trkpt lat="44.65305" lon="5.24132">
        <ele>822</ele>
        <time>2021-09-06T02:01:45+02:00</time>
      </trkpt>
      <trkpt lat="44.65295" lon="5.24159">
        <ele>827</ele>
        <time>2021-09-06T02:01:50+02:00</time>
      </trkpt>
      <trkpt lat="44.65286" lon="5.24188">
        <ele>830</ele>
        <time>2021-09-06T02:01:55+02:00</time>
      </trkpt>
      <trkpt lat="44.65286" lon="5.24212">
        <ele>830</ele>
        <time>2021-09-06T02:02:00+02:00</time>
      </trkpt>
      <trkpt lat="44.65289" lon="5.2424">
        <ele>831</ele>
        <time>2021-09-06T02:02:05+02:00</time>
      </trkpt>
      <trkpt lat="44.65294" lon="5.24261">
        <ele>833</ele>
        <time>2021-09-06T02:02:10+02:00</time>
      </trkpt>
      <trkpt lat="44.65295" lon="5.24285">
        <ele>837</ele>
        <time>2021-09-06T02:02:15+02:00</time>
      </trkpt>
      <trkpt lat="44.65289" lon="5.24313">
        <ele>841</ele>
        <time>2021-09-06T02:02:20+02:00</time>
      </trkpt>
      <trkpt lat="44.65285" lon="5.24339">
        <ele>844</ele>
        <time>2021-09-06T02:02:25+02:00</time>
      </trkpt>
      <trkpt lat="44.65278" lon="5.24359">
        <ele>846</ele>
        <time>2021-09-06T02:02:30+02:00</time>
      </trkpt>
      <trkpt lat="44.65268" lon="5.24383">
        <ele>847</ele>
        <time>2021-09-06T02:02:35+02:00</time>
      </trkpt>
      <trkpt lat="44.65257" lon="5.24397">
        <ele>845</ele>
        <time>2021-09-06T02:02:40+02:00</time>
      </trkpt>
      <trkpt lat="44.65234" lon="5.24405">
        <ele>842</ele>
        <time>2021-09-06T02:02:45+02:00</time>
      </trkpt>
      <trkpt lat="44.65203" lon="5.24421">
        <ele>836</ele>
        <time>2021-09-06T02:02:50+02:00</time>
      </trkpt>
      <trkpt lat="44.6518" lon="5.24424">
        <ele>837</ele>
        <time>2021-09-06T02:02:55+02:00</time>
      </trkpt>
      <trkpt lat="44.65157" lon="5.24426">
        <ele>836</ele>
        <time>2021-09-06T02:03:00+02:00</time>
      </trkpt>
      <trkpt lat="44.65143" lon="5.2443">
        <ele>834</ele>
        <time>2021-09-06T02:03:05+02:00</time>
      </trkpt>
      <trkpt lat="44.65132" lon="5.24442">
        <ele>831</ele>
        <time>2021-09-06T02:03:10+02:00</time>
      </trkpt>
      <trkpt lat="44.65128" lon="5.24463">
        <ele>827</ele>
        <time>2021-09-06T02:03:15+02:00</time>
      </trkpt>
      <trkpt lat="44.65123" lon="5.24491">
        <ele>822</ele>
        <time>2021-09-06T02:03:20+02:00</time>
      </trkpt>
      <trkpt lat="44.65115" lon="5.24525">
        <ele>816</ele>
        <time>2021-09-06T02:03:25+02:00</time>
      </trkpt>
      <trkpt lat="44.65111" lon="5.24556">
        <ele>811</ele>
        <time>2021-09-06T02:03:30+02:00</time>
      </trkpt>
      <trkpt lat="44.65099" lon="5.2458">
        <ele>809</ele>
        <time>2021-09-06T02:03:35+02:00</time>
      </trkpt>
      <trkpt lat="44.6509" lon="5.24597">
        <ele>807</ele>
        <time>2021-09-06T02:03:40+02:00</time>
      </trkpt>
      <trkpt lat="44.65073" lon="5.24593">
        <ele>808</ele>
        <time>2021-09-06T02:03:45+02:00</time>
      </trkpt>
      <trkpt lat="44.65061" lon="5.2459">
        <ele>808</ele>
        <time>2021-09-06T02:03:50+02:00</time>
      </trkpt>
      <trkpt lat="44.65047" lon="5.24585">
        <ele>809</ele>
        <time>2021-09-06T02:03:55+02:00</time>
      </trkpt>
      <trkpt lat="44.65037" lon="5.24602">
        <ele>804</ele>
        <time>2021-09-06T02:04:00+02:00</time>
      </trkpt>
      <trkpt lat="44.65031" lon="5.24628">
        <ele>799</ele>
        <time>2021-09-06T02:04:05+02:00</time>
      </trkpt>
      <trkpt lat="44.65036" lon="5.24649">
        <ele>794</ele>
        <time>2021-09-06T02:04:10+02:00</time>
      </trkpt>
      <trkpt lat="44.65041" lon="5.24673">
        <ele>788</ele>
        <time>2021-09-06T02:04:15+02:00</time>
      </trkpt>
      <trkpt lat="44.65041" lon="5.24695">
        <ele>783</ele>
        <time>2021-09-06T02:04:20+02:00</time>
      </trkpt>
      <trkpt lat="44.6503" lon="5.24712">
        <ele>781</ele>
        <time>2021-09-06T02:04:25+02:00</time>
      </trkpt>
      <trkpt lat="44.65016" lon="5.24728">
        <ele>781</ele>
        <time>2021-09-06T02:04:30+02:00</time>
      </trkpt>
      <trkpt lat="44.65011" lon="5.24752">
        <ele>775</ele>
        <time>2021-09-06T02:04:35+02:00</time>
      </trkpt>
      <trkpt lat="44.64999" lon="5.2478">
        <ele>770</ele>
        <time>2021-09-06T02:04:40+02:00</time>
      </trkpt>
      <trkpt lat="44.6499" lon="5.24797">
        <ele>769</ele>
        <time>2021-09-06T02:04:45+02:00</time>
      </trkpt>
      <trkpt lat="44.64977" lon="5.2481">
        <ele>769</ele>
        <time>2021-09-06T02:04:50+02:00</time>
      </trkpt>
      <trkpt lat="44.64957" lon="5.2482">
        <ele>770</ele>
        <time>2021-09-06T02:04:55+02:00</time>
      </trkpt>
      <trkpt lat="44.64941" lon="5.2483">
        <ele>768</ele>
        <time>2021-09-06T02:05:00+02:00</time>
      </trkpt>
      <trkpt lat="44.64937" lon="5.24851">
        <ele>762</ele>
        <time>2021-09-06T02:05:05+02:00</time>
      </trkpt>
      <trkpt lat="44.64938" lon="5.24873">
        <ele>756</ele>
        <time>2021-09-06T02:05:10+02:00</time>
      </trkpt>
      <trkpt lat="44.64955" lon="5.24862">
        <ele>757</ele>
        <time>2021-09-06T02:05:15+02:00</time>
      </trkpt>
      <trkpt lat="44.6497" lon="5.24858">
        <ele>757</ele>
        <time>2021-09-06T02:05:20+02:00</time>
      </trkpt>
      <trkpt lat="44.65003" lon="5.2485">
        <ele>754</ele>
        <time>2021-09-06T02:05:25+02:00</time>
      </trkpt>
      <trkpt lat="44.65025" lon="5.24846">
        <ele>753</ele>
        <time>2021-09-06T02:05:30+02:00</time>
      </trkpt>
      <trkpt lat="44.6504" lon="5.24842">
        <ele>753</ele>
        <time>2021-09-06T02:05:35+02:00</time>
      </trkpt>
      <trkpt lat="44.65049" lon="5.24833">
        <ele>755</ele>
        <time>2021-09-06T02:05:40+02:00</time>
      </trkpt>
      <trkpt lat="44.65061" lon="5.24825">
        <ele>757</ele>
        <time>2021-09-06T02:05:45+02:00</time>
      </trkpt>
      <trkpt lat="44.65071" lon="5.24842">
        <ele>758</ele>
        <time>2021-09-06T02:05:50+02:00</time>
      </trkpt>
      <trkpt lat="44.65084" lon="5.24869">
        <ele>759</ele>
        <time>2021-09-06T02:05:55+02:00</time>
      </trkpt>
      <trkpt lat="44.65098" lon="5.24897">
        <ele>763</ele>
        <time>2021-09-06T02:06:00+02:00</time>
      </trkpt>
      <trkpt lat="44.65109" lon="5.24916">
        <ele>766</ele>
        <time>2021-09-06T02:06:05+02:00</time>
      </trkpt>
      <trkpt lat="44.65112" lon="5.24934">
        <ele>766</ele>
        <time>2021-09-06T02:06:10+02:00</time>
      </trkpt>
      <trkpt lat="44.65128" lon="5.24953">
        <ele>773</ele>
        <time>2021-09-06T02:06:15+02:00</time>
      </trkpt>
      <trkpt lat="44.65128" lon="5.24975">
        <ele>772</ele>
        <time>2021-09-06T02:06:20+02:00</time>
      </trkpt>
      <trkpt lat="44.65132" lon="5.24989">
        <ele>772</ele>
        <time>2021-09-06T02:06:25+02:00</time>
      </trkpt>
      <trkpt lat="44.65148" lon="5.25004">
        <ele>778</ele>
        <time>2021-09-06T02:06:30+02:00</time>
      </trkpt>
      <trkpt lat="44.65156" lon="5.25015">
        <ele>781</ele>
        <time>2021-09-06T02:06:35+02:00</time>
      </trkpt>
      <trkpt lat="44.65163" lon="5.25031">
        <ele>783</ele>
        <time>2021-09-06T02:06:40+02:00</time>
      </trkpt>
      <trkpt lat="44.65168" lon="5.25053">
        <ele>783</ele>
        <time>2021-09-06T02:06:45+02:00</time>
      </trkpt>
      <trkpt lat="44.6517" lon="5.25074">
        <ele>772</ele>
        <time>2021-09-06T02:06:50+02:00</time>
      </trkpt>
      <trkpt lat="44.6518" lon="5.25075">
        <ele>777</ele>
        <time>2021-09-06T02:06:55+02:00</time>
      </trkpt>
      <trkpt lat="44.65196" lon="5.25078">
        <ele>783</ele>
        <time>2021-09-06T02:07:00+02:00</time>
      </trkpt>
      <trkpt lat="44.65219" lon="5.25085">
        <ele>785</ele>
        <time>2021-09-06T02:07:05+02:00</time>
      </trkpt>
      <trkpt lat="44.65239" lon="5.25094">
        <ele>788</ele>
        <time>2021-09-06T02:07:10+02:00</time>
      </trkpt>
      <trkpt lat="44.65254" lon="5.25101">
        <ele>792</ele>
        <time>2021-09-06T02:07:15+02:00</time>
      </trkpt>
      <trkpt lat="44.65266" lon="5.25109">
        <ele>793</ele>
        <time>2021-09-06T02:07:20+02:00</time>
      </trkpt>
      <trkpt lat="44.65274" lon="5.25128">
        <ele>786</ele>
        <time>2021-09-06T02:07:25+02:00</time>
      </trkpt>
      <trkpt lat="44.65298" lon="5.25133">
        <ele>792</ele>
        <time>2021-09-06T02:07:30+02:00</time>
      </trkpt>
      <trkpt lat="44.65325" lon="5.25145">
        <ele>797</ele>
        <time>2021-09-06T02:07:35+02:00</time>
      </trkpt>
      <trkpt lat="44.65343" lon="5.25155">
        <ele>801</ele>
        <time>2021-09-06T02:07:40+02:00</time>
      </trkpt>
      <trkpt lat="44.65364" lon="5.2517">
        <ele>808</ele>
        <time>2021-09-06T02:07:45+02:00</time>
      </trkpt>
      <trkpt lat="44.65375" lon="5.25177">
        <ele>812</ele>
        <time>2021-09-06T02:07:50+02:00</time>
      </trkpt>
      <trkpt lat="44.65376" lon="5.25196">
        <ele>807</ele>
        <time>2021-09-06T02:07:55+02:00</time>
      </trkpt>
      <trkpt lat="44.65378" lon="5.25217">
        <ele>804</ele>
        <time>2021-09-06T02:08:00+02:00</time>
      </trkpt>
      <trkpt lat="44.6539" lon="5.25228">
        <ele>807</ele>
        <time>2021-09-06T02:08:05+02:00</time>
      </trkpt>
      <trkpt lat="44.65412" lon="5.25237">
        <ele>815</ele>
        <time>2021-09-06T02:08:10+02:00</time>
      </trkpt>
      <trkpt lat="44.65422" lon="5.25243">
        <ele>817</ele>
        <time>2021-09-06T02:08:15+02:00</time>
      </trkpt>
      <trkpt lat="44.65431" lon="5.25255">
        <ele>818</ele>
        <time>2021-09-06T02:08:20+02:00</time>
      </trkpt>
      <trkpt lat="44.65439" lon="5.25263">
        <ele>819</ele>
        <time>2021-09-06T02:08:25+02:00</time>
      </trkpt>
      <trkpt lat="44.65445" lon="5.25277">
        <ele>820</ele>
        <time>2021-09-06T02:08:30+02:00</time>
      </trkpt>
      <trkpt lat="44.65444" lon="5.25294">
        <ele>820</ele>
        <time>2021-09-06T02:08:35+02:00</time>
      </trkpt>
      <trkpt lat="44.65447" lon="5.25303">
        <ele>820</ele>
        <time>2021-09-06T02:08:40+02:00</time>
      </trkpt>
      <trkpt lat="44.65457" lon="5.25294">
        <ele>821</ele>
        <time>2021-09-06T02:08:45+02:00</time>
      </trkpt>
      <trkpt lat="44.65464" lon="5.25284">
        <ele>823</ele>
        <time>2021-09-06T02:08:50+02:00</time>
      </trkpt>
      <trkpt lat="44.65476" lon="5.25285">
        <ele>822</ele>
        <time>2021-09-06T02:08:55+02:00</time>
      </trkpt>
      <trkpt lat="44.65489" lon="5.25285">
        <ele>817</ele>
        <time>2021-09-06T02:09:00+02:00</time>
      </trkpt>
      <trkpt lat="44.65496" lon="5.25274">
        <ele>815</ele>
        <time>2021-09-06T02:09:05+02:00</time>
      </trkpt>
      <trkpt lat="44.65515" lon="5.25241">
        <ele>810</ele>
        <time>2021-09-06T02:09:10+02:00</time>
      </trkpt>
      <trkpt lat="44.65531" lon="5.25223">
        <ele>810</ele>
        <time>2021-09-06T02:09:15+02:00</time>
      </trkpt>
      <trkpt lat="44.65546" lon="5.25209">
        <ele>809</ele>
        <time>2021-09-06T02:09:20+02:00</time>
      </trkpt>
      <trkpt lat="44.65565" lon="5.25203">
        <ele>807</ele>
        <time>2021-09-06T02:09:25+02:00</time>
      </trkpt>
      <trkpt lat="44.6559" lon="5.25197">
        <ele>804</ele>
        <time>2021-09-06T02:09:30+02:00</time>
      </trkpt>
      <trkpt lat="44.65611" lon="5.25189">
        <ele>803</ele>
        <time>2021-09-06T02:09:35+02:00</time>
      </trkpt>
      <trkpt lat="44.6564" lon="5.25174">
        <ele>800</ele>
        <time>2021-09-06T02:09:40+02:00</time>
      </trkpt>
      <trkpt lat="44.6566" lon="5.25166">
        <ele>797</ele>
        <time>2021-09-06T02:09:45+02:00</time>
      </trkpt>
      <trkpt lat="44.65675" lon="5.25162">
        <ele>795</ele>
        <time>2021-09-06T02:09:50+02:00</time>
      </trkpt>
      <trkpt lat="44.65692" lon="5.25158">
        <ele>794</ele>
        <time>2021-09-06T02:09:55+02:00</time>
      </trkpt>
      <trkpt lat="44.65712" lon="5.25163">
        <ele>790</ele>
        <time>2021-09-06T02:10:00+02:00</time>
      </trkpt>
      <trkpt lat="44.65728" lon="5.25167">
        <ele>788</ele>
        <time>2021-09-06T02:10:05+02:00</time>
      </trkpt>
      <trkpt lat="44.65746" lon="5.25174">
        <ele>786</ele>
        <time>2021-09-06T02:10:10+02:00</time>
      </trkpt>
      <trkpt lat="44.65763" lon="5.25178">
        <ele>785</ele>
        <time>2021-09-06T02:10:15+02:00</time>
      </trkpt>
      <trkpt lat="44.65787" lon="5.25183">
        <ele>782</ele>
        <time>2021-09-06T02:10:20+02:00</time>
      </trkpt>
      <trkpt lat="44.65808" lon="5.25184">
        <ele>780</ele>
        <time>2021-09-06T02:10:25+02:00</time>
      </trkpt>
      <trkpt lat="44.65828" lon="5.25183">
        <ele>778</ele>
        <time>2021-09-06T02:10:30+02:00</time>
      </trkpt>
      <trkpt lat="44.65837" lon="5.25179">
        <ele>778</ele>
        <time>2021-09-06T02:10:35+02:00</time>
      </trkpt>
      <trkpt lat="44.65852" lon="5.25177">
        <ele>777</ele>
        <time>2021-09-06T02:10:40+02:00</time>
      </trkpt>
      <trkpt lat="44.65861" lon="5.25179">
        <ele>775</ele>
        <time>2021-09-06T02:10:45+02:00</time>
      </trkpt>
      <trkpt lat="44.6587" lon="5.25185">
        <ele>769</ele>
        <time>2021-09-06T02:10:50+02:00</time>
      </trkpt>
      <trkpt lat="44.6586" lon="5.25193">
        <ele>772</ele>
        <time>2021-09-06T02:10:55+02:00</time>
      </trkpt>
      <trkpt lat="44.65847" lon="5.25204">
        <ele>769</ele>
        <time>2021-09-06T02:11:00+02:00</time>
      </trkpt>
      <trkpt lat="44.65837" lon="5.25212">
        <ele>768</ele>
        <time>2021-09-06T02:11:05+02:00</time>
      </trkpt>
      <trkpt lat="44.65829" lon="5.25224">
        <ele>766</ele>
        <time>2021-09-06T02:11:10+02:00</time>
      </trkpt>
      <trkpt lat="44.65819" lon="5.25241">
        <ele>762</ele>
        <time>2021-09-06T02:11:15+02:00</time>
      </trkpt>
      <trkpt lat="44.65811" lon="5.25257">
        <ele>758</ele>
        <time>2021-09-06T02:11:20+02:00</time>
      </trkpt>
      <trkpt lat="44.6577" lon="5.25277">
        <ele>756</ele>
        <time>2021-09-06T02:11:25+02:00</time>
      </trkpt>
      <trkpt lat="44.65758" lon="5.25281">
        <ele>753</ele>
        <time>2021-09-06T02:11:30+02:00</time>
      </trkpt>
      <trkpt lat="44.65739" lon="5.25286">
        <ele>750</ele>
        <time>2021-09-06T02:11:35+02:00</time>
      </trkpt>
      <trkpt lat="44.65712" lon="5.25292">
        <ele>747</ele>
        <time>2021-09-06T02:11:40+02:00</time>
      </trkpt>
      <trkpt lat="44.65692" lon="5.25314">
        <ele>742</ele>
        <time>2021-09-06T02:11:45+02:00</time>
      </trkpt>
      <trkpt lat="44.6567" lon="5.25331">
        <ele>739</ele>
        <time>2021-09-06T02:11:50+02:00</time>
      </trkpt>
      <trkpt lat="44.65654" lon="5.25343">
        <ele>736</ele>
        <time>2021-09-06T02:11:55+02:00</time>
      </trkpt>
      <trkpt lat="44.65641" lon="5.25353">
        <ele>732</ele>
        <time>2021-09-06T02:12:00+02:00</time>
      </trkpt>
      <trkpt lat="44.65656" lon="5.25365">
        <ele>728</ele>
        <time>2021-09-06T02:12:05+02:00</time>
      </trkpt>
      <trkpt lat="44.65677" lon="5.25374">
        <ele>725</ele>
        <time>2021-09-06T02:12:10+02:00</time>
      </trkpt>
      <trkpt lat="44.65692" lon="5.2538">
        <ele>724</ele>
        <time>2021-09-06T02:12:15+02:00</time>
      </trkpt>
      <trkpt lat="44.65707" lon="5.25389">
        <ele>720</ele>
        <time>2021-09-06T02:12:20+02:00</time>
      </trkpt>
      <trkpt lat="44.65721" lon="5.25398">
        <ele>716</ele>
        <time>2021-09-06T02:12:25+02:00</time>
      </trkpt>
      <trkpt lat="44.65741" lon="5.25409">
        <ele>707</ele>
        <time>2021-09-06T02:12:30+02:00</time>
      </trkpt>
      <trkpt lat="44.65757" lon="5.25416">
        <ele>699</ele>
        <time>2021-09-06T02:12:35+02:00</time>
      </trkpt>
      <trkpt lat="44.65772" lon="5.25415">
        <ele>695</ele>
        <time>2021-09-06T02:12:40+02:00</time>
      </trkpt>
      <trkpt lat="44.65782" lon="5.25412">
        <ele>694</ele>
        <time>2021-09-06T02:12:45+02:00</time>
      </trkpt>
      <trkpt lat="44.65796" lon="5.25399">
        <ele>695</ele>
        <time>2021-09-06T02:12:50+02:00</time>
      </trkpt>
      <trkpt lat="44.6581" lon="5.25392">
        <ele>694</ele>
        <time>2021-09-06T02:12:55+02:00</time>
      </trkpt>
      <trkpt lat="44.65826" lon="5.25391">
        <ele>691</ele>
        <time>2021-09-06T02:13:00+02:00</time>
      </trkpt>
      <trkpt lat="44.65845" lon="5.25393">
        <ele>687</ele>
        <time>2021-09-06T02:13:05+02:00</time>
      </trkpt>
      <trkpt lat="44.65857" lon="5.2539">
        <ele>686</ele>
        <time>2021-09-06T02:13:10+02:00</time>
      </trkpt>
      <trkpt lat="44.65866" lon="5.25388">
        <ele>686</ele>
        <time>2021-09-06T02:13:15+02:00</time>
      </trkpt>
      <trkpt lat="44.6587" lon="5.25398">
        <ele>682</ele>
        <time>2021-09-06T02:13:20+02:00</time>
      </trkpt>
      <trkpt lat="44.65857" lon="5.25406">
        <ele>681</ele>
        <time>2021-09-06T02:13:25+02:00</time>
      </trkpt>
      <trkpt lat="44.65834" lon="5.25425">
        <ele>680</ele>
        <time>2021-09-06T02:13:30+02:00</time>
      </trkpt>
      <trkpt lat="44.65822" lon="5.25443">
        <ele>676</ele>
        <time>2021-09-06T02:13:35+02:00</time>
      </trkpt>
      <trkpt lat="44.65812" lon="5.25473">
        <ele>668</ele>
        <time>2021-09-06T02:13:40+02:00</time>
      </trkpt>
      <trkpt lat="44.658" lon="5.25495">
        <ele>666</ele>
        <time>2021-09-06T02:13:45+02:00</time>
      </trkpt>
      <trkpt lat="44.65788" lon="5.25503">
        <ele>665</ele>
        <time>2021-09-06T02:13:50+02:00</time>
      </trkpt>
      <trkpt lat="44.65774" lon="5.25508">
        <ele>665</ele>
        <time>2021-09-06T02:13:55+02:00</time>
      </trkpt>
      <trkpt lat="44.65757" lon="5.25516">
        <ele>664</ele>
        <time>2021-09-06T02:14:00+02:00</time>
      </trkpt>
      <trkpt lat="44.6575" lon="5.25523">
        <ele>662</ele>
        <time>2021-09-06T02:14:05+02:00</time>
      </trkpt>
      <trkpt lat="44.65738" lon="5.25535">
        <ele>658</ele>
        <time>2021-09-06T02:14:10+02:00</time>
      </trkpt>
      <trkpt lat="44.65728" lon="5.25545">
        <ele>655</ele>
        <time>2021-09-06T02:14:15+02:00</time>
      </trkpt>
      <trkpt lat="44.6572" lon="5.25551">
        <ele>653</ele>
        <time>2021-09-06T02:14:20+02:00</time>
      </trkpt>
      <trkpt lat="44.65707" lon="5.25554">
        <ele>651</ele>
        <time>2021-09-06T02:14:25+02:00</time>
      </trkpt>
      <trkpt lat="44.65692" lon="5.25559">
        <ele>648</ele>
        <time>2021-09-06T02:14:30+02:00</time>
      </trkpt>
      <trkpt lat="44.65679" lon="5.25562">
        <ele>646</ele>
        <time>2021-09-06T02:14:35+02:00</time>
      </trkpt>
      <trkpt lat="44.6567" lon="5.25568">
        <ele>644</ele>
        <time>2021-09-06T02:14:40+02:00</time>
      </trkpt>
      <trkpt lat="44.65662" lon="5.25576">
        <ele>643</ele>
        <time>2021-09-06T02:14:45+02:00</time>
      </trkpt>
      <trkpt lat="44.65655" lon="5.25587">
        <ele>641</ele>
        <time>2021-09-06T02:14:50+02:00</time>
      </trkpt>
      <trkpt lat="44.65648" lon="5.25598">
        <ele>640</ele>
        <time>2021-09-06T02:14:55+02:00</time>
      </trkpt>
      <trkpt lat="44.65643" lon="5.25611">
        <ele>638</ele>
        <time>2021-09-06T02:15:00+02:00</time>
      </trkpt>
      <trkpt lat="44.6565" lon="5.25616">
        <ele>636</ele>
        <time>2021-09-06T02:15:05+02:00</time>
      </trkpt>
      <trkpt lat="44.65657" lon="5.2561">
        <ele>636</ele>
        <time>2021-09-06T02:15:10+02:00</time>
      </trkpt>
      <trkpt lat="44.65669" lon="5.25608">
        <ele>635</ele>
        <time>2021-09-06T02:15:15+02:00</time>
      </trkpt>
      <trkpt lat="44.65678" lon="5.25605">
        <ele>635</ele>
        <time>2021-09-06T02:15:20+02:00</time>
      </trkpt>
      <trkpt lat="44.65685" lon="5.25606">
        <ele>635</ele>
        <time>2021-09-06T02:15:25+02:00</time>
      </trkpt>
      <trkpt lat="44.65695" lon="5.25612">
        <ele>634</ele>
        <time>2021-09-06T02:15:30+02:00</time>
      </trkpt>
      <trkpt lat="44.65707" lon="5.25619">
        <ele>632</ele>
        <time>2021-09-06T02:15:35+02:00</time>
      </trkpt>
      <trkpt lat="44.65718" lon="5.25624">
        <ele>630</ele>
        <time>2021-09-06T02:15:40+02:00</time>
      </trkpt>
      <trkpt lat="44.65732" lon="5.2563">
        <ele>628</ele>
        <time>2021-09-06T02:15:45+02:00</time>
      </trkpt>
      <trkpt lat="44.65741" lon="5.25636">
        <ele>627</ele>
        <time>2021-09-06T02:15:50+02:00</time>
      </trkpt>
      <trkpt lat="44.65746" lon="5.25638">
        <ele>626</ele>
        <time>2021-09-06T02:15:55+02:00</time>
      </trkpt>
      <trkpt lat="44.65754" lon="5.25636">
        <ele>626</ele>
        <time>2021-09-06T02:16:00+02:00</time>
      </trkpt>
      <trkpt lat="44.65765" lon="5.25634">
        <ele>626</ele>
        <time>2021-09-06T02:16:05+02:00</time>
      </trkpt>
      <trkpt lat="44.65778" lon="5.25637">
        <ele>624</ele>
        <time>2021-09-06T02:16:10+02:00</time>
      </trkpt>
      <trkpt lat="44.65789" lon="5.25638">
        <ele>621</ele>
        <time>2021-09-06T02:16:15+02:00</time>
      </trkpt>
      <trkpt lat="44.65797" lon="5.25642">
        <ele>618</ele>
        <time>2021-09-06T02:16:20+02:00</time>
      </trkpt>
      <trkpt lat="44.65806" lon="5.2564">
        <ele>616</ele>
        <time>2021-09-06T02:16:25+02:00</time>
      </trkpt>
      <trkpt lat="44.65816" lon="5.2563">
        <ele>619</ele>
        <time>2021-09-06T02:16:30+02:00</time>
      </trkpt>
      <trkpt lat="44.65828" lon="5.25621">
        <ele>622</ele>
        <time>2021-09-06T02:16:35+02:00</time>
      </trkpt>
      <trkpt lat="44.65838" lon="5.25614">
        <ele>623</ele>
        <time>2021-09-06T02:16:40+02:00</time>
      </trkpt>
      <trkpt lat="44.65844" lon="5.2561">
        <ele>623</ele>
        <time>2021-09-06T02:16:45+02:00</time>
      </trkpt>
      <trkpt lat="44.65851" lon="5.25606">
        <ele>623</ele>
        <time>2021-09-06T02:16:50+02:00</time>
      </trkpt>
      <trkpt lat="44.65856" lon="5.25601">
        <ele>625</ele>
        <time>2021-09-06T02:16:55+02:00</time>
      </trkpt>
      <trkpt lat="44.65861" lon="5.25602">
        <ele>623</ele>
        <time>2021-09-06T02:17:00+02:00</time>
      </trkpt>
      <trkpt lat="44.65861" lon="5.25608">
        <ele>620</ele>
        <time>2021-09-06T02:17:05+02:00</time>
      </trkpt>
      <trkpt lat="44.65855" lon="5.25613">
        <ele>619</ele>
        <time>2021-09-06T02:17:10+02:00</time>
      </trkpt>
      <trkpt lat="44.65847" lon="5.25622">
        <ele>617</ele>
        <time>2021-09-06T02:17:15+02:00</time>
      </trkpt>
      <trkpt lat="44.65839" lon="5.25629">
        <ele>616</ele>
        <time>2021-09-06T02:17:20+02:00</time>
      </trkpt>
      <trkpt lat="44.65831" lon="5.25641">
        <ele>612</ele>
        <time>2021-09-06T02:17:25+02:00</time>
      </trkpt>
      <trkpt lat="44.65826" lon="5.25652">
        <ele>608</ele>
        <time>2021-09-06T02:17:30+02:00</time>
      </trkpt>
      <trkpt lat="44.6582" lon="5.25665">
        <ele>604</ele>
        <time>2021-09-06T02:17:35+02:00</time>
      </trkpt>
      <trkpt lat="44.65813" lon="5.25676">
        <ele>602</ele>
        <time>2021-09-06T02:17:40+02:00</time>
      </trkpt>
      <trkpt lat="44.65798" lon="5.25701">
        <ele>599</ele>
        <time>2021-09-06T02:17:45+02:00</time>
      </trkpt>
      <trkpt lat="44.6579" lon="5.2571">
        <ele>598</ele>
        <time>2021-09-06T02:17:50+02:00</time>
      </trkpt>
      <trkpt lat="44.65783" lon="5.25721">
        <ele>597</ele>
        <time>2021-09-06T02:17:55+02:00</time>
      </trkpt>
      <trkpt lat="44.65777" lon="5.25726">
        <ele>598</ele>
        <time>2021-09-06T02:18:00+02:00</time>
      </trkpt>
      <trkpt lat="44.6577" lon="5.25735">
        <ele>596</ele>
        <time>2021-09-06T02:18:05+02:00</time>
      </trkpt>
      <trkpt lat="44.65767" lon="5.25741">
        <ele>595</ele>
        <time>2021-09-06T02:18:10+02:00</time>
      </trkpt>
      <trkpt lat="44.65766" lon="5.25755">
        <ele>591</ele>
        <time>2021-09-06T02:18:15+02:00</time>
      </trkpt>
      <trkpt lat="44.65765" lon="5.25767">
        <ele>587</ele>
        <time>2021-09-06T02:18:20+02:00</time>
      </trkpt>
      <trkpt lat="44.65765" lon="5.25778">
        <ele>584</ele>
        <time>2021-09-06T02:18:25+02:00</time>
      </trkpt>
      <trkpt lat="44.65762" lon="5.2579">
        <ele>582</ele>
        <time>2021-09-06T02:18:30+02:00</time>
      </trkpt>
      <trkpt lat="44.65758" lon="5.25803">
        <ele>580</ele>
        <time>2021-09-06T02:18:35+02:00</time>
      </trkpt>
      <trkpt lat="44.65752" lon="5.25813">
        <ele>580</ele>
        <time>2021-09-06T02:18:40+02:00</time>
      </trkpt>
      <trkpt lat="44.65746" lon="5.25827">
        <ele>579</ele>
        <time>2021-09-06T02:18:45+02:00</time>
      </trkpt>
      <trkpt lat="44.65741" lon="5.25837">
        <ele>578</ele>
        <time>2021-09-06T02:18:50+02:00</time>
      </trkpt>
      <trkpt lat="44.65737" lon="5.25851">
        <ele>575</ele>
        <time>2021-09-06T02:18:55+02:00</time>
      </trkpt>
      <trkpt lat="44.65736" lon="5.25869">
        <ele>571</ele>
        <time>2021-09-06T02:19:00+02:00</time>
      </trkpt>
      <trkpt lat="44.65734" lon="5.25879">
        <ele>568</ele>
        <time>2021-09-06T02:19:05+02:00</time>
      </trkpt>
      <trkpt lat="44.65733" lon="5.25886">
        <ele>567</ele>
        <time>2021-09-06T02:19:10+02:00</time>
      </trkpt>
      <trkpt lat="44.65724" lon="5.25878">
        <ele>575</ele>
        <time>2021-09-06T02:19:15+02:00</time>
      </trkpt>
      <trkpt lat="44.65703" lon="5.25864">
        <ele>585</ele>
        <time>2021-09-06T02:19:20+02:00</time>
      </trkpt>
      <trkpt lat="44.65693" lon="5.25858">
        <ele>589</ele>
        <time>2021-09-06T02:19:25+02:00</time>
      </trkpt>
      <trkpt lat="44.65683" lon="5.25852">
        <ele>591</ele>
        <time>2021-09-06T02:19:30+02:00</time>
      </trkpt>
      <trkpt lat="44.65676" lon="5.25852">
        <ele>592</ele>
        <time>2021-09-06T02:19:35+02:00</time>
      </trkpt>
      <trkpt lat="44.65657" lon="5.25848">
        <ele>593</ele>
        <time>2021-09-06T02:19:40+02:00</time>
      </trkpt>
      <trkpt lat="44.65646" lon="5.25842">
        <ele>593</ele>
        <time>2021-09-06T02:19:45+02:00</time>
      </trkpt>
      <trkpt lat="44.65634" lon="5.25837">
        <ele>593</ele>
        <time>2021-09-06T02:19:50+02:00</time>
      </trkpt>
      <trkpt lat="44.65628" lon="5.25833">
        <ele>592</ele>
        <time>2021-09-06T02:19:55+02:00</time>
      </trkpt>
      <trkpt lat="44.65618" lon="5.25833">
        <ele>590</ele>
        <time>2021-09-06T02:20:00+02:00</time>
      </trkpt>
      <trkpt lat="44.65608" lon="5.25833">
        <ele>588</ele>
        <time>2021-09-06T02:20:05+02:00</time>
      </trkpt>
      <trkpt lat="44.65591" lon="5.2583">
        <ele>584</ele>
        <time>2021-09-06T02:20:10+02:00</time>
      </trkpt>
      <trkpt lat="44.65585" lon="5.25827">
        <ele>583</ele>
        <time>2021-09-06T02:20:15+02:00</time>
      </trkpt>
      <trkpt lat="44.65577" lon="5.25823">
        <ele>583</ele>
        <time>2021-09-06T02:20:20+02:00</time>
      </trkpt>
      <trkpt lat="44.65571" lon="5.2582">
        <ele>583</ele>
        <time>2021-09-06T02:20:25+02:00</time>
      </trkpt>
      <trkpt lat="44.65573" lon="5.25827">
        <ele>581</ele>
        <time>2021-09-06T02:20:30+02:00</time>
      </trkpt>
      <trkpt lat="44.6558" lon="5.25836">
        <ele>579</ele>
        <time>2021-09-06T02:20:35+02:00</time>
      </trkpt>
      <trkpt lat="44.65588" lon="5.25846">
        <ele>578</ele>
        <time>2021-09-06T02:20:40+02:00</time>
      </trkpt>
      <trkpt lat="44.65595" lon="5.25851">
        <ele>579</ele>
        <time>2021-09-06T02:20:45+02:00</time>
      </trkpt>
      <trkpt lat="44.65602" lon="5.25857">
        <ele>580</ele>
        <time>2021-09-06T02:20:50+02:00</time>
      </trkpt>
      <trkpt lat="44.65609" lon="5.25863">
        <ele>581</ele>
        <time>2021-09-06T02:20:55+02:00</time>
      </trkpt>
      <trkpt lat="44.65613" lon="5.25874">
        <ele>580</ele>
        <time>2021-09-06T02:21:00+02:00</time>
      </trkpt>
      <trkpt lat="44.65617" lon="5.25899">
        <ele>577</ele>
        <time>2021-09-06T02:21:05+02:00</time>
      </trkpt>
      <trkpt lat="44.6562" lon="5.2592">
        <ele>574</ele>
        <time>2021-09-06T02:21:10+02:00</time>
      </trkpt>
      <trkpt lat="44.65622" lon="5.25939">
        <ele>571</ele>
        <time>2021-09-06T02:21:15+02:00</time>
      </trkpt>
      <trkpt lat="44.65622" lon="5.25961">
        <ele>567</ele>
        <time>2021-09-06T02:21:20+02:00</time>
      </trkpt>
      <trkpt lat="44.65623" lon="5.25977">
        <ele>565</ele>
        <time>2021-09-06T02:21:25+02:00</time>
      </trkpt>
      <trkpt lat="44.65625" lon="5.25993">
        <ele>563</ele>
        <time>2021-09-06T02:21:30+02:00</time>
      </trkpt>
      <trkpt lat="44.65627" lon="5.26006">
        <ele>561</ele>
        <time>2021-09-06T02:21:35+02:00</time>
      </trkpt>
      <trkpt lat="44.65628" lon="5.26019">
        <ele>559</ele>
        <time>2021-09-06T02:21:40+02:00</time>
      </trkpt>
      <trkpt lat="44.65628" lon="5.26026">
        <ele>557</ele>
        <time>2021-09-06T02:21:45+02:00</time>
      </trkpt>
      <trkpt lat="44.65626" lon="5.26031">
        <ele>556</ele>
        <time>2021-09-06T02:21:50+02:00</time>
      </trkpt>
      <trkpt lat="44.65622" lon="5.26032">
        <ele>555</ele>
        <time>2021-09-06T02:21:55+02:00</time>
      </trkpt>
      <trkpt lat="44.65621" lon="5.26025">
        <ele>557</ele>
        <time>2021-09-06T02:22:00+02:00</time>
      </trkpt>
      <trkpt lat="44.65619" lon="5.26013">
        <ele>559</ele>
        <time>2021-09-06T02:22:05+02:00</time>
      </trkpt>
      <trkpt lat="44.65616" lon="5.26007">
        <ele>559</ele>
        <time>2021-09-06T02:22:10+02:00</time>
      </trkpt>
      <trkpt lat="44.65612" lon="5.26008">
        <ele>559</ele>
        <time>2021-09-06T02:22:15+02:00</time>
      </trkpt>
      <trkpt lat="44.65611" lon="5.26018">
        <ele>557</ele>
        <time>2021-09-06T02:22:20+02:00</time>
      </trkpt>
      <trkpt lat="44.65613" lon="5.26032">
        <ele>554</ele>
        <time>2021-09-06T02:22:25+02:00</time>
      </trkpt>
      <trkpt lat="44.65615" lon="5.26053">
        <ele>550</ele>
        <time>2021-09-06T02:22:30+02:00</time>
      </trkpt>
      <trkpt lat="44.65619" lon="5.26077">
        <ele>542</ele>
        <time>2021-09-06T02:22:35+02:00</time>
      </trkpt>
      <trkpt lat="44.6562" lon="5.26087">
        <ele>539</ele>
        <time>2021-09-06T02:22:40+02:00</time>
      </trkpt>
      <trkpt lat="44.6562" lon="5.26102">
        <ele>535</ele>
        <time>2021-09-06T02:22:45+02:00</time>
      </trkpt>
      <trkpt lat="44.6562" lon="5.26115">
        <ele>532</ele>
        <time>2021-09-06T02:22:50+02:00</time>
      </trkpt>
      <trkpt lat="44.65621" lon="5.26127">
        <ele>529</ele>
        <time>2021-09-06T02:22:55+02:00</time>
      </trkpt>
      <trkpt lat="44.65622" lon="5.26136">
        <ele>527</ele>
        <time>2021-09-06T02:23:00+02:00</time>
      </trkpt>
      <trkpt lat="44.65621" lon="5.26143">
        <ele>525</ele>
        <time>2021-09-06T02:23:05+02:00</time>
      </trkpt>
      <trkpt lat="44.65617" lon="5.26139">
        <ele>528</ele>
        <time>2021-09-06T02:23:10+02:00</time>
      </trkpt>
      <trkpt lat="44.65609" lon="5.26111">
        <ele>535</ele>
        <time>2021-09-06T02:23:15+02:00</time>
      </trkpt>
      <trkpt lat="44.65603" lon="5.26093">
        <ele>536</ele>
        <time>2021-09-06T02:23:20+02:00</time>
      </trkpt>
      <trkpt lat="44.65596" lon="5.26077">
        <ele>536</ele>
        <time>2021-09-06T02:23:25+02:00</time>
      </trkpt>
      <trkpt lat="44.65588" lon="5.26054">
        <ele>538</ele>
        <time>2021-09-06T02:23:30+02:00</time>
      </trkpt>
      <trkpt lat="44.65581" lon="5.2604">
        <ele>536</ele>
        <time>2021-09-06T02:23:35+02:00</time>
      </trkpt>
      <trkpt lat="44.65578" lon="5.26032">
        <ele>536</ele>
        <time>2021-09-06T02:23:40+02:00</time>
      </trkpt>
      <trkpt lat="44.65574" lon="5.26018">
        <ele>535</ele>
        <time>2021-09-06T02:23:45+02:00</time>
      </trkpt>
      <trkpt lat="44.65571" lon="5.26011">
        <ele>534</ele>
        <time>2021-09-06T02:23:50+02:00</time>
      </trkpt>
      <trkpt lat="44.65567" lon="5.26008">
        <ele>532</ele>
        <time>2021-09-06T02:23:55+02:00</time>
      </trkpt>
      <trkpt lat="44.65563" lon="5.26014">
        <ele>528</ele>
        <time>2021-09-06T02:24:00+02:00</time>
      </trkpt>
      <trkpt lat="44.65567" lon="5.26027">
        <ele>529</ele>
        <time>2021-09-06T02:24:05+02:00</time>
      </trkpt>
      <trkpt lat="44.65571" lon="5.26045">
        <ele>528</ele>
        <time>2021-09-06T02:24:10+02:00</time>
      </trkpt>
      <trkpt lat="44.65574" lon="5.26063">
        <ele>527</ele>
        <time>2021-09-06T02:24:15+02:00</time>
      </trkpt>
      <trkpt lat="44.65575" lon="5.26076">
        <ele>526</ele>
        <time>2021-09-06T02:24:20+02:00</time>
      </trkpt>
      <trkpt lat="44.65578" lon="5.26089">
        <ele>526</ele>
        <time>2021-09-06T02:24:25+02:00</time>
      </trkpt>
      <trkpt lat="44.65578" lon="5.26103">
        <ele>523</ele>
        <time>2021-09-06T02:24:30+02:00</time>
      </trkpt>
      <trkpt lat="44.65579" lon="5.26119">
        <ele>521</ele>
        <time>2021-09-06T02:24:35+02:00</time>
      </trkpt>
      <trkpt lat="44.65579" lon="5.2613">
        <ele>520</ele>
        <time>2021-09-06T02:24:40+02:00</time>
      </trkpt>
      <trkpt lat="44.6558" lon="5.26143">
        <ele>518</ele>
        <time>2021-09-06T02:24:45+02:00</time>
      </trkpt>
      <trkpt lat="44.65581" lon="5.26154">
        <ele>517</ele>
        <time>2021-09-06T02:24:50+02:00</time>
      </trkpt>
      <trkpt lat="44.65588" lon="5.26179">
        <ele>515</ele>
        <time>2021-09-06T02:24:55+02:00</time>
      </trkpt>
      <trkpt lat="44.65595" lon="5.26197">
        <ele>513</ele>
        <time>2021-09-06T02:25:00+02:00</time>
      </trkpt>
      <trkpt lat="44.65602" lon="5.26227">
        <ele>509</ele>
        <time>2021-09-06T02:25:05+02:00</time>
      </trkpt>
      <trkpt lat="44.6561" lon="5.26256">
        <ele>506</ele>
        <time>2021-09-06T02:25:10+02:00</time>
      </trkpt>
      <trkpt lat="44.65617" lon="5.26277">
        <ele>500</ele>
        <time>2021-09-06T02:25:15+02:00</time>
      </trkpt>
      <trkpt lat="44.65627" lon="5.26319">
        <ele>490</ele>
        <time>2021-09-06T02:25:20+02:00</time>
      </trkpt>
      <trkpt lat="44.65632" lon="5.26336">
        <ele>489</ele>
        <time>2021-09-06T02:25:25+02:00</time>
      </trkpt>
      <trkpt lat="44.65635" lon="5.26351">
        <ele>488</ele>
        <time>2021-09-06T02:25:30+02:00</time>
      </trkpt>
      <trkpt lat="44.65635" lon="5.26363">
        <ele>487</ele>
        <time>2021-09-06T02:25:35+02:00</time>
      </trkpt>
      <trkpt lat="44.65632" lon="5.26378">
        <ele>486</ele>
        <time>2021-09-06T02:25:40+02:00</time>
      </trkpt>
      <trkpt lat="44.65629" lon="5.26398">
        <ele>484</ele>
        <time>2021-09-06T02:25:45+02:00</time>
      </trkpt>
      <trkpt lat="44.65626" lon="5.26421">
        <ele>481</ele>
        <time>2021-09-06T02:25:50+02:00</time>
      </trkpt>
      <trkpt lat="44.65626" lon="5.26432">
        <ele>480</ele>
        <time>2021-09-06T02:25:55+02:00</time>
      </trkpt>
      <trkpt lat="44.6563" lon="5.26442">
        <ele>480</ele>
        <time>2021-09-06T02:26:00+02:00</time>
      </trkpt>
      <trkpt lat="44.65636" lon="5.26452">
        <ele>479</ele>
        <time>2021-09-06T02:26:05+02:00</time>
      </trkpt>
      <trkpt lat="44.65641" lon="5.26464">
        <ele>479</ele>
        <time>2021-09-06T02:26:10+02:00</time>
      </trkpt>
      <trkpt lat="44.6565" lon="5.26483">
        <ele>480</ele>
        <time>2021-09-06T02:26:15+02:00</time>
      </trkpt>
      <trkpt lat="44.65659" lon="5.26505">
        <ele>481</ele>
        <time>2021-09-06T02:26:20+02:00</time>
      </trkpt>
      <trkpt lat="44.65672" lon="5.26539">
        <ele>480</ele>
        <time>2021-09-06T02:26:25+02:00</time>
      </trkpt>
      <trkpt lat="44.65683" lon="5.26568">
        <ele>480</ele>
        <time>2021-09-06T02:26:30+02:00</time>
      </trkpt>
      <trkpt lat="44.65692" lon="5.26594">
        <ele>479</ele>
        <time>2021-09-06T02:26:35+02:00</time>
      </trkpt>
      <trkpt lat="44.65702" lon="5.26634">
        <ele>476</ele>
        <time>2021-09-06T02:26:40+02:00</time>
      </trkpt>
      <trkpt lat="44.65708" lon="5.26659">
        <ele>476</ele>
        <time>2021-09-06T02:26:45+02:00</time>
      </trkpt>
      <trkpt lat="44.65713" lon="5.26686">
        <ele>474</ele>
        <time>2021-09-06T02:26:50+02:00</time>
      </trkpt>
      <trkpt lat="44.65719" lon="5.2671">
        <ele>471</ele>
        <time>2021-09-06T02:26:55+02:00</time>
      </trkpt>
      <trkpt lat="44.65728" lon="5.26745">
        <ele>465</ele>
        <time>2021-09-06T02:27:00+02:00</time>
      </trkpt>
      <trkpt lat="44.6574" lon="5.26769">
        <ele>457</ele>
        <time>2021-09-06T02:27:05+02:00</time>
      </trkpt>
      <trkpt lat="44.65752" lon="5.26779">
        <ele>452</ele>
        <time>2021-09-06T02:27:10+02:00</time>
      </trkpt>
      <trkpt lat="44.65769" lon="5.26776">
        <ele>450</ele>
        <time>2021-09-06T02:27:15+02:00</time>
      </trkpt>
      <trkpt lat="44.65788" lon="5.26771">
        <ele>447</ele>
        <time>2021-09-06T02:27:20+02:00</time>
      </trkpt>
      <trkpt lat="44.65802" lon="5.26761">
        <ele>446</ele>
        <time>2021-09-06T02:27:25+02:00</time>
      </trkpt>
      <trkpt lat="44.65813" lon="5.26753">
        <ele>445</ele>
        <time>2021-09-06T02:27:30+02:00</time>
      </trkpt>
      <trkpt lat="44.65826" lon="5.2675">
        <ele>443</ele>
        <time>2021-09-06T02:27:35+02:00</time>
      </trkpt>
      <trkpt lat="44.65842" lon="5.26747">
        <ele>439</ele>
        <time>2021-09-06T02:27:40+02:00</time>
      </trkpt>
      <trkpt lat="44.6585" lon="5.26743">
        <ele>438</ele>
        <time>2021-09-06T02:27:45+02:00</time>
      </trkpt>
      <trkpt lat="44.65857" lon="5.26733">
        <ele>439</ele>
        <time>2021-09-06T02:27:50+02:00</time>
      </trkpt>
      <trkpt lat="44.65866" lon="5.26739">
        <ele>435</ele>
        <time>2021-09-06T02:27:55+02:00</time>
      </trkpt>
      <trkpt lat="44.65862" lon="5.26752">
        <ele>432</ele>
        <time>2021-09-06T02:28:00+02:00</time>
      </trkpt>
      <trkpt lat="44.65847" lon="5.26766">
        <ele>433</ele>
        <time>2021-09-06T02:28:05+02:00</time>
      </trkpt>
      <trkpt lat="44.65835" lon="5.26779">
        <ele>432</ele>
        <time>2021-09-06T02:28:10+02:00</time>
      </trkpt>
      <trkpt lat="44.65828" lon="5.26801">
        <ele>431</ele>
        <time>2021-09-06T02:28:15+02:00</time>
      </trkpt>
      <trkpt lat="44.65834" lon="5.26812">
        <ele>430</ele>
        <time>2021-09-06T02:28:20+02:00</time>
      </trkpt>
      <trkpt lat="44.65843" lon="5.26807">
        <ele>430</ele>
        <time>2021-09-06T02:28:25+02:00</time>
      </trkpt>
      <trkpt lat="44.65851" lon="5.268">
        <ele>430</ele>
        <time>2021-09-06T02:28:30+02:00</time>
      </trkpt>
      <trkpt lat="44.65864" lon="5.26801">
        <ele>430</ele>
        <time>2021-09-06T02:28:35+02:00</time>
      </trkpt>
      <trkpt lat="44.65879" lon="5.26808">
        <ele>430</ele>
        <time>2021-09-06T02:28:40+02:00</time>
      </trkpt>
      <trkpt lat="44.65896" lon="5.26804">
        <ele>430</ele>
        <time>2021-09-06T02:28:45+02:00</time>
      </trkpt>
      <trkpt lat="44.65915" lon="5.26804">
        <ele>431</ele>
        <time>2021-09-06T02:28:50+02:00</time>
      </trkpt>
      <trkpt lat="44.65934" lon="5.26807">
        <ele>431</ele>
        <time>2021-09-06T02:28:55+02:00</time>
      </trkpt>
      <trkpt lat="44.6595" lon="5.26807">
        <ele>431</ele>
        <time>2021-09-06T02:29:00+02:00</time>
      </trkpt>
      <trkpt lat="44.65966" lon="5.26821">
        <ele>431</ele>
        <time>2021-09-06T02:29:05+02:00</time>
      </trkpt>
      <trkpt lat="44.65979" lon="5.26838">
        <ele>433</ele>
        <time>2021-09-06T02:29:10+02:00</time>
      </trkpt>
      <trkpt lat="44.65998" lon="5.26855">
        <ele>434</ele>
        <time>2021-09-06T02:29:15+02:00</time>
      </trkpt>
      <trkpt lat="44.66013" lon="5.26865">
        <ele>433</ele>
        <time>2021-09-06T02:29:20+02:00</time>
      </trkpt>
      <trkpt lat="44.66031" lon="5.26869">
        <ele>429</ele>
        <time>2021-09-06T02:29:25+02:00</time>
      </trkpt>
      <trkpt lat="44.6604" lon="5.26869">
        <ele>426</ele>
        <time>2021-09-06T02:29:30+02:00</time>
      </trkpt>
      <trkpt lat="44.66057" lon="5.2688">
        <ele>423</ele>
        <time>2021-09-06T02:29:35+02:00</time>
      </trkpt>
      <trkpt lat="44.66076" lon="5.26894">
        <ele>418</ele>
        <time>2021-09-06T02:29:40+02:00</time>
      </trkpt>
      <trkpt lat="44.66093" lon="5.26908">
        <ele>414</ele>
        <time>2021-09-06T02:29:45+02:00</time>
      </trkpt>
      <trkpt lat="44.66108" lon="5.26938">
        <ele>413</ele>
        <time>2021-09-06T02:29:50+02:00</time>
      </trkpt>
      <trkpt lat="44.66121" lon="5.26955">
        <ele>411</ele>
        <time>2021-09-06T02:29:55+02:00</time>
      </trkpt>
      <trkpt lat="44.6613" lon="5.26973">
        <ele>411</ele>
        <time>2021-09-06T02:30:00+02:00</time>
      </trkpt>
      <trkpt lat="44.66137" lon="5.26975">
        <ele>408</ele>
        <time>2021-09-06T02:30:05+02:00</time>
      </trkpt>
      <trkpt lat="44.66137" lon="5.26964">
        <ele>405</ele>
        <time>2021-09-06T02:30:10+02:00</time>
      </trkpt>
      <trkpt lat="44.66129" lon="5.26948">
        <ele>406</ele>
        <time>2021-09-06T02:30:15+02:00</time>
      </trkpt>
      <trkpt lat="44.6612" lon="5.26934">
        <ele>407</ele>
        <time>2021-09-06T02:30:20+02:00</time>
      </trkpt>
      <trkpt lat="44.66117" lon="5.26922">
        <ele>406</ele>
        <time>2021-09-06T02:30:25+02:00</time>
      </trkpt>
      <trkpt lat="44.6613" lon="5.26936">
        <ele>404</ele>
        <time>2021-09-06T02:30:30+02:00</time>
      </trkpt>
      <trkpt lat="44.66146" lon="5.26949">
        <ele>401</ele>
        <time>2021-09-06T02:30:35+02:00</time>
      </trkpt>
      <trkpt lat="44.6616" lon="5.26956">
        <ele>400</ele>
        <time>2021-09-06T02:30:40+02:00</time>
      </trkpt>
      <trkpt lat="44.66171" lon="5.26968">
        <ele>399</ele>
        <time>2021-09-06T02:30:45+02:00</time>
      </trkpt>
      <trkpt lat="44.66184" lon="5.26989">
        <ele>399</ele>
        <time>2021-09-06T02:30:50+02:00</time>
      </trkpt>
      <trkpt lat="44.66195" lon="5.27022">
        <ele>398</ele>
        <time>2021-09-06T02:30:55+02:00</time>
      </trkpt>
      <trkpt lat="44.66207" lon="5.27042">
        <ele>396</ele>
        <time>2021-09-06T02:31:00+02:00</time>
      </trkpt>
      <trkpt lat="44.66218" lon="5.27058">
        <ele>393</ele>
        <time>2021-09-06T02:31:05+02:00</time>
      </trkpt>
      <trkpt lat="44.66228" lon="5.27077">
        <ele>391</ele>
        <time>2021-09-06T02:31:10+02:00</time>
      </trkpt>
      <trkpt lat="44.66237" lon="5.27092">
        <ele>389</ele>
        <time>2021-09-06T02:31:15+02:00</time>
      </trkpt>
      <trkpt lat="44.66237" lon="5.27113">
        <ele>387</ele>
        <time>2021-09-06T02:31:20+02:00</time>
      </trkpt>
      <trkpt lat="44.66234" lon="5.27132">
        <ele>386</ele>
        <time>2021-09-06T02:31:25+02:00</time>
      </trkpt>
      <trkpt lat="44.6623" lon="5.2716">
        <ele>385</ele>
        <time>2021-09-06T02:31:30+02:00</time>
      </trkpt>
      <trkpt lat="44.66239" lon="5.27165">
        <ele>383</ele>
        <time>2021-09-06T02:31:35+02:00</time>
      </trkpt>
      <trkpt lat="44.66256" lon="5.2716">
        <ele>381</ele>
        <time>2021-09-06T02:31:40+02:00</time>
      </trkpt>
      <trkpt lat="44.66273" lon="5.27164">
        <ele>381</ele>
        <time>2021-09-06T02:31:45+02:00</time>
      </trkpt>
      <trkpt lat="44.66292" lon="5.2717">
        <ele>384</ele>
        <time>2021-09-06T02:31:50+02:00</time>
      </trkpt>
      <trkpt lat="44.66318" lon="5.27174">
        <ele>387</ele>
        <time>2021-09-06T02:31:55+02:00</time>
      </trkpt>
      <trkpt lat="44.66333" lon="5.27178">
        <ele>387</ele>
        <time>2021-09-06T02:32:00+02:00</time>
      </trkpt>
      <trkpt lat="44.66349" lon="5.27179">
        <ele>384</ele>
        <time>2021-09-06T02:32:05+02:00</time>
      </trkpt>
      <trkpt lat="44.66363" lon="5.27174">
        <ele>383</ele>
        <time>2021-09-06T02:32:10+02:00</time>
      </trkpt>
      <trkpt lat="44.66364" lon="5.27175">
        <ele>382</ele>
        <time>2021-09-06T02:32:15+02:00</time>
      </trkpt>
      <trkpt lat="44.66364" lon="5.27175">
        <ele>382</ele>
        <time>2021-09-06T02:32:20+02:00</time>
      </trkpt>
      <trkpt lat="44.66322" lon="5.27223">
        <ele>382</ele>
        <time>2021-09-06T02:32:25+02:00</time>
      </trkpt>
      <trkpt lat="44.66282" lon="5.27391">
        <ele>377</ele>
        <time>2021-09-06T02:32:30+02:00</time>
      </trkpt>
      <trkpt lat="44.66295" lon="5.27572">
        <ele>370</ele>
        <time>2021-09-06T02:32:35+02:00</time>
      </trkpt>
      <trkpt lat="44.66363" lon="5.27673">
        <ele>345</ele>
        <time>2021-09-06T02:32:40+02:00</time>
      </trkpt>
      <trkpt lat="44.664" lon="5.27682">
        <ele>353</ele>
        <time>2021-09-06T02:32:45+02:00</time>
      </trkpt>
      <trkpt lat="44.66411" lon="5.27659">
        <ele>354</ele>
        <time>2021-09-06T02:32:50+02:00</time>
      </trkpt>
      <trkpt lat="44.66407" lon="5.27432">
        <ele>353</ele>
        <time>2021-09-06T02:32:55+02:00</time>
      </trkpt>
      <trkpt lat="44.6643" lon="5.27392">
        <ele>355</ele>
        <time>2021-09-06T02:33:00+02:00</time>
      </trkpt>
      <trkpt lat="44.66529" lon="5.27391">
        <ele>361</ele>
        <time>2021-09-06T02:33:05+02:00</time>
      </trkpt>
      <trkpt lat="44.66571" lon="5.27345">
        <ele>365</ele>
        <time>2021-09-06T02:33:10+02:00</time>
      </trkpt>
      <trkpt lat="44.66554" lon="5.27432">
        <ele>374</ele>
        <time>2021-09-06T02:33:15+02:00</time>
      </trkpt>
      <trkpt lat="44.66469" lon="5.27448">
        <ele>378</ele>
        <time>2021-09-06T02:33:20+02:00</time>
      </trkpt>
      <trkpt lat="44.66473" lon="5.27619">
        <ele>391</ele>
        <time>2021-09-06T02:33:25+02:00</time>
      </trkpt>
      <trkpt lat="44.66513" lon="5.27546">
        <ele>395</ele>
        <time>2021-09-06T02:33:30+02:00</time>
      </trkpt>
      <trkpt lat="44.66613" lon="5.2752">
        <ele>413</ele>
        <time>2021-09-06T02:33:35+02:00</time>
      </trkpt>
      <trkpt lat="44.66641" lon="5.27414">
        <ele>420</ele>
        <time>2021-09-06T02:33:40+02:00</time>
      </trkpt>
      <trkpt lat="44.66638" lon="5.27593">
        <ele>429</ele>
        <time>2021-09-06T02:33:45+02:00</time>
      </trkpt>
      <trkpt lat="44.6674" lon="5.27529">
        <ele>439</ele>
        <time>2021-09-06T02:33:50+02:00</time>
      </trkpt>
      <trkpt lat="44.66861" lon="5.2752">
        <ele>456</ele>
        <time>2021-09-06T02:33:55+02:00</time>
      </trkpt>
      <trkpt lat="44.66952" lon="5.27437">
        <ele>460</ele>
        <time>2021-09-06T02:34:00+02:00</time>
      </trkpt>
      <trkpt lat="44.66951" lon="5.27522">
        <ele>473</ele>
        <time>2021-09-06T02:34:05+02:00</time>
      </trkpt>
      <trkpt lat="44.66805" lon="5.27694">
        <ele>490</ele>
        <time>2021-09-06T02:34:10+02:00</time>
      </trkpt>
      <trkpt lat="44.66949" lon="5.27672">
        <ele>506</ele>
        <time>2021-09-06T02:34:15+02:00</time>
      </trkpt>
      <trkpt lat="44.66799" lon="5.27826">
        <ele>527</ele>
        <time>2021-09-06T02:34:20+02:00</time>
      </trkpt>
      <trkpt lat="44.66833" lon="5.27895">
        <ele>547</ele>
        <time>2021-09-06T02:34:25+02:00</time>
      </trkpt>
      <trkpt lat="44.66819" lon="5.27993">
        <ele>577</ele>
        <time>2021-09-06T02:34:30+02:00</time>
      </trkpt>
      <trkpt lat="44.66911" lon="5.28162">
        <ele>592</ele>
        <time>2021-09-06T02:34:35+02:00</time>
      </trkpt>
      <trkpt lat="44.66901" lon="5.28207">
        <ele>591</ele>
        <time>2021-09-06T02:34:40+02:00</time>
      </trkpt>
      <trkpt lat="44.66709" lon="5.28227">
        <ele>588</ele>
        <time>2021-09-06T02:34:45+02:00</time>
      </trkpt>
      <trkpt lat="44.6668" lon="5.28253">
        <ele>593</ele>
        <time>2021-09-06T02:34:50+02:00</time>
      </trkpt>
      <trkpt lat="44.66704" lon="5.2843">
        <ele>580</ele>
        <time>2021-09-06T02:34:55+02:00</time>
      </trkpt>
      <trkpt lat="44.66638" lon="5.28472">
        <ele>582</ele>
        <time>2021-09-06T02:35:00+02:00</time>
      </trkpt>
      <trkpt lat="44.66593" lon="5.28544">
        <ele>593</ele>
        <time>2021-09-06T02:35:05+02:00</time>
      </trkpt>
      <trkpt lat="44.66568" lon="5.28712">
        <ele>622</ele>
        <time>2021-09-06T02:35:10+02:00</time>
      </trkpt>
      <trkpt lat="44.66477" lon="5.28927">
        <ele>656</ele>
        <time>2021-09-06T02:35:15+02:00</time>
      </trkpt>
      <trkpt lat="44.66508" lon="5.28957">
        <ele>673</ele>
        <time>2021-09-06T02:35:20+02:00</time>
      </trkpt>
      <trkpt lat="44.66543" lon="5.28947">
        <ele>679</ele>
        <time>2021-09-06T02:35:25+02:00</time>
      </trkpt>
      <trkpt lat="44.66512" lon="5.29036">
        <ele>687</ele>
        <time>2021-09-06T02:35:30+02:00</time>
      </trkpt>
      <trkpt lat="44.66488" lon="5.29081">
        <ele>693</ele>
        <time>2021-09-06T02:35:35+02:00</time>
      </trkpt>
      <trkpt lat="44.66401" lon="5.29126">
        <ele>694</ele>
        <time>2021-09-06T02:35:40+02:00</time>
      </trkpt>
      <trkpt lat="44.66371" lon="5.29186">
        <ele>702</ele>
        <time>2021-09-06T02:35:45+02:00</time>
      </trkpt>
      <trkpt lat="44.66412" lon="5.29249">
        <ele>732</ele>
        <time>2021-09-06T02:35:50+02:00</time>
      </trkpt>
      <trkpt lat="44.66407" lon="5.29307">
        <ele>746</ele>
        <time>2021-09-06T02:35:55+02:00</time>
      </trkpt>
      <trkpt lat="44.66277" lon="5.29459">
        <ele>752</ele>
        <time>2021-09-06T02:36:00+02:00</time>
      </trkpt>
      <trkpt lat="44.66247" lon="5.29581">
        <ele>779</ele>
        <time>2021-09-06T02:36:05+02:00</time>
      </trkpt>
      <trkpt lat="44.66183" lon="5.29631">
        <ele>789</ele>
        <time>2021-09-06T02:36:10+02:00</time>
      </trkpt>
      <trkpt lat="44.66157" lon="5.29684">
        <ele>800</ele>
        <time>2021-09-06T02:36:15+02:00</time>
      </trkpt>
      <trkpt lat="44.66126" lon="5.2969">
        <ele>799</ele>
        <time>2021-09-06T02:36:20+02:00</time>
      </trkpt>
      <trkpt lat="44.66085" lon="5.29794">
        <ele>820</ele>
        <time>2021-09-06T02:36:25+02:00</time>
      </trkpt>
      <trkpt lat="44.66041" lon="5.30184">
        <ele>883</ele>
        <time>2021-09-06T02:36:30+02:00</time>
      </trkpt>
      <trkpt lat="44.65986" lon="5.30272">
        <ele>889</ele>
        <time>2021-09-06T02:36:35+02:00</time>
      </trkpt>
      <trkpt lat="44.66044" lon="5.30587">
        <ele>911</ele>
        <time>2021-09-06T02:36:40+02:00</time>
      </trkpt>
      <trkpt lat="44.66005" lon="5.30638">
        <ele>902</ele>
        <time>2021-09-06T02:36:45+02:00</time>
      </trkpt>
      <trkpt lat="44.65948" lon="5.30671">
        <ele>895</ele>
        <time>2021-09-06T02:36:50+02:00</time>
      </trkpt>
      <trkpt lat="44.65899" lon="5.30714">
        <ele>890</ele>
        <time>2021-09-06T02:36:55+02:00</time>
      </trkpt>
      <trkpt lat="44.65852" lon="5.30746">
        <ele>886</ele>
        <time>2021-09-06T02:37:00+02:00</time>
      </trkpt>
      <trkpt lat="44.65799" lon="5.30765">
        <ele>883</ele>
        <time>2021-09-06T02:37:05+02:00</time>
      </trkpt>
      <trkpt lat="44.65775" lon="5.30803">
        <ele>884</ele>
        <time>2021-09-06T02:37:10+02:00</time>
      </trkpt>
      <trkpt lat="44.65742" lon="5.30793">
        <ele>880</ele>
        <time>2021-09-06T02:37:15+02:00</time>
      </trkpt>
      <trkpt lat="44.65716" lon="5.3077">
        <ele>871</ele>
        <time>2021-09-06T02:37:20+02:00</time>
      </trkpt>
      <trkpt lat="44.65687" lon="5.30785">
        <ele>874</ele>
        <time>2021-09-06T02:37:25+02:00</time>
      </trkpt>
      <trkpt lat="44.65654" lon="5.3078">
        <ele>869</ele>
        <time>2021-09-06T02:37:30+02:00</time>
      </trkpt>
      <trkpt lat="44.65658" lon="5.30842">
        <ele>887</ele>
        <time>2021-09-06T02:37:35+02:00</time>
      </trkpt>
      <trkpt lat="44.65651" lon="5.30829">
        <ele>883</ele>
        <time>2021-09-06T02:37:40+02:00</time>
      </trkpt>
      <trkpt lat="44.65632" lon="5.30812">
        <ele>880</ele>
        <time>2021-09-06T02:37:45+02:00</time>
      </trkpt>
      <trkpt lat="44.656" lon="5.30791">
        <ele>884</ele>
        <time>2021-09-06T02:37:50+02:00</time>
      </trkpt>
      <trkpt lat="44.65579" lon="5.30776">
        <ele>885</ele>
        <time>2021-09-06T02:37:55+02:00</time>
      </trkpt>
      <trkpt lat="44.65547" lon="5.30753">
        <ele>888</ele>
        <time>2021-09-06T02:38:00+02:00</time>
      </trkpt>
      <trkpt lat="44.65443" lon="5.30679">
        <ele>889</ele>
        <time>2021-09-06T02:38:05+02:00</time>
      </trkpt>
      <trkpt lat="44.65376" lon="5.30667">
        <ele>884</ele>
        <time>2021-09-06T02:38:10+02:00</time>
      </trkpt>
      <trkpt lat="44.65352" lon="5.30654">
        <ele>875</ele>
        <time>2021-09-06T02:38:15+02:00</time>
      </trkpt>
      <trkpt lat="44.65334" lon="5.30667">
        <ele>873</ele>
        <time>2021-09-06T02:38:20+02:00</time>
      </trkpt>
      <trkpt lat="44.65309" lon="5.30672">
        <ele>868</ele>
        <time>2021-09-06T02:38:25+02:00</time>
      </trkpt>
      <trkpt lat="44.65299" lon="5.30689">
        <ele>867</ele>
        <time>2021-09-06T02:38:30+02:00</time>
      </trkpt>
      <trkpt lat="44.65131" lon="5.31278">
        <ele>877</ele>
        <time>2021-09-06T02:38:35+02:00</time>
      </trkpt>
      <trkpt lat="44.65014" lon="5.31918">
        <ele>890</ele>
        <time>2021-09-06T02:38:40+02:00</time>
      </trkpt>
      <trkpt lat="44.64866" lon="5.32017">
        <ele>898</ele>
        <time>2021-09-06T02:38:45+02:00</time>
      </trkpt>
      <trkpt lat="44.64799" lon="5.32157">
        <ele>920</ele>
        <time>2021-09-06T02:38:50+02:00</time>
      </trkpt>
      <trkpt lat="44.64687" lon="5.3223">
        <ele>921</ele>
        <time>2021-09-06T02:38:55+02:00</time>
      </trkpt>
      <trkpt lat="44.64668" lon="5.32217">
        <ele>920</ele>
        <time>2021-09-06T02:39:00+02:00</time>
      </trkpt>
      <trkpt lat="44.64644" lon="5.32244">
        <ele>929</ele>
        <time>2021-09-06T02:39:05+02:00</time>
      </trkpt>
      <trkpt lat="44.64606" lon="5.3224">
        <ele>927</ele>
        <time>2021-09-06T02:39:10+02:00</time>
      </trkpt>
      <trkpt lat="44.64612" lon="5.32324">
        <ele>963</ele>
        <time>2021-09-06T02:39:15+02:00</time>
      </trkpt>
      <trkpt lat="44.64544" lon="5.32419">
        <ele>992</ele>
        <time>2021-09-06T02:39:20+02:00</time>
      </trkpt>
      <trkpt lat="44.64493" lon="5.32352">
        <ele>991</ele>
        <time>2021-09-06T02:39:25+02:00</time>
      </trkpt>
      <trkpt lat="44.64453" lon="5.32152">
        <ele>967</ele>
        <time>2021-09-06T02:39:30+02:00</time>
      </trkpt>
      <trkpt lat="44.64387" lon="5.31465">
        <ele>890</ele>
        <time>2021-09-06T02:39:35+02:00</time>
      </trkpt>
      <trkpt lat="44.6434" lon="5.31281">
        <ele>902</ele>
        <time>2021-09-06T02:39:40+02:00</time>
      </trkpt>
      <trkpt lat="44.64319" lon="5.31324">
        <ele>928</ele>
        <time>2021-09-06T02:39:45+02:00</time>
      </trkpt>
      <trkpt lat="44.64305" lon="5.31272">
        <ele>936</ele>
        <time>2021-09-06T02:39:50+02:00</time>
      </trkpt>
      <trkpt lat="44.64304" lon="5.31326">
        <ele>942</ele>
        <time>2021-09-06T02:39:55+02:00</time>
      </trkpt>
      <trkpt lat="44.64272" lon="5.31257">
        <ele>968</ele>
        <time>2021-09-06T02:40:00+02:00</time>
      </trkpt>
      <trkpt lat="44.64243" lon="5.31465">
        <ele>960</ele>
        <time>2021-09-06T02:40:05+02:00</time>
      </trkpt>
      <trkpt lat="44.6421" lon="5.31582">
        <ele>949</ele>
        <time>2021-09-06T02:40:10+02:00</time>
      </trkpt>
      <trkpt lat="44.64148" lon="5.31688">
        <ele>935</ele>
        <time>2021-09-06T02:40:15+02:00</time>
      </trkpt>
      <trkpt lat="44.64095" lon="5.31912">
        <ele>925</ele>
        <time>2021-09-06T02:40:20+02:00</time>
      </trkpt>
      <trkpt lat="44.64032" lon="5.32001">
        <ele>895</ele>
        <time>2021-09-06T02:40:25+02:00</time>
      </trkpt>
      <trkpt lat="44.63932" lon="5.32237">
        <ele>876</ele>
        <time>2021-09-06T02:40:30+02:00</time>
      </trkpt>
      <trkpt lat="44.63845" lon="5.32324">
        <ele>840</ele>
        <time>2021-09-06T02:40:35+02:00</time>
      </trkpt>
      <trkpt lat="44.63821" lon="5.32213">
        <ele>832</ele>
        <time>2021-09-06T02:40:40+02:00</time>
      </trkpt>
      <trkpt lat="44.63838" lon="5.32048">
        <ele>824</ele>
        <time>2021-09-06T02:40:45+02:00</time>
      </trkpt>
      <trkpt lat="44.63893" lon="5.31931">
        <ele>827</ele>
        <time>2021-09-06T02:40:50+02:00</time>
      </trkpt>
      <trkpt lat="44.63838" lon="5.31713">
        <ele>806</ele>
        <time>2021-09-06T02:40:55+02:00</time>
      </trkpt>
      <trkpt lat="44.63883" lon="5.31666">
        <ele>813</ele>
        <time>2021-09-06T02:41:00+02:00</time>
      </trkpt>
      <trkpt lat="44.63799" lon="5.31493">
        <ele>794</ele>
        <time>2021-09-06T02:41:05+02:00</time>
      </trkpt>
      <trkpt lat="44.63827" lon="5.31637">
        <ele>795</ele>
        <time>2021-09-06T02:41:10+02:00</time>
      </trkpt>
      <trkpt lat="44.63762" lon="5.31654">
        <ele>781</ele>
        <time>2021-09-06T02:41:15+02:00</time>
      </trkpt>
      <trkpt lat="44.63743" lon="5.31756">
        <ele>785</ele>
        <time>2021-09-06T02:41:20+02:00</time>
      </trkpt>
      <trkpt lat="44.63703" lon="5.3162">
        <ele>767</ele>
        <time>2021-09-06T02:41:25+02:00</time>
      </trkpt>
      <trkpt lat="44.63736" lon="5.31761">
        <ele>782</ele>
        <time>2021-09-06T02:41:30+02:00</time>
      </trkpt>
      <trkpt lat="44.63736" lon="5.31761">
        <ele>782</ele>
        <time>2021-09-06T02:41:35+02:00</time>
      </trkpt>
      <trkpt lat="44.63701" lon="5.31617">
        <ele>766</ele>
        <time>2021-09-06T02:41:40+02:00</time>
      </trkpt>
      <trkpt lat="44.63583" lon="5.3149">
        <ele>746</ele>
        <time>2021-09-06T02:41:45+02:00</time>
      </trkpt>
      <trkpt lat="44.63524" lon="5.31524">
        <ele>740</ele>
        <time>2021-09-06T02:41:50+02:00</time>
      </trkpt>
      <trkpt lat="44.63269" lon="5.31449">
        <ele>682</ele>
        <time>2021-09-06T02:41:55+02:00</time>
      </trkpt>
      <trkpt lat="44.62857" lon="5.31222">
        <ele>618</ele>
        <time>2021-09-06T02:42:00+02:00</time>
      </trkpt>
      <trkpt lat="44.62778" lon="5.30987">
        <ele>593</ele>
        <time>2021-09-06T02:42:05+02:00</time>
      </trkpt>
      <trkpt lat="44.62766" lon="5.31035">
        <ele>592</ele>
        <time>2021-09-06T02:42:10+02:00</time>
      </trkpt>
      <trkpt lat="44.62743" lon="5.30982">
        <ele>581</ele>
        <time>2021-09-06T02:42:15+02:00</time>
      </trkpt>
      <trkpt lat="44.62737" lon="5.30843">
        <ele>560</ele>
        <time>2021-09-06T02:42:20+02:00</time>
      </trkpt>
      <trkpt lat="44.62714" lon="5.30875">
        <ele>556</ele>
        <time>2021-09-06T02:42:25+02:00</time>
      </trkpt>
      <trkpt lat="44.62709" lon="5.30835">
        <ele>548</ele>
        <time>2021-09-06T02:42:30+02:00</time>
      </trkpt>
      <trkpt lat="44.62739" lon="5.30669">
        <ele>516</ele>
        <time>2021-09-06T02:42:35+02:00</time>
      </trkpt>
      <trkpt lat="44.62855" lon="5.30571">
        <ele>478</ele>
        <time>2021-09-06T02:42:40+02:00</time>
      </trkpt>
      <trkpt lat="44.62718" lon="5.30543">
        <ele>470</ele>
        <time>2021-09-06T02:42:45+02:00</time>
      </trkpt>
      <trkpt lat="44.62597" lon="5.30742">
        <ele>461</ele>
        <time>2021-09-06T02:42:50+02:00</time>
      </trkpt>
      <trkpt lat="44.62582" lon="5.30752">
        <ele>452</ele>
        <time>2021-09-06T02:42:55+02:00</time>
      </trkpt>
      <trkpt lat="44.62575" lon="5.30728">
        <ele>449</ele>
        <time>2021-09-06T02:43:00+02:00</time>
      </trkpt>
      <trkpt lat="44.6256" lon="5.30719">
        <ele>449</ele>
        <time>2021-09-06T02:43:05+02:00</time>
      </trkpt>
      <trkpt lat="44.62473" lon="5.30772">
        <ele>470</ele>
        <time>2021-09-06T02:43:10+02:00</time>
      </trkpt>
      <trkpt lat="44.62502" lon="5.30787">
        <ele>461</ele>
        <time>2021-09-06T02:43:15+02:00</time>
      </trkpt>
      <trkpt lat="44.62453" lon="5.30797">
        <ele>478</ele>
        <time>2021-09-06T02:43:20+02:00</time>
      </trkpt>
      <trkpt lat="44.62416" lon="5.3082">
        <ele>481</ele>
        <time>2021-09-06T02:43:25+02:00</time>
      </trkpt>
      <trkpt lat="44.62372" lon="5.30878">
        <ele>486</ele>
        <time>2021-09-06T02:43:30+02:00</time>
      </trkpt>
      <trkpt lat="44.6226" lon="5.31158">
        <ele>482</ele>
        <time>2021-09-06T02:43:35+02:00</time>
      </trkpt>
      <trkpt lat="44.62184" lon="5.31148">
        <ele>495</ele>
        <time>2021-09-06T02:43:40+02:00</time>
      </trkpt>
      <trkpt lat="44.6214" lon="5.31193">
        <ele>495</ele>
        <time>2021-09-06T02:43:45+02:00</time>
      </trkpt>
      <trkpt lat="44.62108" lon="5.31273">
        <ele>503</ele>
        <time>2021-09-06T02:43:50+02:00</time>
      </trkpt>
      <trkpt lat="44.62113" lon="5.31338">
        <ele>509</ele>
        <time>2021-09-06T02:43:55+02:00</time>
      </trkpt>
      <trkpt lat="44.62158" lon="5.31276">
        <ele>508</ele>
        <time>2021-09-06T02:44:00+02:00</time>
      </trkpt>
      <trkpt lat="44.62214" lon="5.31304">
        <ele>505</ele>
        <time>2021-09-06T02:44:05+02:00</time>
      </trkpt>
      <trkpt lat="44.62161" lon="5.31294">
        <ele>513</ele>
        <time>2021-09-06T02:44:10+02:00</time>
      </trkpt>
      <trkpt lat="44.62123" lon="5.31406">
        <ele>528</ele>
        <time>2021-09-06T02:44:15+02:00</time>
      </trkpt>
      <trkpt lat="44.62066" lon="5.31432">
        <ele>527</ele>
        <time>2021-09-06T02:44:20+02:00</time>
      </trkpt>
      <trkpt lat="44.62018" lon="5.31408">
        <ele>523</ele>
        <time>2021-09-06T02:44:25+02:00</time>
      </trkpt>
      <trkpt lat="44.62062" lon="5.31372">
        <ele>515</ele>
        <time>2021-09-06T02:44:30+02:00</time>
      </trkpt>
      <trkpt lat="44.62059" lon="5.31245">
        <ele>527</ele>
        <time>2021-09-06T02:44:35+02:00</time>
      </trkpt>
      <trkpt lat="44.62178" lon="5.31033">
        <ele>538</ele>
        <time>2021-09-06T02:44:40+02:00</time>
      </trkpt>
      <trkpt lat="44.62086" lon="5.31073">
        <ele>548</ele>
        <time>2021-09-06T02:44:45+02:00</time>
      </trkpt>
      <trkpt lat="44.62014" lon="5.31144">
        <ele>560</ele>
        <time>2021-09-06T02:44:50+02:00</time>
      </trkpt>
      <trkpt lat="44.61893" lon="5.31156">
        <ele>581</ele>
        <time>2021-09-06T02:44:55+02:00</time>
      </trkpt>
      <trkpt lat="44.61815" lon="5.31308">
        <ele>604</ele>
        <time>2021-09-06T02:45:00+02:00</time>
      </trkpt>
      <trkpt lat="44.61703" lon="5.31381">
        <ele>616</ele>
        <time>2021-09-06T02:45:05+02:00</time>
      </trkpt>
      <trkpt lat="44.61781" lon="5.31413">
        <ele>621</ele>
        <time>2021-09-06T02:45:10+02:00</time>
      </trkpt>
      <trkpt lat="44.61755" lon="5.31445">
        <ele>631</ele>
        <time>2021-09-06T02:45:15+02:00</time>
      </trkpt>
      <trkpt lat="44.61769" lon="5.31572">
        <ele>637</ele>
        <time>2021-09-06T02:45:20+02:00</time>
      </trkpt>
      <trkpt lat="44.61725" lon="5.31852">
        <ele>664</ele>
        <time>2021-09-06T02:45:25+02:00</time>
      </trkpt>
      <trkpt lat="44.61757" lon="5.32058">
        <ele>686</ele>
        <time>2021-09-06T02:45:30+02:00</time>
      </trkpt>
      <trkpt lat="44.61818" lon="5.32147">
        <ele>696</ele>
        <time>2021-09-06T02:45:35+02:00</time>
      </trkpt>
      <trkpt lat="44.61807" lon="5.32269">
        <ele>706</ele>
        <time>2021-09-06T02:45:40+02:00</time>
      </trkpt>
      <trkpt lat="44.61838" lon="5.32413">
        <ele>722</ele>
        <time>2021-09-06T02:45:45+02:00</time>
      </trkpt>
      <trkpt lat="44.61732" lon="5.32284">
        <ele>736</ele>
        <time>2021-09-06T02:45:50+02:00</time>
      </trkpt>
      <trkpt lat="44.61694" lon="5.32502">
        <ele>756</ele>
        <time>2021-09-06T02:45:55+02:00</time>
      </trkpt>
      <trkpt lat="44.61718" lon="5.32629">
        <ele>764</ele>
        <time>2021-09-06T02:46:00+02:00</time>
      </trkpt>
      <trkpt lat="44.61693" lon="5.32708">
        <ele>772</ele>
        <time>2021-09-06T02:46:05+02:00</time>
      </trkpt>
      <trkpt lat="44.61592" lon="5.32835">
        <ele>788</ele>
        <time>2021-09-06T02:46:10+02:00</time>
      </trkpt>
      <trkpt lat="44.61435" lon="5.32955">
        <ele>799</ele>
        <time>2021-09-06T02:46:15+02:00</time>
      </trkpt>
      <trkpt lat="44.61361" lon="5.3278">
        <ele>803</ele>
        <time>2021-09-06T02:46:20+02:00</time>
      </trkpt>
      <trkpt lat="44.61141" lon="5.3266">
        <ele>810</ele>
        <time>2021-09-06T02:46:25+02:00</time>
      </trkpt>
      <trkpt lat="44.61054" lon="5.32651">
        <ele>807</ele>
        <time>2021-09-06T02:46:30+02:00</time>
      </trkpt>
      <trkpt lat="44.61047" lon="5.32512">
        <ele>809</ele>
        <time>2021-09-06T02:46:35+02:00</time>
      </trkpt>
      <trkpt lat="44.61018" lon="5.32442">
        <ele>812</ele>
        <time>2021-09-06T02:46:40+02:00</time>
      </trkpt>
      <trkpt lat="44.60921" lon="5.32291">
        <ele>803</ele>
        <time>2021-09-06T02:46:45+02:00</time>
      </trkpt>
      <trkpt lat="44.60809" lon="5.3231">
        <ele>796</ele>
        <time>2021-09-06T02:46:50+02:00</time>
      </trkpt>
      <trkpt lat="44.60797" lon="5.32159">
        <ele>786</ele>
        <time>2021-09-06T02:46:55+02:00</time>
      </trkpt>
      <trkpt lat="44.60762" lon="5.32085">
        <ele>789</ele>
        <time>2021-09-06T02:47:00+02:00</time>
      </trkpt>
      <trkpt lat="44.60709" lon="5.32041">
        <ele>797</ele>
        <time>2021-09-06T02:47:05+02:00</time>
      </trkpt>
      <trkpt lat="44.6058" lon="5.32024">
        <ele>813</ele>
        <time>2021-09-06T02:47:10+02:00</time>
      </trkpt>
      <trkpt lat="44.60434" lon="5.3216">
        <ele>831</ele>
        <time>2021-09-06T02:47:15+02:00</time>
      </trkpt>
      <trkpt lat="44.60329" lon="5.32206">
        <ele>815</ele>
        <time>2021-09-06T02:47:20+02:00</time>
      </trkpt>
      <trkpt lat="44.60205" lon="5.32171">
        <ele>797</ele>
        <time>2021-09-06T02:47:25+02:00</time>
      </trkpt>
      <trkpt lat="44.60162" lon="5.32054">
        <ele>783</ele>
        <time>2021-09-06T02:47:30+02:00</time>
      </trkpt>
      <trkpt lat="44.60097" lon="5.32056">
        <ele>777</ele>
        <time>2021-09-06T02:47:35+02:00</time>
      </trkpt>
      <trkpt lat="44.59955" lon="5.32383">
        <ele>758</ele>
        <time>2021-09-06T02:47:40+02:00</time>
      </trkpt>
      <trkpt lat="44.59829" lon="5.32055">
        <ele>733</ele>
        <time>2021-09-06T02:47:45+02:00</time>
      </trkpt>
      <trkpt lat="44.5961" lon="5.31881">
        <ele>724</ele>
        <time>2021-09-06T02:47:50+02:00</time>
      </trkpt>
      <trkpt lat="44.59592" lon="5.31718">
        <ele>709</ele>
        <time>2021-09-06T02:47:55+02:00</time>
      </trkpt>
      <trkpt lat="44.59477" lon="5.31734">
        <ele>709</ele>
        <time>2021-09-06T02:48:00+02:00</time>
      </trkpt>
      <trkpt lat="44.59431" lon="5.31819">
        <ele>719</ele>
        <time>2021-09-06T02:48:05+02:00</time>
      </trkpt>
      <trkpt lat="44.59326" lon="5.31908">
        <ele>718</ele>
        <time>2021-09-06T02:48:10+02:00</time>
      </trkpt>
      <trkpt lat="44.59312" lon="5.31892">
        <ele>715</ele>
        <time>2021-09-06T02:48:15+02:00</time>
      </trkpt>
      <trkpt lat="44.59338" lon="5.3169">
        <ele>712</ele>
        <time>2021-09-06T02:48:20+02:00</time>
      </trkpt>
      <trkpt lat="44.59239" lon="5.31588">
        <ele>720</ele>
        <time>2021-09-06T02:48:25+02:00</time>
      </trkpt>
    </trkseg>
  </trk>
</gpx>